[[{"header":{"parameterUnit":"m.s-1","parameterCategory":1,"la1":31.0,"la2":29.5877,"lo1":-88.7671,"lo2":-86.6584,"dy":0.0162,"dx":0.0185,"nx":115,"ny":88,"refTime":"2024-03-25T00:00:00:Z","depth":0,"parameterNumber":2,"parameterNumberName":"U-component_of_WINDS"},"data":[0.0,0.0,0.0,0.0,0.0,0.0,0.0,0.0,0.0,0.0,0.0,0.0,0.0,0.0,0.0,0.0,0.0,0.0,0.0,0.0,0.0,0.0,0.0,0.0,0.0,0.0,0.0,0.0,0.0,0.0,0.0,0.0,0.0,0.0,0.0,0.0,0.0,0.0,0.0,0.0,0.0,0.0,0.0,0.0,0.0,0.0,0.0,0.0,0.0,0.0,0.0,0.0,0.0,0.0,0.0,0.0,0.0,0.0,0.0,0.0,0.0,0.0,0.0,0.0,0.0,0.0,0.0,0.0,0.0,0.0,0.0,0.0,0.0,0.0,0.0,0.0,0.0,0.0,0.0,0.0,0.0,0.0,0.0,0.0,0.0,0.0,0.0,0.0,0.0,0.0,0.0,0.0,0.0,0.0,0.0,0.0,0.0,0.0,0.0,0.0,0.0,0.0,0.0,0.0,0.0,0.0,0.0,0.0,0.0,0.0,0.0,0.0,0.0,0.0,0.0,0.0,0.0,0.0,0.0,0.0,0.0,0.0,0.0,0.0,0.0,0.0,0.0,0.0,0.0,0.0,0.0,0.0,0.0,0.0,0.0,0.0,0.0,0.0,0.0,0.0,0.0,0.0,0.0,0.0,0.0,0.0,0.0,0.0,0.0,0.0,0.0,0.0,0.0,0.0,0.0,0.0,0.0,0.0,0.0,0.0,0.0,0.0,0.0,0.0,0.0,0.0,0.0,0.0,0.0,0.0,0.0,0.0,0.0,0.0,0.0,0.0,0.0,0.0,0.0,0.0,0.0,0.0,0.0,0.0,0.0,0.0,0.0,0.0,0.0,0.0,0.0,0.0,0.0,0.0,0.0,0.0,0.0,0.0,0.0,0.0,0.0,0.0,0.0,0.0,0.0,0.0,0.0,0.0,0.0,0.0,0.0,0.0,0.0,0.0,0.0,0.0,0.0,0.0,0.0,0.0,0.0,0.0,0.0,0.0,0.0,0.0,0.0,0.0,0.0,0.0,0.0,0.0,0.0,0.0,0.0,0.0,0.0,0.0,0.0,0.0,0.0,0.0,0.0,0.0,0.0,0.0,0.0,0.0,0.0,0.0,0.0,0.0,0.0,0.0,0.0,0.0,0.0,0.0,0.0,0.0,0.0,0.0,0.0,0.0,0.0,0.0,0.0,0.0,0.0,0.0,0.0,0.0,0.0,0.0,0.0,0.0,0.0,0.0,0.0,0.0,0.0,0.0,0.0,0.0,0.0,0.0,0.0,0.0,0.0,0.0,0.0,0.0,0.0,0.0,0.0,0.0,0.0,0.0,0.0,0.0,0.0,0.0,0.0,0.0,0.0,0.0,0.0,0.0,0.0,0.0,0.0,0.0,0.0,0.0,0.0,0.0,0.0,0.0,0.0,0.0,0.0,0.0,0.0,0.0,0.0,0.0,0.0,0.0,0.0,0.0,0.0,0.0,0.0,0.0,0.0,0.0,0.0,0.0,0.0,0.0,0.0,0.0,0.0,0.0,0.0,0.0,0.0,0.0,0.0,0.0,0.0,0.0,0.0,0.0,0.0,0.0,0.0,0.0,0.0,0.0,0.0,0.0,0.0,0.0,0.0,0.0,0.0,0.0,0.0,0.0,0.0,0.0,0.0,0.0,0.0,0.0,0.0,0.0,0.0,0.0,0.0,0.0,0.0,0.0,0.0,0.0,0.0,0.0,0.0,0.0,0.0,0.0,0.0,0.0,0.0,0.0,0.0,0.0,0.0,0.0,0.0,0.0,0.0,0.0,0.0,0.0,0.0,0.0,0.0,0.0,0.0,0.0,0.0,0.0,0.0,0.0,0.0,0.0,0.0,0.0,0.0,0.0,0.0,0.0,0.0,0.0,0.0,0.0,0.0,0.0,0.0,0.0,0.0,0.0,0.0,0.0,0.0,0.0,0.0,0.0,0.0,0.0,0.0,0.0,0.0,0.0,0.0,0.0,0.0,0.0,0.0,0.0,0.0,0.0,0.0,0.0,0.0,0.0,0.0,0.0,0.0,0.0,0.0,0.0,0.0,0.0,0.0,0.0,0.0,0.0,0.0,0.0,0.0,0.0,0.0,0.0,0.0,0.0,0.0,0.0,0.0,0.0,0.0,0.0,0.0,0.0,0.0,0.0,0.0,0.0,0.0,0.0,0.0,0.0,0.0,0.0,0.0,0.0,0.0,0.0,0.0,0.0,0.0,0.0,0.0,0.0,0.0,0.0,0.0,0.0,0.0,0.0,0.0,0.0,0.0,0.0,0.0,0.0,0.0,0.0,0.0,0.0,0.0,0.0,0.0,0.0,0.0,0.0,0.0,0.0,0.0,0.0,0.0,0.0,0.0,0.0,0.0,0.0,0.0,0.0,0.0,0.0,0.0,0.0,0.0,0.0,0.0,0.0,0.0,0.0,0.0,0.0,0.0,0.0,0.0,0.0,0.0,0.0,0.0,0.0,0.0,0.0,0.0,0.0,0.0,0.0,0.0,0.0,0.0,0.0,0.0,0.0,0.0,0.0,0.0,0.0,0.0,0.0,0.0,0.0,0.0,0.0,0.0,0.0,0.0,0.0,0.0,0.0,0.0,0.0,0.0,0.0,0.0,0.0,0.0,0.0,0.0,0.0,0.0,0.0,0.0,0.0,0.0,0.0,0.0,0.0,0.0,0.0,0.0,0.0,0.0,0.0,0.0,0.0,0.0,0.0,0.0,0.0,0.0,0.0,0.0,0.0,0.0,0.0,0.0,0.0,0.0,0.0,0.0,0.0,0.0,0.0,0.0,0.0,0.0,0.0,0.0,0.0,0.0,0.0,0.0,0.0,0.0,0.0,0.0,0.0,0.0,0.0,0.0,0.0,0.0,0.0,0.0,0.0,0.0,0.0,0.0,0.0,0.0,0.0,0.0,0.0,0.0,0.0,0.0,0.0,0.0,0.0,0.0,0.0,0.0,0.0,0.0,0.0,0.0,0.0,0.0,0.0,0.0,0.0,0.0,0.0,0.0,0.0,0.0,0.0,0.0,0.0,0.0,0.0,0.0,0.0,0.0,0.0,0.0,0.0,0.0,0.0,0.0,0.0,0.0,0.0,0.0,0.0,0.0,0.0,0.0,0.0,0.0,0.0,0.0,0.0,0.0,0.0,0.0,0.0,0.0,0.0,0.0,0.0,0.0,0.0,0.0,0.0,0.0,0.0,0.0,0.0,0.0,0.0,0.0,0.0,0.0,0.0,0.0,0.0,0.0,0.0,0.0,0.0,0.0,0.0,0.0,0.0,0.0,0.0,0.0,0.0,0.0,0.0,0.0,0.0,0.0,0.0,0.0,0.0,0.0,0.0,0.0,0.0,0.0,0.0,0.0,0.0,0.0,0.0,0.0,0.0,0.0,0.0,0.0,0.0,0.0,0.0,0.0,0.0,0.0,0.0,0.0,0.0,0.0,0.0,0.0,0.0,0.0,0.0,0.0,0.0,0.0,0.0,0.0,0.0,0.0,0.0,0.0,0.0,0.0,0.0,0.0,0.0,0.0,0.0,0.0,0.0,0.0,0.0,0.0,0.0,0.0,0.0,0.0,0.0,0.0,0.0,0.0,0.0,0.0,0.0,0.0,0.0,0.0,0.0,0.0,0.0,0.0,0.0,0.0,0.0,0.0,0.0,0.0,0.0,0.0,0.0,0.0,0.0,0.0,0.0,0.0,0.0,0.0,0.0,0.0,0.0,0.0,0.0,0.0,0.0,0.0,0.0,0.0,0.0,0.0,0.0,0.0,0.0,0.0,0.0,0.0,0.0,0.0,0.0,0.0,0.0,0.0,0.0,0.0,0.0,0.0,0.0,0.0,0.0,0.0,0.0,0.0,0.0,0.0,0.0,0.0,0.0,0.0,0.0,0.0,0.0,0.0,0.0,0.0,0.0,0.0,0.0,0.0,0.0,0.0,0.0,0.0,0.0,0.0,0.0,0.0,0.0,0.0,0.0,0.0,0.0,0.0,0.0,0.0,0.0,0.0,0.0,0.0,0.0,0.0,0.0,0.0,0.0,0.0,0.0,0.0,0.0,0.0,0.0,0.0,0.0,0.0,0.0,0.0,0.0,0.0,0.0,0.0,0.0,0.0,0.0,0.0,0.0,0.0,0.0,0.0,0.0,0.0,0.0,0.0,0.0,0.0,0.0,0.0,0.0,0.0,0.0,0.0,0.0,0.0,0.0,0.0,0.0,0.0,0.0,0.0,0.0,0.0,0.0,-10.3073,0.0,0.0,0.0,-9.6329,0.0,0.0,0.0,0.0,0.0,0.0,0.0,0.0,0.0,0.0,0.0,0.0,0.0,0.0,0.0,0.0,0.0,0.0,0.0,0.0,0.0,0.0,0.0,0.0,0.0,0.0,0.0,0.0,0.0,0.0,0.0,0.0,0.0,0.0,0.0,0.0,0.0,0.0,0.0,0.0,0.0,0.0,0.0,0.0,0.0,0.0,0.0,0.0,0.0,0.0,0.0,0.0,0.0,0.0,0.0,0.0,0.0,0.0,0.0,0.0,0.0,0.0,0.0,0.0,0.0,0.0,0.0,0.0,0.0,0.0,0.0,0.0,0.0,0.0,0.0,0.0,0.0,0.0,0.0,0.0,0.0,0.0,0.0,0.0,0.0,0.0,0.0,0.0,0.0,0.0,0.0,0.0,0.0,0.0,0.0,0.0,0.0,0.0,0.0,0.0,0.0,0.0,0.0,0.0,0.0,0.0,0.0,0.0,0.0,0.0,-10.2543,-10.2816,-9.9212,-9.696,-9.6329,0.0,0.0,0.0,0.0,0.0,0.0,0.0,0.0,0.0,0.0,0.0,0.0,0.0,0.0,0.0,0.0,0.0,0.0,0.0,0.0,0.0,0.0,0.0,0.0,0.0,0.0,0.0,0.0,0.0,0.0,0.0,0.0,0.0,0.0,0.0,0.0,0.0,0.0,0.0,0.0,0.0,0.0,0.0,0.0,0.0,0.0,0.0,0.0,0.0,0.0,0.0,0.0,0.0,0.0,0.0,0.0,0.0,0.0,0.0,0.0,0.0,0.0,0.0,0.0,0.0,0.0,0.0,0.0,0.0,0.0,0.0,0.0,0.0,0.0,0.0,0.0,0.0,0.0,0.0,0.0,0.0,0.0,0.0,0.0,0.0,0.0,0.0,0.0,0.0,0.0,0.0,0.0,0.0,0.0,0.0,0.0,0.0,0.0,0.0,0.0,0.0,0.0,0.0,0.0,0.0,0.0,0.0,0.0,0.0,0.0,0.0,0.0,-9.9615,-9.7262,-9.6105,0.0,0.0,0.0,0.0,0.0,0.0,0.0,0.0,0.0,0.0,0.0,0.0,0.0,0.0,0.0,0.0,0.0,0.0,0.0,0.0,0.0,0.0,0.0,0.0,0.0,0.0,0.0,0.0,0.0,0.0,0.0,0.0,0.0,0.0,0.0,0.0,0.0,0.0,0.0,0.0,0.0,0.0,0.0,0.0,0.0,0.0,0.0,0.0,0.0,0.0,0.0,0.0,0.0,0.0,0.0,0.0,0.0,0.0,0.0,0.0,0.0,0.0,0.0,0.0,0.0,0.0,0.0,0.0,0.0,0.0,0.0,0.0,0.0,0.0,0.0,0.0,0.0,0.0,0.0,0.0,0.0,0.0,0.0,0.0,0.0,0.0,0.0,0.0,0.0,0.0,0.0,0.0,0.0,0.0,0.0,0.0,0.0,0.0,0.0,0.0,0.0,0.0,0.0,0.0,0.0,0.0,0.0,0.0,0.0,0.0,-10.4542,-10.3907,-10.3222,0.0,-9.7264,0.0,0.0,0.0,0.0,0.0,0.0,0.0,0.0,0.0,0.0,0.0,0.0,0.0,0.0,0.0,0.0,0.0,0.0,0.0,0.0,0.0,0.0,0.0,0.0,0.0,0.0,0.0,0.0,0.0,0.0,0.0,0.0,0.0,0.0,0.0,0.0,0.0,0.0,0.0,0.0,0.0,0.0,0.0,0.0,0.0,0.0,0.0,0.0,0.0,0.0,0.0,0.0,0.0,0.0,0.0,0.0,0.0,0.0,0.0,0.0,0.0,0.0,0.0,0.0,0.0,0.0,0.0,0.0,0.0,0.0,0.0,0.0,0.0,0.0,0.0,0.0,0.0,0.0,0.0,0.0,0.0,0.0,0.0,0.0,0.0,0.0,0.0,0.0,0.0,0.0,0.0,0.0,0.0,0.0,0.0,0.0,0.0,0.0,0.0,0.0,0.0,0.0,0.0,0.0,0.0,0.0,0.0,0.0,0.0,0.0,-10.3752,-10.3781,-10.115,-9.8911,0.0,0.0,0.0,0.0,0.0,0.0,0.0,0.0,0.0,0.0,0.0,0.0,0.0,0.0,0.0,0.0,0.0,0.0,0.0,0.0,0.0,0.0,0.0,0.0,0.0,0.0,0.0,0.0,0.0,0.0,0.0,0.0,0.0,0.0,0.0,0.0,0.0,0.0,0.0,0.0,0.0,0.0,0.0,0.0,0.0,0.0,0.0,0.0,0.0,0.0,0.0,0.0,0.0,0.0,0.0,0.0,0.0,0.0,0.0,0.0,0.0,0.0,0.0,0.0,0.0,0.0,0.0,0.0,0.0,0.0,0.0,0.0,0.0,0.0,0.0,0.0,0.0,0.0,0.0,0.0,0.0,0.0,0.0,0.0,0.0,0.0,0.0,0.0,0.0,0.0,0.0,0.0,0.0,0.0,0.0,0.0,0.0,0.0,0.0,0.0,0.0,0.0,0.0,0.0,0.0,0.0,0.0,0.0,0.0,0.0,-10.2965,-10.3162,-10.3369,-9.9605,-9.7264,-9.6778,0.0,0.0,0.0,0.0,0.0,0.0,0.0,0.0,0.0,0.0,0.0,0.0,0.0,0.0,0.0,0.0,0.0,0.0,0.0,0.0,0.0,0.0,0.0,0.0,0.0,0.0,0.0,0.0,0.0,0.0,0.0,0.0,0.0,0.0,0.0,0.0,0.0,0.0,0.0,0.0,0.0,0.0,0.0,0.0,0.0,0.0,0.0,0.0,0.0,0.0,0.0,0.0,0.0,0.0,0.0,0.0,0.0,0.0,0.0,0.0,0.0,0.0,0.0,0.0,0.0,0.0,0.0,0.0,0.0,0.0,0.0,0.0,0.0,0.0,0.0,0.0,0.0,0.0,0.0,0.0,0.0,0.0,0.0,0.0,0.0,0.0,0.0,0.0,0.0,0.0,0.0,0.0,0.0,0.0,0.0,0.0,0.0,0.0,0.0,0.0,0.0,0.0,0.0,0.0,0.0,0.0,0.0,0.0,-10.3702,-10.3601,-10.3577,-10.352,-10.0131,-9.753,0.0,0.0,0.0,0.0,0.0,0.0,0.0,0.0,0.0,0.0,0.0,0.0,0.0,0.0,0.0,0.0,0.0,0.0,0.0,0.0,0.0,0.0,0.0,0.0,0.0,0.0,0.0,0.0,0.0,0.0,0.0,0.0,0.0,0.0,0.0,0.0,0.0,0.0,0.0,0.0,0.0,0.0,0.0,0.0,0.0,0.0,0.0,0.0,0.0,0.0,0.0,0.0,0.0,0.0,0.0,0.0,0.0,0.0,0.0,0.0,0.0,0.0,0.0,0.0,0.0,0.0,0.0,0.0,0.0,0.0,0.0,0.0,0.0,0.0,0.0,0.0,0.0,0.0,0.0,0.0,0.0,0.0,0.0,0.0,0.0,0.0,0.0,0.0,0.0,0.0,0.0,0.0,0.0,0.0,0.0,0.0,0.0,0.0,0.0,0.0,0.0,0.0,0.0,0.0,0.0,0.0,0.0,0.0,0.0,-10.1259,-10.2239,-10.2838,-10.2924,-9.9455,-9.7363,0.0,0.0,0.0,0.0,0.0,0.0,0.0,0.0,0.0,0.0,0.0,0.0,0.0,0.0,0.0,0.0,0.0,0.0,0.0,0.0,0.0,0.0,0.0,0.0,0.0,0.0,0.0,0.0,0.0,0.0,0.0,0.0,0.0,0.0,0.0,0.0,0.0,0.0,0.0,0.0,0.0,0.0,0.0,0.0,0.0,0.0,0.0,0.0,0.0,0.0,0.0,0.0,0.0,0.0,0.0,0.0,0.0,0.0,0.0,0.0,0.0,0.0,0.0,0.0,0.0,0.0,0.0,0.0,0.0,0.0,0.0,0.0,0.0,0.0,0.0,0.0,0.0,0.0,0.0,0.0,0.0,0.0,0.0,0.0,0.0,0.0,0.0,0.0,0.0,0.0,0.0,0.0,0.0,0.0,0.0,0.0,0.0,0.0,0.0,0.0,0.0,0.0,0.0,0.0,0.0,0.0,0.0,0.0,0.0,-10.063,0.0,-10.2379,-10.2197,-9.9011,-9.6951,0.0,0.0,0.0,0.0,0.0,0.0,0.0,0.0,0.0,0.0,0.0,0.0,0.0,0.0,0.0,0.0,0.0,0.0,0.0,0.0,0.0,0.0,0.0,0.0,0.0,0.0,0.0,0.0,0.0,0.0,0.0,0.0,0.0,0.0,0.0,0.0,0.0,0.0,0.0,0.0,0.0,0.0,0.0,0.0,0.0,0.0,0.0,0.0,0.0,0.0,0.0,0.0,0.0,0.0,0.0,0.0,0.0,0.0,0.0,0.0,0.0,0.0,0.0,0.0,0.0,0.0,0.0,0.0,0.0,0.0,0.0,0.0,0.0,0.0,0.0,0.0,0.0,0.0,0.0,0.0,0.0,0.0,0.0,0.0,0.0,0.0,0.0,0.0,0.0,0.0,0.0,0.0,0.0,0.0,0.0,0.0,0.0,0.0,0.0,0.0,0.0,0.0,0.0,0.0,0.0,0.0,0.0,0.0,-10.063,-10.2222,-10.2508,-10.231,-10.1564,-9.8978,-9.6351,0.0,0.0,0.0,0.0,0.0,0.0,0.0,0.0,0.0,0.0,0.0,0.0,0.0,0.0,0.0,0.0,0.0,0.0,0.0,0.0,0.0,0.0,0.0,0.0,0.0,0.0,0.0,0.0,0.0,0.0,0.0,0.0,0.0,0.0,0.0,0.0,0.0,0.0,0.0,0.0,0.0,0.0,0.0,0.0,0.0,0.0,0.0,0.0,0.0,0.0,0.0,0.0,0.0,0.0,0.0,0.0,0.0,0.0,0.0,0.0,0.0,0.0,0.0,0.0,0.0,0.0,0.0,0.0,0.0,0.0,0.0,0.0,0.0,0.0,0.0,0.0,0.0,0.0,0.0,0.0,0.0,0.0,0.0,0.0,0.0,0.0,0.0,0.0,0.0,0.0,0.0,0.0,0.0,0.0,0.0,0.0,0.0,0.0,0.0,0.0,0.0,0.0,0.0,0.0,0.0,0.0,0.0,0.0,0.0,-10.226,-10.146,-10.2385,-10.4803,-9.9632,-9.7172,0.0,0.0,0.0,0.0,0.0,0.0,0.0,0.0,0.0,0.0,0.0,0.0,0.0,0.0,0.0,0.0,0.0,0.0,0.0,0.0,0.0,0.0,0.0,0.0,0.0,0.0,0.0,0.0,0.0,0.0,0.0,0.0,0.0,0.0,0.0,0.0,0.0,0.0,0.0,0.0,0.0,0.0,0.0,0.0,0.0,0.0,0.0,0.0,0.0,0.0,0.0,0.0,0.0,0.0,0.0,0.0,0.0,0.0,0.0,0.0,0.0,0.0,0.0,0.0,0.0,0.0,0.0,0.0,0.0,0.0,0.0,0.0,0.0,0.0,0.0,0.0,0.0,0.0,0.0,0.0,0.0,0.0,0.0,0.0,0.0,0.0,0.0,0.0,0.0,0.0,0.0,0.0,0.0,0.0,0.0,0.0,0.0,0.0,0.0,0.0,0.0,0.0,0.0,0.0,0.0,0.0,0.0,0.0,0.0,-10.4138,-10.2963,-10.3305,-10.5544,-10.05,-9.7985,-9.8374,0.0,0.0,0.0,0.0,0.0,0.0,0.0,0.0,0.0,0.0,0.0,0.0,0.0,0.0,0.0,0.0,0.0,0.0,0.0,0.0,0.0,0.0,0.0,0.0,0.0,0.0,0.0,0.0,0.0,0.0,0.0,0.0,0.0,0.0,0.0,0.0,0.0,0.0,0.0,0.0,0.0,0.0,0.0,0.0,0.0,0.0,0.0,0.0,0.0,0.0,0.0,0.0,0.0,0.0,0.0,0.0,0.0,0.0,0.0,0.0,0.0,0.0,0.0,0.0,0.0,0.0,0.0,0.0,0.0,0.0,0.0,0.0,0.0,0.0,0.0,0.0,0.0,0.0,0.0,0.0,0.0,0.0,0.0,0.0,0.0,0.0,0.0,0.0,0.0,0.0,0.0,0.0,0.0,0.0,0.0,0.0,0.0,0.0,0.0,0.0,0.0,0.0,0.0,0.0,0.0,0.0,0.0,0.0,-10.7566,-10.6602,-10.5543,-10.4278,-10.1741,-9.8961,0.0,0.0,0.0,0.0,0.0,0.0,0.0,0.0,0.0,0.0,0.0,0.0,0.0,0.0,0.0,0.0,0.0,0.0,0.0,0.0,0.0,0.0,0.0,0.0,0.0,0.0,0.0,0.0,0.0,0.0,0.0,0.0,0.0,0.0,0.0,0.0,0.0,0.0,0.0,0.0,0.0,0.0,0.0,0.0,0.0,0.0,0.0,0.0,0.0,0.0,0.0,0.0,0.0,0.0,0.0,0.0,0.0,0.0,0.0,0.0,0.0,0.0,0.0,0.0,0.0,0.0,0.0,0.0,0.0,0.0,0.0,0.0,0.0,0.0,0.0,0.0,0.0,0.0,0.0,0.0,0.0,0.0,0.0,0.0,0.0,0.0,0.0,0.0,0.0,0.0,0.0,0.0,0.0,0.0,0.0,0.0,0.0,0.0,0.0,0.0,0.0,0.0,0.0,0.0,0.0,0.0,0.0,0.0,0.0,-10.7769,-11.0603,-11.1657,-11.0646,-10.4541,-10.1053,0.0,0.0,0.0,0.0,0.0,0.0,0.0,0.0,0.0,0.0,0.0,0.0,0.0,0.0,0.0,0.0,0.0,0.0,0.0,0.0,0.0,0.0,0.0,0.0,0.0,0.0,0.0,0.0,0.0,0.0,0.0,0.0,0.0,0.0,0.0,0.0,0.0,0.0,0.0,0.0,0.0,0.0,0.0,0.0,0.0,0.0,0.0,0.0,0.0,0.0,0.0,0.0,0.0,0.0,0.0,0.0,0.0,0.0,0.0,0.0,0.0,0.0,0.0,0.0,0.0,0.0,0.0,0.0,0.0,0.0,0.0,0.0,0.0,0.0,0.0,0.0,0.0,0.0,0.0,0.0,0.0,0.0,0.0,0.0,0.0,0.0,0.0,0.0,0.0,0.0,0.0,0.0,0.0,0.0,0.0,0.0,0.0,0.0,0.0,0.0,0.0,0.0,0.0,0.0,0.0,0.0,0.0,0.0,-10.7221,-10.9976,-11.4227,-11.5993,-11.4957,-10.9234,-10.4834,0.0,0.0,0.0,0.0,0.0,0.0,0.0,0.0,0.0,0.0,0.0,0.0,0.0,0.0,0.0,0.0,0.0,0.0,0.0,0.0,0.0,0.0,0.0,0.0,0.0,0.0,0.0,0.0,0.0,0.0,0.0,0.0,0.0,0.0,0.0,0.0,0.0,0.0,0.0,0.0,0.0,0.0,0.0,0.0,0.0,0.0,0.0,0.0,0.0,0.0,0.0,0.0,0.0,0.0,0.0,0.0,0.0,0.0,0.0,0.0,0.0,0.0,0.0,0.0,0.0,0.0,0.0,0.0,0.0,0.0,0.0,0.0,0.0,0.0,0.0,0.0,0.0,0.0,0.0,0.0,0.0,0.0,0.0,0.0,0.0,0.0,0.0,0.0,0.0,0.0,0.0,0.0,0.0,0.0,0.0,0.0,0.0,0.0,0.0,0.0,0.0,0.0,0.0,0.0,0.0,0.0,0.0,0.0,-11.0223,-11.3034,-11.7302,-11.8876,-11.7388,-11.3937,-10.8799,0.0,0.0,0.0,0.0,0.0,0.0,0.0,0.0,0.0,0.0,0.0,0.0,0.0,0.0,0.0,0.0,0.0,0.0,0.0,0.0,0.0,0.0,0.0,0.0,0.0,0.0,0.0,0.0,0.0,0.0,0.0,0.0,0.0,0.0,0.0,0.0,0.0,0.0,0.0,0.0,0.0,0.0,0.0,0.0,0.0,0.0,0.0,0.0,0.0,0.0,0.0,0.0,0.0,0.0,0.0,0.0,0.0,0.0,0.0,0.0,0.0,0.0,0.0,0.0,0.0,0.0,0.0,0.0,0.0,0.0,0.0,0.0,0.0,0.0,0.0,0.0,0.0,0.0,0.0,0.0,0.0,0.0,0.0,0.0,0.0,0.0,0.0,0.0,0.0,0.0,0.0,0.0,0.0,0.0,0.0,0.0,0.0,0.0,0.0,0.0,0.0,0.0,0.0,0.0,0.0,0.0,0.0,0.0,-11.0909,-11.4712,-11.8574,-12.01,-11.9076,-11.291,-10.7624,0.0,0.0,0.0,0.0,0.0,0.0,0.0,0.0,0.0,0.0,0.0,0.0,0.0,0.0,0.0,0.0,0.0,0.0,0.0,0.0,0.0,0.0,0.0,0.0,0.0,0.0,0.0,0.0,0.0,0.0,0.0,0.0,0.0,0.0,0.0,0.0,0.0,0.0,0.0,0.0,0.0,0.0,0.0,0.0,0.0,0.0,0.0,0.0,-9.1997,0.0,0.0,0.0,0.0,0.0,0.0,0.0,0.0,0.0,0.0,0.0,0.0,0.0,0.0,0.0,0.0,0.0,0.0,0.0,0.0,0.0,0.0,0.0,0.0,0.0,0.0,0.0,0.0,0.0,0.0,0.0,0.0,0.0,0.0,0.0,0.0,0.0,0.0,0.0,0.0,0.0,0.0,0.0,0.0,0.0,0.0,0.0,0.0,0.0,0.0,0.0,0.0,0.0,0.0,0.0,0.0,0.0,0.0,0.0,-11.3034,-11.643,-11.9363,-12.0471,-11.9407,-11.3313,-10.8395,0.0,0.0,0.0,0.0,0.0,0.0,0.0,0.0,0.0,0.0,0.0,0.0,0.0,0.0,0.0,0.0,0.0,0.0,0.0,0.0,0.0,0.0,0.0,0.0,0.0,0.0,0.0,0.0,0.0,0.0,0.0,0.0,0.0,0.0,0.0,0.0,0.0,0.0,0.0,0.0,0.0,0.0,0.0,0.0,0.0,0.0,0.0,0.0,0.0,0.0,0.0,0.0,0.0,0.0,0.0,0.0,0.0,0.0,0.0,0.0,0.0,0.0,0.0,0.0,0.0,0.0,0.0,0.0,0.0,0.0,0.0,0.0,0.0,0.0,0.0,0.0,0.0,0.0,0.0,0.0,0.0,0.0,0.0,0.0,0.0,0.0,0.0,0.0,0.0,0.0,0.0,0.0,0.0,0.0,0.0,0.0,0.0,0.0,0.0,0.0,0.0,0.0,0.0,0.0,0.0,0.0,0.0,-11.0255,-11.5124,-11.8445,-11.9917,-12.0324,-11.9554,-11.4268,-10.979,-10.6413,0.0,0.0,0.0,0.0,0.0,0.0,0.0,0.0,0.0,0.0,0.0,0.0,0.0,0.0,0.0,0.0,0.0,0.0,0.0,0.0,0.0,0.0,0.0,0.0,0.0,0.0,0.0,0.0,0.0,0.0,0.0,0.0,0.0,0.0,0.0,0.0,0.0,0.0,-8.7436,-8.7798,0.0,0.0,0.0,0.0,0.0,0.0,0.0,0.0,-9.2457,0.0,0.0,0.0,0.0,0.0,0.0,0.0,0.0,0.0,0.0,0.0,0.0,0.0,0.0,0.0,0.0,0.0,0.0,0.0,0.0,0.0,0.0,0.0,0.0,0.0,0.0,0.0,0.0,0.0,0.0,0.0,0.0,0.0,0.0,0.0,0.0,0.0,0.0,0.0,0.0,0.0,0.0,0.0,0.0,0.0,0.0,0.0,0.0,0.0,0.0,0.0,0.0,0.0,0.0,0.0,0.0,-11.1584,-11.1228,-11.449,-12.1735,-12.0516,-11.9737,-11.9443,-11.4782,-11.0377,-10.6449,0.0,0.0,0.0,0.0,0.0,0.0,0.0,0.0,0.0,0.0,0.0,0.0,0.0,0.0,0.0,0.0,0.0,0.0,0.0,0.0,0.0,0.0,0.0,0.0,0.0,0.0,0.0,0.0,0.0,0.0,0.0,0.0,0.0,0.0,0.0,0.0,0.0,0.0,0.0,-9.1503,-9.2519,0.0,0.0,0.0,0.0,0.0,0.0,0.0,0.0,-9.0661,0.0,0.0,0.0,0.0,0.0,0.0,0.0,0.0,0.0,0.0,0.0,0.0,0.0,0.0,0.0,0.0,0.0,0.0,0.0,0.0,0.0,0.0,0.0,0.0,0.0,0.0,0.0,0.0,0.0,0.0,0.0,0.0,0.0,0.0,0.0,0.0,0.0,0.0,0.0,0.0,0.0,0.0,0.0,0.0,0.0,0.0,0.0,0.0,0.0,0.0,0.0,0.0,0.0,0.0,0.0,-11.0008,-11.2429,-11.5947,-12.0615,-11.963,-11.8783,-11.8269,-11.2873,-10.8799,0.0,0.0,0.0,0.0,0.0,0.0,0.0,0.0,0.0,0.0,0.0,0.0,0.0,0.0,0.0,0.0,0.0,0.0,0.0,0.0,0.0,0.0,0.0,0.0,0.0,0.0,0.0,0.0,0.0,0.0,0.0,0.0,0.0,0.0,0.0,0.0,0.0,0.0,0.0,0.0,-9.1635,-9.197,-9.1705,0.0,0.0,0.0,0.0,0.0,0.0,-9.1799,-9.1746,0.0,0.0,0.0,0.0,0.0,0.0,0.0,0.0,0.0,0.0,0.0,0.0,0.0,0.0,0.0,0.0,0.0,0.0,0.0,0.0,0.0,0.0,0.0,0.0,0.0,0.0,0.0,0.0,0.0,0.0,0.0,0.0,0.0,0.0,0.0,0.0,0.0,0.0,0.0,0.0,0.0,0.0,0.0,0.0,0.0,0.0,0.0,0.0,0.0,0.0,0.0,0.0,0.0,0.0,0.0,-10.7583,-11.3029,-11.6994,-11.9196,-11.8559,-11.7792,-11.6874,-11.1038,-10.722,0.0,0.0,0.0,0.0,0.0,0.0,0.0,0.0,0.0,0.0,0.0,0.0,0.0,0.0,0.0,0.0,0.0,0.0,0.0,0.0,0.0,0.0,0.0,0.0,0.0,0.0,0.0,0.0,0.0,0.0,0.0,0.0,0.0,0.0,0.0,0.0,0.0,0.0,0.0,0.0,0.0,-9.1934,-9.1386,-9.1403,0.0,0.0,0.0,0.0,-9.1589,-9.3173,0.0,0.0,0.0,0.0,0.0,0.0,0.0,0.0,0.0,0.0,0.0,0.0,0.0,0.0,0.0,0.0,0.0,0.0,0.0,0.0,0.0,0.0,0.0,0.0,0.0,0.0,0.0,0.0,0.0,0.0,0.0,0.0,0.0,0.0,0.0,0.0,0.0,0.0,0.0,0.0,0.0,0.0,0.0,0.0,0.0,0.0,0.0,0.0,0.0,0.0,0.0,0.0,0.0,0.0,0.0,0.0,-10.8333,-11.1676,-11.5575,-11.9909,-11.8345,-11.6947,-11.6103,-11.1258,-10.7257,0.0,0.0,0.0,0.0,0.0,0.0,0.0,0.0,0.0,0.0,0.0,0.0,0.0,0.0,0.0,0.0,0.0,0.0,0.0,0.0,0.0,0.0,0.0,0.0,0.0,0.0,0.0,0.0,0.0,0.0,0.0,0.0,0.0,0.0,0.0,0.0,0.0,0.0,0.0,0.0,0.0,-9.657,-9.3833,-9.421,-9.4178,0.0,0.0,-9.1602,-9.2338,-9.4737,0.0,0.0,0.0,0.0,0.0,0.0,0.0,0.0,0.0,0.0,0.0,0.0,0.0,0.0,0.0,0.0,0.0,0.0,0.0,0.0,0.0,0.0,0.0,0.0,0.0,0.0,0.0,0.0,0.0,0.0,0.0,0.0,0.0,0.0,0.0,0.0,0.0,0.0,0.0,0.0,0.0,0.0,0.0,0.0,0.0,0.0,0.0,0.0,0.0,0.0,0.0,0.0,0.0,0.0,0.0,-10.3519,-10.7802,-11.1744,-11.543,-11.8751,-11.6941,-11.5442,-11.4635,-10.9019,-10.5128,0.0,0.0,0.0,0.0,0.0,0.0,0.0,0.0,0.0,0.0,0.0,0.0,0.0,0.0,0.0,0.0,0.0,0.0,0.0,0.0,0.0,0.0,0.0,0.0,0.0,0.0,0.0,0.0,0.0,0.0,0.0,0.0,0.0,0.0,0.0,0.0,0.0,0.0,0.0,0.0,0.0,0.0,-9.3844,-9.5244,0.0,0.0,0.0,-9.379,-9.5424,0.0,0.0,0.0,0.0,0.0,0.0,0.0,0.0,0.0,0.0,0.0,0.0,0.0,0.0,0.0,0.0,0.0,0.0,0.0,0.0,0.0,0.0,0.0,0.0,0.0,0.0,0.0,0.0,0.0,0.0,0.0,0.0,0.0,0.0,0.0,0.0,0.0,0.0,0.0,0.0,0.0,0.0,0.0,0.0,0.0,0.0,0.0,0.0,0.0,0.0,0.0,0.0,0.0,0.0,0.0,0.0,0.0,-10.6791,-11.1559,-11.5019,-11.691,-11.5376,-11.4011,-11.2946,-10.7294,0.0,0.0,0.0,0.0,0.0,0.0,0.0,0.0,0.0,0.0,0.0,0.0,0.0,0.0,0.0,0.0,0.0,0.0,0.0,0.0,0.0,0.0,0.0,0.0,0.0,0.0,0.0,-8.2553,0.0,0.0,0.0,0.0,0.0,0.0,0.0,0.0,0.0,0.0,0.0,0.0,0.0,0.0,-9.7381,-9.3751,-9.6065,-9.7308,0.0,0.0,-9.5973,-9.7258,-9.7191,-9.6108,0.0,0.0,0.0,0.0,0.0,0.0,0.0,0.0,0.0,0.0,0.0,0.0,0.0,0.0,0.0,0.0,0.0,0.0,0.0,0.0,0.0,0.0,0.0,0.0,0.0,0.0,0.0,0.0,-9.8962,0.0,0.0,0.0,0.0,0.0,0.0,0.0,0.0,0.0,0.0,0.0,0.0,0.0,0.0,0.0,0.0,0.0,0.0,0.0,0.0,0.0,0.0,0.0,0.0,0.0,-10.2563,-10.5397,-11.0453,-11.3626,-11.466,-11.4044,-11.2946,-11.1368,-10.7257,-10.3586,0.0,0.0,0.0,0.0,0.0,0.0,0.0,0.0,0.0,0.0,0.0,0.0,0.0,0.0,0.0,0.0,0.0,0.0,0.0,0.0,0.0,0.0,0.0,0.0,0.0,0.0,0.0,0.0,0.0,0.0,0.0,0.0,0.0,0.0,0.0,0.0,0.0,0.0,0.0,0.0,0.0,-9.7766,-9.4369,-9.7231,-9.8973,0.0,-9.7292,-9.736,-9.6142,-9.9897,-10.0608,-9.3639,0.0,0.0,0.0,0.0,0.0,0.0,0.0,0.0,0.0,0.0,0.0,0.0,0.0,0.0,0.0,0.0,0.0,0.0,0.0,0.0,0.0,0.0,0.0,0.0,0.0,-9.7596,-9.8288,0.0,-9.6653,0.0,0.0,0.0,0.0,0.0,0.0,0.0,0.0,0.0,0.0,0.0,0.0,0.0,0.0,0.0,0.0,0.0,0.0,0.0,0.0,0.0,0.0,0.0,0.0,-10.2044,-10.5182,-10.94,-11.2511,-11.4317,-11.2933,-11.1588,-11.0487,-10.6046,-10.2118,0.0,0.0,0.0,0.0,0.0,0.0,0.0,0.0,0.0,0.0,0.0,0.0,0.0,0.0,0.0,0.0,0.0,0.0,0.0,0.0,0.0,0.0,0.0,0.0,0.0,0.0,0.0,0.0,-8.3581,-8.3594,-8.289,0.0,0.0,0.0,0.0,0.0,0.0,0.0,0.0,0.0,0.0,-9.9325,-9.6362,-9.915,0.0,0.0,-9.8206,-9.8476,-9.7901,-9.8341,-9.7495,-9.374,-9.1541,0.0,0.0,0.0,0.0,0.0,0.0,0.0,0.0,0.0,0.0,0.0,0.0,0.0,0.0,0.0,0.0,0.0,0.0,0.0,0.0,0.0,0.0,0.0,0.0,0.0,0.0,-9.6559,-9.5072,0.0,0.0,0.0,0.0,0.0,0.0,0.0,0.0,0.0,0.0,0.0,0.0,0.0,0.0,0.0,0.0,0.0,0.0,0.0,0.0,0.0,0.0,0.0,0.0,-10.1351,-10.4509,-10.8141,-11.1051,-11.3098,-11.1631,-11.023,-10.8872,-10.5091,-10.1457,0.0,0.0,0.0,0.0,0.0,0.0,0.0,0.0,0.0,0.0,0.0,0.0,0.0,0.0,0.0,0.0,0.0,0.0,0.0,0.0,0.0,0.0,0.0,0.0,0.0,0.0,0.0,0.0,-8.3371,-8.302,-8.2525,0.0,0.0,0.0,0.0,0.0,0.0,0.0,0.0,0.0,0.0,-9.9777,-9.7779,-9.993,-10.1056,-9.8981,-9.856,-9.8442,-9.8442,-9.7123,-9.5398,-9.3233,0.0,0.0,0.0,0.0,0.0,0.0,0.0,0.0,0.0,0.0,0.0,0.0,0.0,0.0,0.0,0.0,0.0,0.0,0.0,0.0,0.0,0.0,0.0,0.0,0.0,0.0,0.0,-9.475,0.0,0.0,-9.2679,0.0,0.0,0.0,0.0,0.0,0.0,0.0,0.0,0.0,0.0,0.0,0.0,0.0,0.0,0.0,0.0,0.0,0.0,0.0,0.0,0.0,0.0,-10.0306,-10.3037,-10.6584,-10.896,-11.0097,-11.001,-10.8872,-10.6559,-10.4761,-10.1971,-9.7933,0.0,0.0,0.0,0.0,0.0,0.0,0.0,0.0,0.0,0.0,0.0,0.0,0.0,0.0,0.0,0.0,0.0,0.0,0.0,0.0,0.0,0.0,0.0,0.0,0.0,0.0,-8.6701,-8.4485,-8.2632,0.0,0.0,0.0,0.0,0.0,0.0,0.0,0.0,0.0,-9.0172,-9.5091,-9.8575,-9.8114,-9.9053,-10.0021,-10.0215,-9.841,-9.692,-9.692,-9.6819,-9.5601,0.0,0.0,0.0,0.0,0.0,0.0,0.0,0.0,0.0,0.0,0.0,0.0,0.0,0.0,0.0,0.0,0.0,0.0,0.0,0.0,0.0,0.0,0.0,0.0,0.0,0.0,0.0,-9.8096,-9.6107,0.0,0.0,0.0,0.0,0.0,0.0,0.0,0.0,0.0,0.0,0.0,-9.9455,-9.9986,0.0,0.0,0.0,0.0,0.0,0.0,0.0,0.0,0.0,0.0,0.0,0.0,-9.906,-10.2463,-10.4836,-10.6777,-10.8328,-10.7881,-10.6963,-10.5568,-10.3439,-10.0429,-9.6392,0.0,0.0,0.0,0.0,0.0,0.0,0.0,0.0,0.0,0.0,0.0,0.0,0.0,0.0,0.0,0.0,0.0,0.0,0.0,0.0,0.0,0.0,0.0,0.0,0.0,-8.5306,0.0,0.0,0.0,0.0,0.0,0.0,0.0,0.0,0.0,0.0,-9.0258,-9.2066,-9.3592,-9.7512,-9.9871,-9.8923,-10.0062,-10.0516,0.0,0.0,0.0,0.0,0.0,0.0,0.0,0.0,0.0,0.0,0.0,0.0,0.0,0.0,-9.3774,-8.8598,-8.6839,-8.6602,-8.8057,0.0,0.0,0.0,0.0,0.0,0.0,0.0,0.0,0.0,0.0,0.0,0.0,0.0,0.0,-9.8578,-9.7337,-9.611,0.0,0.0,0.0,0.0,0.0,0.0,0.0,0.0,-10.1009,-10.2563,-10.2828,-10.3359,-10.2601,-10.082,-10.1047,-9.9341,0.0,0.0,0.0,0.0,0.0,0.0,0.0,0.0,-9.8043,-10.1352,-10.3198,-10.4913,-10.6638,-10.6192,-10.5422,-10.4284,-10.1641,-9.8888,-9.5988,-9.3308,-9.151,0.0,0.0,0.0,0.0,0.0,0.0,0.0,0.0,0.0,0.0,0.0,0.0,0.0,0.0,0.0,0.0,0.0,0.0,0.0,0.0,0.0,0.0,0.0,-8.5306,0.0,0.0,0.0,0.0,0.0,0.0,0.0,0.0,0.0,-9.1509,-9.2781,-9.4362,-9.6593,-9.8883,-10.0246,-9.9862,0.0,0.0,0.0,0.0,0.0,0.0,0.0,-9.3808,-9.33,-9.3233,-9.374,-9.5229,-9.7258,-9.8307,-9.7089,0.0,0.0,-9.1271,-8.9376,-8.9038,-9.0696,-9.0459,-9.0594,-9.2793,-9.3436,-9.374,0.0,0.0,0.0,0.0,-9.8739,0.0,0.0,0.0,-9.8703,-9.8886,0.0,-9.6729,0.0,0.0,0.0,0.0,-9.521,-9.9038,0.0,0.0,-10.5254,-10.6846,-10.6164,-10.6126,-10.5671,-10.4913,-10.5557,-10.3776,-9.9758,-9.6537,-9.4907,0.0,0.0,0.0,0.0,0.0,-9.7427,-9.9834,-10.1699,-10.3439,-10.4981,-10.5018,-10.4284,-10.2632,-9.9622,-9.7603,-9.6685,-9.5144,-9.3969,-9.3198,-9.2317,0.0,0.0,0.0,0.0,0.0,0.0,0.0,0.0,0.0,0.0,0.0,0.0,0.0,0.0,0.0,0.0,0.0,0.0,0.0,0.0,-8.6518,0.0,0.0,0.0,0.0,0.0,0.0,0.0,0.0,0.0,-9.239,-9.3767,-9.5343,-9.7086,-9.8752,0.0,0.0,0.0,0.0,-9.9808,-10.038,-9.8792,-9.7447,-9.7469,-9.7115,-9.6345,-9.4992,0.0,0.0,-9.7022,-9.7664,-9.8037,-9.7225,-9.7225,-9.7022,-9.6988,-9.4924,-9.3808,-9.4552,-9.4146,-9.4011,-9.4755,-9.5702,-9.6176,-10.3257,0.0,0.0,0.0,0.0,-10.2277,-10.3165,-10.407,-10.3905,-10.2785,-10.0852,-9.9109,0.0,0.0,0.0,0.0,0.0,0.0,-10.1161,-10.2942,-10.533,-10.696,-10.7907,-10.7907,-10.7111,-10.5747,-10.533,-10.3624,-10.0716,-9.8744,-9.6904,-9.5206,0.0,0.0,0.0,0.0,-9.806,-10.0117,-10.128,-10.2338,-10.3403,-10.3403,-10.2632,-10.1017,-9.9548,-9.8117,-9.6759,-9.5694,-9.507,-9.4813,-9.3492,0.0,0.0,0.0,0.0,0.0,0.0,0.0,0.0,0.0,0.0,0.0,0.0,0.0,0.0,0.0,0.0,0.0,0.0,0.0,-8.7362,-8.6664,-8.6334,0.0,0.0,0.0,0.0,0.0,0.0,0.0,0.0,0.0,-9.8033,-9.8014,-9.8167,0.0,0.0,-10.0215,-10.0914,-10.0219,-9.9954,-10.0641,-9.9373,0.0,-9.7572,-9.7149,-9.6751,-9.6311,-9.7935,-9.9424,-9.9999,-10.0709,-10.1149,-10.0878,-10.0438,-10.01,-9.9897,-9.7394,-9.577,-9.6717,-9.6886,-9.7157,-9.8375,-9.966,-10.0371,-10.7095,-10.3915,-10.2809,-10.3011,-10.4059,-10.4609,-10.5394,-10.6247,-10.6101,-10.5246,-10.3944,-10.2017,-10.0303,-9.8847,-9.8667,0.0,0.0,0.0,-10.3473,-10.5633,-10.6619,-10.7794,-10.9044,-10.9082,-10.821,-10.6581,-10.6391,-10.4751,-10.1711,-10.0706,-9.8973,-9.6692,0.0,-9.5994,-9.5982,-9.7063,-9.8315,-9.9769,-10.0613,-10.142,-10.2191,-10.2228,-10.1604,-10.0319,-9.9548,-9.8521,-9.7199,-9.6392,-9.5988,-9.5951,-9.474,-9.3529,0.0,0.0,0.0,0.0,0.0,0.0,0.0,0.0,0.0,0.0,0.0,-8.3618,-8.2994,0.0,0.0,0.0,-8.5343,-8.7031,-8.7655,-8.7729,0.0,0.0,0.0,0.0,0.0,0.0,0.0,-9.6098,-9.6722,-9.7787,-9.9989,-9.9773,-9.9625,-10.0221,-10.0383,-10.071,-10.152,0.0,-10.0755,-10.1832,-10.0862,-9.9732,-9.9153,-9.9007,-9.8954,-9.908,-10.0168,-10.1216,-10.1724,-10.2231,-10.2502,-10.2468,-10.213,-10.1825,-10.1825,-9.9931,-9.8442,-9.8815,-9.9153,-9.966,-10.054,-10.1656,-10.2367,-11.045,-10.8872,-10.7367,-10.6571,-10.6392,-10.7207,-10.7107,-10.6275,-10.6474,-10.6799,-10.7205,-10.509,-10.4637,-10.542,-10.4365,0.0,-10.5027,-10.5823,-10.6998,-10.8589,-10.8589,-10.9044,-10.9802,-10.9802,-10.8931,-10.7301,-10.8059,-10.642,-10.2687,-10.2057,-10.0771,-9.8833,-9.7206,-9.6763,-9.743,-9.7798,-9.8411,-9.9181,-9.9879,-10.0576,-10.1384,-10.131,-10.0943,-10.0209,-9.9438,-9.8631,-9.7823,-9.7089,-9.6722,-9.6685,-9.5951,-9.4777,-9.3161,0.0,0.0,0.0,0.0,0.0,0.0,0.0,0.0,0.0,0.0,0.0,0.0,0.0,0.0,-8.4792,-8.6921,0.0,-8.7545,-8.9491,0.0,0.0,0.0,-9.3639,-9.4483,-9.5217,-9.6318,-9.7897,0.0,0.0,-10.0283,-10.0651,-10.1131,-10.1818,-10.1265,-10.1276,-10.2506,-10.2017,-10.2135,-10.3538,-10.2874,-10.2051,-10.1698,-10.1691,-10.1724,-10.1746,-10.2333,-10.2198,-10.2299,-10.2333,-10.2401,-10.2502,-10.2502,-10.2502,-10.2502,-10.2299,-10.2096,-10.0608,-10.0946,-10.1419,-10.1386,-10.2028,-10.257,-11.2065,-11.0597,-11.023,-10.9593,-10.8874,-10.9692,-11.0528,-11.1208,-11.082,-10.9727,-10.8131,-10.6484,-10.5748,-10.5567,-10.5747,-10.6141,-10.6732,-10.6922,-10.7604,-10.8552,-10.8589,-10.9044,-10.9802,-10.9802,-10.8931,-10.7339,-10.6884,-10.4983,-10.1821,-10.0638,-9.9954,-9.9611,-9.8796,-9.82,-9.7795,-9.8488,-9.9218,-9.9989,-9.9622,-9.9769,-10.054,-9.9989,-9.9585,-9.9402,-9.8594,-9.7787,-9.7016,-9.6832,-9.6722,-9.6685,-9.5951,-9.4777,-9.3161,-9.1326,0.0,0.0,0.0,0.0,0.0,0.0,0.0,0.0,0.0,-8.5343,-8.4976,0.0,-8.7105,0.0,-8.8059,-8.9821,-9.1473,-9.217,0.0,0.0,-9.4593,-9.5474,-9.6869,-9.7199,-9.7933,-9.9548,-9.9879,-10.0319,-10.109,-10.1303,-10.1328,-10.1419,-10.1313,-10.1709,-10.2956,-10.3239,-10.3511,-10.4324,-10.4107,-10.3779,-10.3547,-10.2652,-10.1682,-10.0865,-10.0777,-10.098,-10.1555,-10.1656,-10.1825,-10.2367,-10.2536,-10.2536,-10.2468,-10.2536,-10.2401,-10.2062,-10.213,-10.2062,-10.1521,-10.2401,-10.3009,-11.3387,-11.2249,-11.1882,-11.1804,-11.1839,-11.1863,-11.259,-11.3727,-11.315,-11.1954,-11.0274,-10.8782,-10.7777,-10.7284,-10.7763,-10.8122,-10.84,-10.8059,-10.8324,-10.912,-10.8779,-10.9044,-10.9802,-10.9423,-10.8589,-10.7301,-10.6467,-10.4592,-10.1769,-10.0615,-10.0076,-10.0052,-9.9044,-9.8704,-9.8961,-9.9402,-9.9879,-10.0283,-9.9512,-9.9328,-9.9732,-9.9328,-9.8961,-9.8557,-9.7787,-9.6979,-9.6208,-9.5841,-9.5621,-9.5621,-9.5217,-9.441,-9.3161,-9.184,-9.0372,0.0,0.0,0.0,0.0,0.0,0.0,0.0,0.0,0.0,0.0,0.0,-8.8463,-8.9087,-9.0629,-9.2281,-9.4006,-9.4813,-9.5584,-9.6465,-9.6869,-9.7603,-9.8851,-9.8961,-9.9438,-10.0686,-10.0833,-10.098,-10.142,-10.1413,-10.1332,-10.1209,-10.1441,-10.2032,-10.3004,-10.3765,-10.4417,-10.4805,-10.4696,-10.4472,-10.4359,-10.2699,-10.144,-10.1059,-10.0544,-10.0371,-10.0777,-10.0878,-10.1014,-10.1386,-10.1487,-10.1487,-10.1487,-10.1521,-10.1487,-10.1487,-10.1487,-10.1453,-10.1419,-10.2028,-10.2231,-11.4341,-11.3497,-11.2726,-11.3197,-11.4433,-11.3438,-11.3701,-11.4793,-11.4191,-11.3392,-11.2422,-11.0986,-11.0028,-10.9487,-10.9793,-10.9916,-10.9764,-10.8969,-10.8969,-10.9575,-10.8817,-10.8817,-10.9423,-10.8741,-10.7983,-10.7111,-10.6257,-10.4492,-10.2015,-10.1013,-10.0384,-10.0102,-9.8631,-9.8631,-10.0062,-10.0026,-9.9952,-9.9842,-9.9365,-9.9108,-9.9108,-9.8998,-9.8594,-9.7897,-9.7016,-9.6171,-9.5401,-9.4666,-9.4299,-9.4299,-9.4299,-9.3932,-9.3161,-9.2281,-9.151,0.0,-8.9896,0.0,0.0,0.0,0.0,0.0,0.0,0.0,0.0,-8.8536,-8.9968,-9.195,-9.3712,-9.4997,-9.5621,-9.7089,-9.808,-9.819,-9.8814,-9.9585,-10.0319,-10.0466,-10.0723,-10.142,-10.1494,-10.1494,-10.1494,-10.1332,-10.1209,-10.1282,-10.1696,-10.2207,-10.2753,-10.3874,-10.468,-10.4825,-10.4851,-10.4671,-10.4073,-10.2538,-10.1417,-10.1539,-10.0779,-10.0119,-10.0032,-10.0066,-10.01,-10.0235,-10.0337,-10.0303,-10.0202,-10.0269,-10.0269,-10.0337,-10.0337,-10.0472,-10.0878,-10.1149,-10.098,-11.4305,-11.3497,-11.2726,-11.3197,-11.4428,-11.3589,-11.3934,-11.4986,-11.4418,-11.3138,-11.1504,-11.1466,-11.0982,-11.0347,-11.0661,-11.0485,-10.9764,-10.8969,-10.8703,-10.8779,-10.7945,-10.7642,-10.7756,-10.7642,-10.7111,-10.6248,-10.5022,-10.3545,-10.1981,-10.0041,-9.9169,-9.9292,-9.8374,-9.8374,-9.9255,0.0,0.0,0.0,-9.8521,-9.9108,-9.9071,-9.8447,-9.8043,-9.786,-9.6502,0.0,-9.4556,-9.4373,-9.4299,-9.4299,-9.4299,0.0,0.0,0.0,0.0,0.0,0.0,0.0,0.0,0.0,0.0,0.0,-9.2721,-9.2354,-9.1179,-9.2905,-9.4042,-9.3896,-9.5878,-9.7016,-9.6539,-9.7933,-9.9145,-9.9769,-9.9989,-10.0393,-10.1127,-10.1237,-10.131,-10.1457,-10.1494,-10.1494,-10.1494,-10.1454,-10.1454,-10.145,-10.1946,-10.2244,-10.2177,-10.3379,-10.4182,-10.4255,-10.4545,-10.4478,-10.353,-10.301,-10.2032,-10.0665,-10.0043,-9.9702,-9.9464,-9.9322,-9.9559,-9.9999,-10.0202,-10.0168,-10.0168,-10.0202,-10.0134,-10.0202,-10.0168,-10.01,-9.966,-10.0032,-10.0202,-11.4194,-11.4121,-11.3313,-11.3647,0.0,-11.371,-11.3647,-11.4196,-11.4196,-11.3241,-11.1642,-11.1581,-11.1164,-11.0497,-11.0472,-11.0219,-10.9727,-10.8514,-10.821,-10.8514,-10.7301,-10.6922,-10.7301,-10.6884,-10.6467,-10.605,-10.4667,-10.311,-10.1417,-9.9972,-9.9058,-9.8484,-9.7713,-9.7713,-9.8447,-9.7713,-9.7089,-9.6722,-9.7493,-9.7933,-9.7897,-9.753,-9.7309,-9.7273,-9.5768,0.0,0.0,0.0,0.0,0.0,0.0,0.0,0.0,-9.2684,0.0,-9.2978,-9.2281,-9.217,-9.2941,-9.3051,-9.3272,-9.3675,-9.4813,-9.496,-9.3749,-9.518,-9.6098,-9.6135,-9.7933,-9.8924,-9.8557,-9.9585,-10.0466,-10.0833,-10.087,-10.1053,-10.142,-10.1494,-10.1494,-10.1494,-10.1494,-10.1494,-10.1494,-10.1494,-10.1494,-10.1494,-10.1743,-10.1914,-10.1858,-10.2753,-10.3464,-10.3411,-10.3892,-10.4087,-10.358,-10.3286,-10.2914,-10.1627,-10.0474,-9.9674,-9.9437,-9.8942,-9.8713,-9.9051,-9.9153,-9.9119,-9.9119,-9.9119,-9.9119,-9.9119,-9.9119,-9.9018,-9.8645,-9.9153,-9.9457,-11.4415,-11.4929,-11.4121,-11.4194,-11.4717,-11.3746,-11.3261,-11.3192,-11.3657,0.0,0.0,-11.1429,-11.1006,-11.046,-11.0019,-10.9727,-10.9499,-10.8173,-10.7756,-10.8097,-10.6732,-10.6391,-10.6808,-10.6164,-10.5861,-10.5823,-10.444,-10.281,-10.1043,-10.0121,-9.9095,-9.7937,-9.7089,-9.7052,-9.7603,-9.7016,-9.6722,-9.6722,-9.6832,-9.6906,-9.6906,-9.6906,-9.6832,-9.6722,-9.529,-9.4446,-9.4263,-9.2978,-9.2244,-9.2244,-9.2244,-9.2574,-9.3272,-9.3308,-9.3675,-9.4446,-9.4373,-9.441,-9.4703,-9.4593,-9.463,-9.4887,-9.6282,-9.6832,-9.6171,-9.6869,-9.753,-9.808,-9.9548,-10.0466,-10.0319,-10.1017,-10.1494,-10.1494,-10.1494,-10.1494,-10.1494,-10.1494,-10.1494,-10.1494,-10.1494,-10.1494,-10.1494,-10.1494,-10.1494,-10.1494,-10.1531,-10.1494,-10.1556,-10.2195,-10.2738,-10.2768,-10.3185,-10.3511,-10.3446,-10.3448,-10.3201,-10.2766,-10.1432,-10.0361,-9.9941,-9.9077,-9.8364,-9.85,-9.8187,-9.807,-9.8037,-9.8104,-9.8003,-9.8003,-9.8003,-9.8003,-9.807,-9.8476,-9.8713,-11.5699,-11.5773,-11.4965,-11.4708,-11.4745,-11.3926,-11.3198,-11.2544,-11.2411,-11.1995,-11.1293,-11.0827,-11.0572,-11.0497,-11.0019,-10.9461,-10.8779,-10.8514,-10.7718,-10.6467,-10.6202,-10.5747,-10.514,-10.5027,-10.4989,-10.4884,-10.3573,-10.2509,-10.1682,-9.9824,-9.8541,-9.7864,-9.7089,-9.6759,-9.6869,-9.6759,-9.6722,-9.6722,-9.7383,-9.7713,-9.7713,-9.7713,-9.7383,-9.6722,-9.5804,-9.4997,-9.4299,-9.4042,-9.3932,-9.3932,-9.3932,-9.4006,-9.4116,-9.4116,-9.4483,-9.5217,-9.4703,-9.4887,-9.6245,-9.5731,-9.5951,-9.7273,-9.8264,-9.8704,-9.8631,-9.9328,-9.9548,-9.9071,-10.0393,-10.1017,-10.0466,-10.1017,-10.1494,-10.1494,-10.1494,-10.1494,-10.1494,-10.1494,-10.1494,-10.1494,-10.1494,-10.1494,-10.1494,-10.1494,-10.1494,-10.1494,-10.1494,-10.1454,-10.1355,-10.1727,-10.2222,-10.2523,-10.2642,-10.2714,-10.2787,-10.3275,-10.3124,-10.2302,-10.2416,-10.2015,-10.1287,-9.9996,-9.9259,-9.9455,-9.8599,-9.8031,-9.8003,-9.8003,-9.8003,-9.8003,-9.8003,-9.8003,-9.8003,-9.8138,-9.8172,-11.5332,-11.5341,-11.52,-11.4884,-11.4405,-11.3639,-11.2691,-11.1779,-11.1681,-11.141,-11.1019,-11.1089,-11.0831,-11.0363,-11.0448,-11.003,-10.9234,-10.8817,-10.7907,-10.677,-10.6315,-10.5633,-10.4837,-10.4799,-10.4572,-10.4089,-10.3195,-10.2148,-10.0998,-9.948,-9.8355,-9.7691,-9.706,-9.6722,-9.6722,-9.6722,-9.6722,-9.6722,-9.7052,-9.7236,-9.7236,-9.7236,-9.7052,-9.6685,-9.5951,-9.5364,-9.496,-9.452,-9.4299,-9.4299,-9.4299,-9.4483,-9.4923,-9.496,-9.5327,-9.6098,-9.5804,-9.5914,-9.6649,-9.6759,-9.7309,-9.8484,-9.9292,-9.9952,-10.0393,-10.0319,-10.0319,-10.0393,-10.109,-10.1347,-10.098,-10.1274,-10.1494,-10.1494,-10.1494,-10.1494,-10.1494,-10.1494,-10.1494,-10.1494,-10.1494,-10.1494,-10.1494,-10.1494,-10.1494,-10.1494,-10.1494,-10.1372,-10.1043,-10.121,-10.1362,-10.1459,-10.1753,-10.1918,-10.199,-10.2606,-10.2822,-10.2393,-10.2046,-10.1911,-10.1535,-10.0156,-9.9055,-9.9446,-9.8506,-9.7719,-9.7901,-9.8003,-9.8003,-9.8003,-9.8003,-9.8003,-9.8003,-9.8003,-9.8003,-11.4818,-11.4864,-11.5002,-11.4581,-11.3733,-11.2922,-11.1982,-11.1146,-11.1293,-11.1135,-11.0787,-11.1207,-11.1051,-11.0554,-11.0732,-11.0219,-10.9272,-10.8817,-10.7945,-10.677,-10.6277,-10.5633,-10.4875,-10.4799,-10.4458,-10.3823,-10.3021,-10.2018,-10.0788,-9.9348,-9.8165,-9.7358,-9.6877,-9.6722,-9.6722,-9.6722,-9.6722,-9.6722,-9.6722,-9.6722,-9.6722,-9.6722,-9.6722,-9.6649,-9.6098,-9.5768,-9.5768,-9.5144,-9.4813,-9.485,-9.485,-9.5144,-9.5731,-9.5951,-9.6245,-9.6685,-9.6869,-9.6979,-9.7016,-9.7713,-9.8521,-9.9328,-10.0136,-10.0833,-10.1347,-10.0943,-10.0833,-10.1384,-10.1457,-10.1494,-10.1457,-10.1494,-10.1494,-10.1494,-10.1494,-10.1494,-10.1494,-10.1494,-10.1494,-10.1494,-10.1494,-10.1494,-10.1494,-10.1494,-10.1494,-10.1494,-10.1494,-10.1336,-10.1007,-10.0881,-10.0713,-10.0687,-10.0899,-10.1085,-10.1193,-10.1809,-10.2244,-10.2316,-10.1827,-10.1725,-10.1596,-9.9851,-9.8653,-9.9467,-9.8445,-9.7645,-9.7901,-9.8003,-9.8003,-9.8003,-9.7834,-9.7664,-9.7394,-9.7394,-9.7563,-11.4782,-11.4708,-11.4064,-11.333,-11.2522,-11.1713,-11.1171,-11.0968,-11.1638,-11.1314,-11.0363,-11.0531,-11.0899,-11.1118,-11.0347,-10.9196,-10.7794,-10.8286,-10.7339,-10.5406,-10.5785,-10.5633,-10.4837,-10.4799,-10.4761,-10.4458,-10.3113,-10.2429,-10.2184,-9.967,-9.782,-9.6876,-9.6724,-9.6722,-9.6722,-9.6722,-9.6722,-9.6722,-9.6722,-9.6722,-9.6722,-9.6722,-9.6722,-9.6722,-9.6649,-9.6612,-9.6539,-9.6502,-9.6465,-9.6465,-9.6428,-9.6502,-9.6649,-9.7236,-9.7383,-9.6795,-9.7346,-9.7787,-9.7823,-9.8557,-9.9292,-10.0136,-10.087,-10.1347,-10.1494,-10.142,-10.1384,-10.1494,-10.1494,-10.1494,-10.1494,-10.1494,-10.1531,-10.1604,-10.1494,-10.1494,-10.1531,-10.1494,-10.1494,-10.1494,-10.1494,-10.1494,-10.1494,-10.1494,-10.1494,-10.1494,-10.1494,-10.1454,-10.1332,-10.1085,-10.0797,-10.0713,-10.0594,-10.0404,-10.0469,-10.1012,-10.1447,-10.1555,-10.2017,-10.2161,-10.1842,-10.1049,-10.0127,-9.9742,-9.8835,-9.7903,-9.7935,-9.8003,-9.8003,-9.7935,-9.7529,-9.6853,-9.6244,-9.6142,-9.6345,-11.4419,-11.3893,-11.3432,-11.2755,-11.1988,-11.1431,-11.1042,-11.0832,-11.0927,-11.0909,-11.0832,-11.0507,-11.0374,-11.0442,-11.0507,-10.9651,-10.8135,-10.8438,-10.7528,-10.5709,-10.5936,-10.5633,-10.4875,-10.4799,-10.4572,-10.4079,-10.3359,-10.263,-10.151,-9.9449,-9.7743,-9.68,-9.6722,-9.6722,-9.6722,-9.6722,-9.6722,-9.6722,-9.6722,-9.6722,-9.6722,-9.6722,-9.6722,-9.6722,-9.6722,-9.6722,-9.6722,-9.6722,-9.6722,-9.6722,-9.6722,-9.6906,-9.7383,-9.7713,-9.775,-9.7419,-9.7236,-9.7383,-9.786,-9.8668,-9.9438,-10.0246,-10.1053,-10.1494,-10.1494,-10.1494,-10.1494,-10.1494,-10.1494,-10.1494,-10.1494,-10.1494,-10.1641,-10.2008,-10.1788,-10.1641,-10.2155,-10.1788,-10.1494,-10.1494,-10.1494,-10.1494,-10.1494,-10.1494,-10.1494,-10.1494,-10.1494,-10.1454,-10.1332,-10.1126,-10.1002,-10.0755,-10.0449,-10.0223,-10.0215,-10.0433,-10.0686,-10.0759,-10.094,-10.1229,-10.1547,-10.0387,-9.9395,-10.0132,-9.8857,-9.7977,-9.7929,-9.7969,-9.8003,-9.7766,-9.736,-9.6582,-9.5398,-9.5499,-9.577,-11.4051,-11.3056,-11.2669,-11.2227,-11.1768,-11.1283,-11.1004,-11.0863,-11.061,-11.0708,-11.0908,-11.0601,-11.019,-10.9924,-11.0485,-10.9954,-10.8703,-10.8362,-10.749,-10.6164,-10.5861,-10.5406,-10.4837,-10.4799,-10.4496,-10.3965,-10.37,-10.2564,-10.0726,-9.9374,-9.8003,-9.6875,-9.6722,-9.6722,-9.6722,-9.6722,-9.6762,-9.6877,-9.68,-9.6762,-9.6876,-9.6762,-9.6722,-9.6722,-9.6722,-9.6722,-9.6722,-9.6722,-9.6722,-9.6722,-9.6906,-9.7163,-9.753,-9.8154,-9.8447,-9.8154,-9.7273,-9.7163,-9.8154,-9.8778,-9.9548,-10.0503,-10.1164,-10.1494,-10.1494,-10.1494,-10.1494,-10.1494,-10.1494,-10.1494,-10.1494,-10.1494,-10.1824,-10.2522,-10.1971,-10.1824,-10.2485,-10.1971,-10.1494,-10.1494,-10.1494,-10.1494,-10.1494,-10.1494,-10.1494,-10.1494,-10.1494,-10.1454,-10.1291,-10.1209,-10.1126,-10.0918,-10.0535,-10.0275,-10.0267,-10.0171,-10.0135,-10.0127,-10.0235,-10.0497,-10.095,-9.9667,-9.9264,-10.0319,-9.8816,-9.8217,-9.8463,-9.8383,-9.7394,-9.7089,-9.665,-9.5905,-9.4654,-9.4924,-9.4992,-11.3709,-11.2419,-11.1632,-11.1613,-11.1768,-11.1128,-11.0943,-11.1118,-11.1212,-11.0785,-11.0129,-11.0652,-11.0568,-10.984,-10.9916,-10.9423,-10.8552,-10.7794,-10.696,-10.605,-10.5292,-10.4837,-10.4799,-10.4799,-10.4761,-10.4572,-10.4003,-10.2349,-9.9825,-9.9436,-9.8523,-9.6799,-9.6722,-9.6722,-9.6722,-9.6722,-9.6952,-9.7284,-9.6951,-9.6951,-9.7321,-9.6989,-9.6722,-9.6759,-9.6722,-9.6722,-9.6722,-9.6722,-9.6722,-9.6722,-9.7346,-9.7493,-9.7089,-9.8888,-9.9659,-9.8924,-9.7566,-9.7419,-9.8778,-9.9108,-9.9769,-10.1127,-10.142,-10.1494,-10.1494,-10.1494,-10.1494,-10.1494,-10.1494,-10.1494,-10.1494,-10.1494,-10.1861,-10.2595,-10.2008,-10.1934,-10.2669,-10.2045,-10.1567,-10.1494,-10.1494,-10.1494,-10.1494,-10.1494,-10.1494,-10.1494,-10.1494,-10.1494,-10.1454,-10.1291,-10.1209,-10.1085,-10.0791,-10.0492,-10.0485,-10.0143,-9.9876,-9.9831,-9.9957,-10.0127,-10.0155,-10.0205,-10.0541,-10.0514,-9.965,-9.919,-9.9158,-9.824,-9.6621,-9.5872,-9.5432,-9.4654,-9.4079,-9.3774,-9.3909,-11.3934,-11.2993,-11.2412,-11.2423,-11.2664,-11.1432,-11.1124,-11.1469,-11.0585,-11.0181,-11.0084,-11.0233,-11.0068,-10.9802,-10.9802,-10.9348,-10.8552,-10.7718,-10.6846,-10.605,-10.5216,-10.4799,-10.4799,-10.4799,-10.4799,-10.4723,-10.4496,-10.2969,-10.047,-9.9254,-9.804,-9.6949,-9.6722,-9.6722,-9.6722,-9.6722,-9.6952,-9.7392,-9.6989,-9.721,-9.8058,-9.7247,-9.6906,-9.7419,-9.6942,-9.6722,-9.6722,-9.6722,-9.6722,-9.6722,-9.6979,-9.7236,-9.753,-9.8264,-9.8631,-9.8337,-9.7787,-9.797,-9.8961,-9.9585,-10.0319,-10.131,-10.1494,-10.1494,-10.1494,-10.1494,-10.1494,-10.1494,-10.1494,-10.1494,-10.1494,-10.1494,-10.2008,-10.2999,-10.2301,-10.2045,-10.2852,-10.2338,-10.1494,-10.1494,-10.1494,-10.1494,-10.1494,-10.1494,-10.1494,-10.1494,-10.1494,-10.1494,-10.1494,-10.1413,-10.1372,-10.1332,-10.0965,-10.0627,-10.0492,-10.0099,-9.9786,-9.9696,-9.9696,-9.9831,-9.9939,-10.0597,-10.1014,-10.038,-9.9777,-9.8844,-9.832,-9.7176,-9.5669,-9.506,-9.462,-9.4248,-9.374,-9.3605,-9.3706,-11.4011,-11.3753,-11.3185,-11.3185,-11.3427,-11.1786,-11.1453,-11.1802,-11.0454,-10.9941,-11.017,-10.9999,-10.9853,-10.9802,-10.9802,-10.9348,-10.8589,-10.7983,-10.7263,-10.6467,-10.5595,-10.5065,-10.4837,-10.4799,-10.4799,-10.4686,-10.4231,-10.2916,-10.1035,-9.9166,-9.7849,-9.6989,-9.68,-9.6722,-9.6724,-9.6876,-9.7211,-9.7606,-9.7392,-9.7799,-9.8679,-9.795,-9.7648,-9.8082,-9.7493,-9.6942,-9.6722,-9.6722,-9.6722,-9.6722,-9.6942,-9.7456,-9.8154,-9.8043,-9.8007,-9.8227,-9.8264,-9.8631,-9.9402,-9.9989,-10.065,-10.1384,-10.1494,-10.1494,-10.1494,-10.1494,-10.1494,-10.1494,-10.1494,-10.1494,-10.1494,-10.1494,-10.2155,-10.3403,-10.2669,-10.2448,-10.3586,-10.2448,-10.1641,-10.1494,-10.1494,-10.1494,-10.1494,-10.1494,-10.1494,-10.1494,-10.1494,-10.1494,-10.1494,-10.1494,-10.1494,-10.1494,-10.1172,-10.0755,-10.0449,-9.9974,-9.9605,-9.9467,-9.9513,-9.965,-9.9921,-10.0716,-10.0984,-10.0266,-9.9271,-9.8146,-9.7069,-9.5934,-9.5195,-9.4552,-9.4248,-9.3943,-9.3706,-9.3605,-9.3673,-11.3987,-11.4595,-11.3777,-11.364,-11.3822,-11.2152,-11.1809,-11.2088,-11.0854,-11.0215,-11.0243,-11.0187,-11.0028,-10.9832,-10.9689,-10.931,-10.8703,-10.84,-10.7869,-10.7036,-10.624,-10.5482,-10.4799,-10.4799,-10.4799,-10.4686,-10.3169,-10.2147,-10.1376,-9.944,-9.8128,-9.7536,-9.6914,-9.6724,-9.6724,-9.7248,-9.7708,-9.8084,-9.8225,-9.8669,-9.934,-9.8936,-9.8725,-9.8929,-9.8264,-9.753,-9.6795,-9.6722,-9.6722,-9.6795,-9.7346,-9.8227,-9.8668,-9.8337,-9.8264,-9.8888,-9.9071,-9.9512,-10.0136,-10.0319,-10.076,-10.1347,-10.1494,-10.1494,-10.1494,-10.1567,-10.1641,-10.1641,-10.1604,-10.1567,-10.1677,-10.1641,-10.2228,-10.3476,-10.2999,-10.2815,-10.3366,-10.2485,-10.1494,-10.1494,-10.1494,-10.1494,-10.1494,-10.1494,-10.1494,-10.1494,-10.1494,-10.1494,-10.1494,-10.1494,-10.1494,-10.1494,-10.1291,-10.1002,-10.0456,-9.9885,-9.9559,-9.9272,-9.9329,-9.9421,-9.9739,-10.0345,-10.1003,-10.0467,-9.8849,-9.7751,-9.6109,-9.5102,-9.4578,-9.4011,-9.3842,-9.3774,-9.3673,-9.3571,-9.3571,-11.4875,-11.544,-11.392,-11.3783,-11.4284,-11.2414,-11.187,-11.2207,-11.1021,-11.0485,-11.0458,-11.0297,-11.0056,-10.971,-10.9272,-10.8855,-10.8552,-10.7983,-10.7263,-10.6467,-10.5633,-10.5103,-10.4837,-10.4799,-10.4799,-10.461,-10.3738,-10.2601,-10.1437,-9.9922,-9.8781,-9.8027,-9.7138,-9.6951,-9.7248,-9.7428,-9.7743,-9.8291,-9.8843,-9.9515,-10.0195,-9.9786,-9.939,-9.9113,-9.8851,-9.8337,-9.7566,-9.7016,-9.6722,-9.6759,-9.6942,-9.7456,-9.8117,-9.8557,-9.8851,-9.9145,-9.9659,-9.9989,-10.0283,-10.0796,-10.1164,-10.142,-10.1494,-10.1494,-10.1567,-10.2045,-10.2301,-10.2301,-10.2338,-10.2522,-10.2925,-10.2632,-10.2815,-10.377,-10.2705,-10.2448,-10.3366,-10.2448,-10.1641,-10.1494,-10.1494,-10.1494,-10.1494,-10.1494,-10.1494,-10.1494,-10.1494,-10.1494,-10.1494,-10.1494,-10.1494,-10.1494,-10.1332,-10.1048,-10.0413,-9.9929,-9.9614,-9.919,-9.9096,-9.9283,-9.9601,-9.9945,-10.0603,-10.0327,-9.8739,-9.7241,-9.5615,-9.4601,-9.4185,-9.3799,-9.3673,-9.3639,-9.3605,-9.3571,-9.3571,-11.5661,-11.608,-11.4824,-11.447,-11.464,-11.2895,-11.2195,-11.2125,-11.1124,-11.0627,-11.0653,-11.0446,-11.027,-10.9923,-10.9163,-10.8764,-10.8622,-10.7738,-10.7036,-10.6467,-10.5671,-10.514,-10.4837,-10.4799,-10.4799,-10.4648,-10.3965,-10.3141,-10.2244,-10.0657,-9.9547,-9.8936,-9.7683,-9.7175,-9.7499,-9.7746,-9.7983,-9.8395,-9.9492,-10.028,-10.0561,-10.0369,-9.9982,-9.9595,-9.9292,-9.8851,-9.8337,-9.786,-9.7603,-9.7603,-9.7603,-9.786,-9.8374,-9.9071,-9.9548,-9.9695,-10.0246,-10.0723,-10.0796,-10.12,-10.1494,-10.1531,-10.1751,-10.1934,-10.2081,-10.2669,-10.3109,-10.3146,-10.2852,-10.3036,-10.3586,-10.3182,-10.3219,-10.4247,-10.2962,-10.2338,-10.2779,-10.2118,-10.1567,-10.1494,-10.1494,-10.1494,-10.1494,-10.1494,-10.1494,-10.1494,-10.1494,-10.1494,-10.1494,-10.1494,-10.1494,-10.1494,-10.1454,-10.1007,-10.0326,-9.9929,-9.9705,-9.9283,-9.8861,-9.9096,-9.9401,-9.9719,-10.0161,-9.9718,-9.8531,-9.75,-9.5972,-9.5078,-9.4466,-9.4087,-9.363,-9.3571,-9.3571,-9.3571,-9.3571,-11.6277,-11.6462,-11.6152,-11.5494,-11.4752,-11.3623,-11.2869,-11.2187,-11.1313,-11.0892,-11.0913,-11.0703,-11.0576,-11.0346,-10.9432,-10.898,-10.88,-10.7796,-10.7301,-10.6998,-10.6353,-10.5595,-10.4875,-10.4799,-10.4799,-10.4686,-10.4079,-10.3662,-10.3274,-10.137,-10.0383,-10.0217,-9.8464,-9.7646,-9.7936,-9.8237,-9.837,-9.8679,-10.0142,-10.0805,-10.0599,-10.0609,-10.0419,-10.0105,-9.9548,-9.9255,-9.9181,-9.9181,-9.9181,-9.9108,-9.8998,-9.9071,-9.9292,-9.9916,-10.0356,-10.0393,-10.109,-10.1347,-10.1457,-10.142,-10.1567,-10.1714,-10.2228,-10.2742,-10.2852,-10.3476,-10.3953,-10.3953,-10.3439,-10.3329,-10.388,-10.3366,-10.3623,-10.4504,-10.3733,-10.2779,-10.1751,-10.1641,-10.1641,-10.1531,-10.1494,-10.1494,-10.1494,-10.1494,-10.1494,-10.1494,-10.1494,-10.1494,-10.1494,-10.1494,-10.1494,-10.1494,-10.1494,-10.1048,-10.0413,-10.0195,-9.9929,-9.9513,-9.9085,-9.9179,-9.9375,-9.9657,-9.9821,-9.9383,-9.8714,-9.7647,-9.65,-9.5571,-9.4534,-9.3889,-9.363,-9.363,-9.3571,-9.3571,-9.3571,-11.6439,-11.6407,-11.5763,-11.5394,-11.5048,-11.4149,-11.3327,-11.2604,-11.2267,-11.1577,-11.1147,-11.0937,-11.0791,-11.0474,-10.9513,-10.9035,-10.8762,-10.7863,-10.7301,-10.7149,-10.6467,-10.5633,-10.4951,-10.4799,-10.4799,-10.4723,-10.4534,-10.4155,-10.352,-10.2018,-10.1392,-10.1655,-9.9071,-9.8377,-9.9544,-9.8999,-9.8845,-9.9225,-10.0194,-10.051,-9.9963,-10.0076,-9.9871,-9.9483,-9.9769,-9.9916,-10.0026,-10.054,-10.0246,-9.9255,-9.9695,-9.9989,-10.0026,-10.0686,-10.109,-10.1164,-10.131,-10.1494,-10.1494,-10.1531,-10.1751,-10.2301,-10.2669,-10.2962,-10.3586,-10.432,-10.4724,-10.4761,-10.4577,-10.4761,-10.5275,-10.4467,-10.4027,-10.41,-10.4357,-10.388,-10.2742,-10.2375,-10.2191,-10.1641,-10.1567,-10.1604,-10.1641,-10.1641,-10.1641,-10.1641,-10.1604,-10.1567,-10.1641,-10.1641,-10.1714,-10.1531,-10.1413,-10.1043,-10.0707,-10.0492,-10.0231,-9.9786,-9.9503,-9.9401,-9.9595,-9.9813,-9.9984,-9.9894,-9.9204,-9.8234,-9.7006,-9.5901,-9.4928,-9.4117,-9.3765,-9.3774,-9.3639,-9.3571,-9.3571,-11.6484,-11.6446,-11.5984,-11.5599,-11.5215,-11.4368,-11.3522,-11.2692,-11.2143,-11.1752,-11.1239,-11.1031,-11.0984,-11.0836,-10.9723,-10.9387,-10.9486,-10.8413,-10.8059,-10.8173,-10.7187,-10.5974,-10.5065,-10.4799,-10.4799,-10.4799,-10.4799,-10.4534,-10.4013,-10.2921,-10.263,-10.2307,-10.0194,-9.9581,-10.0457,-10.0028,-9.9699,-10.0079,-10.0653,-10.0681,-10.0079,-9.9898,-9.9575,-9.9373,-9.9879,-10.0393,-10.0796,-10.1237,-10.1017,-10.0393,-10.054,-10.0796,-10.0833,-10.12,-10.1494,-10.1494,-10.1494,-10.1494,-10.1567,-10.1788,-10.2191,-10.2742,-10.3219,-10.388,-10.443,-10.5165,-10.5678,-10.5642,-10.5348,-10.5568,-10.6046,-10.5495,-10.5018,-10.5091,-10.5385,-10.4981,-10.3403,-10.3219,-10.2999,-10.2632,-10.2485,-10.2485,-10.2485,-10.2485,-10.2485,-10.2448,-10.2265,-10.2155,-10.2081,-10.2008,-10.2008,-10.2008,-10.2187,-10.2119,-10.1679,-10.1435,-10.1219,-10.0706,-10.0688,-10.0436,-10.0065,-10.021,-10.0227,-10.0182,-9.9595,-9.8777,-9.7627,-9.6567,-9.589,-9.5127,-9.4481,-9.3943,-9.3808,-9.374,-9.3706,-11.6484,-11.6484,-11.6484,-11.6061,-11.5368,-11.4599,-11.3945,-11.2901,-11.2053,-11.1615,-11.155,-11.1262,-11.1208,-11.1401,-11.0203,-10.9889,-11.0448,-10.923,-10.899,-10.8627,-10.768,-10.6202,-10.4913,-10.4799,-10.4799,-10.4799,-10.4799,-10.4761,-10.4458,-10.3861,-10.3634,-10.3159,-10.1677,-10.0927,-10.1122,-10.0901,-10.086,-10.089,-10.126,-10.1153,-10.0565,-10.0121,-9.9685,-9.9593,-10.0172,-10.0907,-10.142,-10.1677,-10.1641,-10.1751,-10.1604,-10.1494,-10.1531,-10.1641,-10.1751,-10.1898,-10.2008,-10.1971,-10.1898,-10.2522,-10.2925,-10.3293,-10.4357,-10.5165,-10.5311,-10.5899,-10.6229,-10.6229,-10.5678,-10.5789,-10.6192,-10.6266,-10.6192,-10.6119,-10.6266,-10.5642,-10.4577,-10.41,-10.399,-10.3917,-10.3843,-10.388,-10.388,-10.388,-10.3806,-10.3219,-10.3036,-10.2889,-10.2815,-10.2815,-10.2815,-10.2852,-10.3137,-10.3531,-10.2986,-10.2445,-10.2229,-10.1931,-10.2149,-10.1907,-10.1023,-10.0895,-10.0678,-10.0472,-10.0259,-9.9549,-9.8406,-9.753,-9.6692,-9.58,-9.4968,-9.4451,-9.4112,-9.4045,-9.4011,-11.6484,-11.6484,-11.6484,-11.6407,-11.6215,-11.6022,-11.5445,-11.4599,-11.3709,-11.2802,-11.2385,-11.1687,-11.1418,-11.1423,-11.0659,-11.0462,-11.0384,-10.9629,-10.9082,-10.768,-10.6846,-10.5823,-10.4951,-10.4837,-10.4799,-10.4799,-10.4799,-10.4837,-10.4648,-10.4307,-10.3965,-10.4221,-10.2765,-10.1775,-10.2456,-10.2007,-10.1682,-10.1716,-10.185,-10.1476,-10.0826,-10.0234,-9.998,-10.0142,-10.0833,-10.1604,-10.2265,-10.2448,-10.2742,-10.2889,-10.2301,-10.1934,-10.2301,-10.2448,-10.2669,-10.3072,-10.3256,-10.3293,-10.3403,-10.3513,-10.3917,-10.443,-10.4871,-10.5385,-10.6082,-10.6229,-10.6376,-10.6376,-10.6229,-10.6156,-10.6339,-10.6376,-10.6376,-10.6376,-10.6376,-10.6266,-10.5825,-10.5238,-10.4651,-10.4173,-10.4027,-10.3917,-10.3953,-10.41,-10.4027,-10.3917,-10.3806,-10.366,-10.366,-10.366,-10.366,-10.366,-10.4022,-10.4379,-10.4148,-10.3534,-10.3144,-10.3045,-10.33,-10.3285,-10.2366,-10.2043,-10.2052,-10.1691,-10.1161,-10.0266,-9.9077,-9.806,-9.7149,-9.6296,-9.5533,-9.5263,-9.4992,-9.4721,-9.4518,-11.6484,-11.6484,-11.6484,-11.6484,-11.6446,-11.6099,-11.5676,-11.5061,-11.3907,-11.3137,-11.2599,-11.1829,-11.1291,-11.0923,-11.0793,-11.0359,-10.9442,-10.884,-10.7945,-10.6884,-10.624,-10.5633,-10.5103,-10.514,-10.5254,-10.5027,-10.5671,-10.5785,-10.5444,-10.533,-10.5444,-10.5339,-10.3867,-10.3383,-10.3538,-10.3168,-10.298,-10.2727,-10.2265,-10.1753,-10.1278,-10.0536,-10.0638,-10.128,-10.1861,-10.2448,-10.3182,-10.3256,-10.3476,-10.3549,-10.3109,-10.2779,-10.3146,-10.3293,-10.3513,-10.377,-10.388,-10.388,-10.3917,-10.4284,-10.4651,-10.5091,-10.5458,-10.5899,-10.6266,-10.6376,-10.6376,-10.6376,-10.6376,-10.6376,-10.6376,-10.6376,-10.6376,-10.6376,-10.6413,-10.6376,-10.6339,-10.5972,-10.5605,-10.5165,-10.5165,-10.5165,-10.5091,-10.4834,-10.4981,-10.5165,-10.4614,-10.4467,-10.4467,-10.4467,-10.4467,-10.4577,-10.4944,-10.5123,-10.5039,-10.4661,-10.4101,-10.4083,-10.4216,-10.4159,-10.3686,-10.3589,-10.3682,-10.2848,-10.1891,-10.0821,-9.9657,-9.8631,-9.7597,-9.6784,-9.6244,-9.6108,-9.5838,-9.5398,-9.5296,-11.6484,-11.6484,-11.6484,-11.6484,-11.6369,-11.5792,-11.5561,-11.5253,-11.3637,-11.3099,-11.2714,-11.1945,-11.1175,-11.0649,-11.0832,-10.9883,-10.8589,-10.7652,-10.7073,-10.6581,-10.6467,-10.605,-10.5709,-10.6088,-10.6202,-10.5444,-10.6429,-10.6732,-10.6581,-10.6846,-10.6619,-10.6257,-10.5619,-10.4964,-10.4487,-10.4324,-10.4368,-10.4285,-10.3618,-10.298,-10.2624,-10.1833,-10.1994,-10.2485,-10.2852,-10.3293,-10.388,-10.41,-10.4173,-10.4247,-10.4247,-10.4284,-10.4247,-10.41,-10.421,-10.4284,-10.4504,-10.4541,-10.4651,-10.4981,-10.5348,-10.5348,-10.6082,-10.6413,-10.6449,-10.6523,-10.6559,-10.6413,-10.6376,-10.6486,-10.6523,-10.667,-10.6743,-10.6816,-10.6816,-10.6706,-10.6596,-10.6559,-10.6486,-10.6229,-10.5972,-10.5862,-10.6009,-10.5935,-10.6229,-10.6266,-10.5678,-10.5275,-10.5275,-10.5311,-10.5311,-10.5311,-10.5642,-10.5385,-10.527,-10.5998,-10.5442,-10.4881,-10.5052,-10.4997,-10.4823,-10.4632,-10.4291,-10.3374,-10.2347,-10.1289,-10.0165,-9.9017,-9.8093,-9.7326,-9.7022,-9.692,-9.6582,-9.6108,-9.6108,-11.6484,-11.6484,-11.6484,-11.6484,-11.6484,-11.633,-11.6253,-11.6022,-11.4445,-11.3791,-11.3522,-11.2214,-11.1406,-11.1149,-11.1009,-11.0154,-10.8724,-10.7739,-10.7225,-10.6998,-10.6998,-10.6808,-10.6846,-10.7415,-10.7528,-10.7111,-10.7415,-10.749,-10.7187,-10.7225,-10.7415,-10.7006,-10.6417,-10.5982,-10.5912,-10.5922,-10.5884,-10.5982,-10.5612,-10.5238,-10.4712,-10.3984,-10.3512,-10.3742,-10.3696,-10.4137,-10.4724,-10.4944,-10.5238,-10.5899,-10.5972,-10.5972,-10.5862,-10.5385,-10.5422,-10.5752,-10.5935,-10.5972,-10.6009,-10.6046,-10.6192,-10.6376,-10.6853,-10.6926,-10.6743,-10.6963,-10.711,-10.6743,-10.6633,-10.6743,-10.733,-10.7367,-10.7734,-10.8101,-10.8175,-10.7991,-10.7551,-10.733,-10.711,-10.667,-10.6523,-10.6376,-10.6376,-10.6376,-10.6376,-10.6376,-10.6119,-10.5862,-10.5899,-10.6046,-10.6192,-10.6192,-10.6229,-10.5752,-10.527,-10.6449,-10.6774,-10.582,-10.5699,-10.5913,-10.5691,-10.5332,-10.4836,-10.4146,-10.2921,-10.1591,-10.048,-9.9377,-9.8506,-9.7624,-9.7664,-9.7732,-9.7326,-9.692,-9.7022,-11.6484,-11.6484,-11.6484,-11.6484,-11.6484,-11.6484,-11.6484,-11.6253,-11.4753,-11.3984,-11.3483,-11.2291,-11.0858,-11.027,-11.0311,-10.9607,-10.8453,-10.7673,-10.7301,-10.7301,-10.7301,-10.7301,-10.749,-10.8248,-10.8589,-10.8703,-10.9006,-10.8703,-10.8097,-10.8476,-10.8362,-10.7945,-10.7528,-10.7259,-10.7071,-10.7229,-10.7448,-10.759,-10.7407,-10.7006,-10.6205,-10.5132,-10.4427,-10.4591,-10.4614,-10.4981,-10.5678,-10.6266,-10.6559,-10.7,-10.7404,-10.7587,-10.7477,-10.7294,-10.6963,-10.711,-10.7367,-10.7624,-10.7514,-10.7294,-10.7,-10.7037,-10.744,-10.7404,-10.733,-10.7661,-10.7918,-10.7734,-10.7661,-10.7771,-10.8175,-10.8211,-10.8431,-10.8688,-10.8835,-10.8652,-10.8321,-10.8248,-10.7734,-10.711,-10.678,-10.6559,-10.6376,-10.6376,-10.6376,-10.6376,-10.6413,-10.6486,-10.6559,-10.678,-10.7,-10.7147,-10.7183,-10.7147,-10.6706,-10.7294,-10.7807,-10.6926,-10.6339,-10.6511,-10.6353,-10.5933,-10.5772,-10.5429,-10.3964,-10.1964,-10.085,-9.9768,-9.8864,-9.8003,-9.7935,-9.7867,-9.7867,-9.7834,-9.7766,-11.6484,-11.6484,-11.6484,-11.6407,-11.6292,-11.6446,-11.6253,-11.5753,-11.4599,-11.3868,-11.3522,-11.2154,-11.0584,-10.9497,-10.9333,-10.9048,-10.798,-10.7711,-10.7642,-10.7718,-10.7907,-10.7945,-10.8324,-10.8741,-10.9575,-11.0371,-11.075,-11.0636,-10.9802,-10.9802,-10.9689,-10.9461,-10.9196,-10.8855,-10.8636,-10.9015,-10.9158,-10.9195,-10.8776,-10.8182,-10.7069,-10.5851,-10.5165,-10.5752,-10.5862,-10.6266,-10.6963,-10.744,-10.7697,-10.7954,-10.8321,-10.8725,-10.8799,-10.8945,-10.8725,-10.8285,-10.8578,-10.8725,-10.8615,-10.8248,-10.7844,-10.7844,-10.7991,-10.7991,-10.7954,-10.8321,-10.8725,-10.8799,-10.8725,-10.8799,-10.8945,-10.9055,-10.9166,-10.9386,-10.9423,-10.9239,-10.9129,-10.8945,-10.8615,-10.7954,-10.7257,-10.6816,-10.6706,-10.6816,-10.689,-10.711,-10.7147,-10.744,-10.7514,-10.7661,-10.7881,-10.8064,-10.8248,-10.8578,-10.8505,-10.8468,-10.8542,-10.7881,-10.7257,-10.711,-10.6768,-10.6346,-10.6193,-10.5831,-10.4,-10.2174,-10.1178,-10.027,-9.9337,-9.8667,-9.8215,-9.8153,-9.8391,-9.8181,-9.7901,-11.6484,-11.6484,-11.6446,-11.6099,-11.5599,-11.6099,-11.5599,-11.4407,-11.4099,-11.3522,-11.2906,-11.1962,-11.116,-11.0362,-10.9378,-10.904,-10.8734,-10.8546,-10.8438,-10.8514,-10.9082,-10.9689,-11.0409,-11.0712,-11.1129,-11.1735,-11.2039,-11.2076,-11.1591,-11.1174,-11.1281,-11.1281,-11.0348,-11.0181,-11.0977,-11.0864,-11.1205,-11.1475,-11.0733,-10.9636,-10.8681,-10.8119,-10.7991,-10.8101,-10.8138,-10.8101,-10.8211,-10.8505,-10.8652,-10.8688,-10.8762,-10.8835,-10.8909,-10.9496,-10.9753,-10.9533,-10.9239,-10.8799,-10.8945,-10.8762,-10.8652,-10.8762,-10.9129,-10.9202,-10.9055,-10.8909,-10.9055,-10.8799,-10.8909,-10.9239,-10.9753,-10.9826,-11.0193,-11.0524,-11.0671,-11.0414,-11.0157,-11.0157,-10.979,-10.9349,-10.8835,-10.7734,-10.711,-10.7294,-10.7477,-10.7697,-10.7954,-10.8211,-10.8395,-10.8505,-10.8872,-10.9129,-10.9276,-10.9569,-10.9679,-10.9716,-10.9312,-10.8762,-10.8175,-10.7661,-10.7104,-10.6695,-10.6243,-10.5575,-10.3916,-10.2792,-10.2034,-10.1124,-9.9998,-9.917,-9.8546,-9.8727,-9.9145,-9.8701,-9.8003,-11.5061,-11.5099,-11.5099,-11.4907,-11.4638,-11.4945,-11.4676,-11.4022,-11.3483,-11.306,-11.2599,-11.1829,-11.1016,-11.0116,-10.9111,-10.8755,-10.884,-10.9103,-10.9272,-10.9461,-11.0106,-11.075,-11.1053,-11.1584,-11.2228,-11.2835,-11.31,-11.3365,-11.3076,-11.2244,-11.1658,-11.2091,-11.1375,-11.1116,-11.2501,-11.2493,-11.2683,-11.2591,-11.1856,-11.0674,-10.9698,-10.9092,-10.8835,-10.8835,-10.8872,-10.8872,-10.8945,-10.9312,-10.9459,-10.9569,-10.9826,-11.0157,-11.023,-11.0524,-11.0817,-11.1295,-11.0597,-11.023,-11.0157,-10.9753,-10.9533,-10.9496,-10.9826,-10.9936,-11.0047,-11.012,-11.012,-11.0193,-11.0157,-11.034,-11.0524,-11.0671,-11.0854,-11.1184,-11.1662,-11.1662,-11.1405,-11.1441,-11.1258,-11.0854,-11.0377,-10.9459,-10.8615,-10.8578,-10.8688,-10.8542,-10.8688,-10.8799,-10.9019,-10.9166,-10.9679,-11.0267,-11.0414,-11.056,-11.056,-11.056,-11.0157,-10.9569,-10.8799,-10.8211,-10.7514,-10.6994,-10.6652,-10.6316,-10.5397,-10.4322,-10.323,-10.1999,-10.0913,-9.9872,-9.8847,-9.9189,-9.9469,-9.858,-9.8003,-11.356,-11.3407,-11.3791,-11.3868,-11.3714,-11.3907,-11.3753,-11.3291,-11.2945,-11.2599,-11.2209,-11.1583,-11.0654,-10.9825,-10.9239,-10.8998,-10.9006,-10.9537,-10.9916,-11.0295,-11.0788,-11.1318,-11.1887,-11.2493,-11.3062,-11.3896,-11.4237,-11.4351,-11.4086,-11.3496,-11.2876,-11.2887,-11.2396,-11.2629,-11.3196,-11.3599,-11.3802,-11.3584,-11.2882,-11.186,-11.0748,-10.9863,-10.9606,-10.9459,-10.9423,-10.9423,-10.9496,-10.9936,-11.0267,-11.0414,-11.0744,-11.0964,-11.1038,-11.1038,-11.1478,-11.1882,-11.1588,-11.1552,-11.1368,-11.1001,-11.0414,-11.0267,-11.0304,-11.0597,-11.0964,-11.1221,-11.1184,-11.1001,-11.1038,-11.1074,-11.1258,-11.1295,-11.1552,-11.1845,-11.2249,-11.2469,-11.2653,-11.2543,-11.2506,-11.2249,-11.1882,-11.1662,-11.0928,-11.0414,-11.0047,-10.9606,-10.9459,-10.9496,-10.9643,-10.99,-11.0267,-11.0854,-11.0928,-11.1001,-11.1001,-11.0964,-11.0671,-11.034,-10.9533,-10.8835,-10.8138,-10.7661,-10.7324,-10.6951,-10.6572,-10.5998,-10.5031,-10.3468,-10.1962,-10.1332,-10.069,-9.9921,-9.9531,-9.8636,-9.8375,-11.2329,-11.1791,-11.333,-11.3445,-11.2829,-11.3676,-11.3099,-11.1983,-11.2445,-11.2231,-11.1627,-11.0975,-11.0678,-11.0306,-10.9762,-10.9515,-10.9689,-10.9764,-11.0227,-11.072,-11.1205,-11.2076,-11.2797,-11.3403,-11.3858,-11.4616,-11.5147,-11.5184,-11.5037,-11.5003,-11.465,-11.4578,-11.3746,-11.4534,-11.5001,-11.5046,-11.4666,-11.4411,-11.3935,-11.3272,-11.2203,-11.1405,-11.1001,-11.1038,-11.1038,-11.1038,-11.1038,-11.1221,-11.1295,-11.1295,-11.1331,-11.1368,-11.1441,-11.1405,-11.1808,-11.2322,-11.2469,-11.2616,-11.2763,-11.1955,-11.1221,-11.1111,-11.1074,-11.1001,-11.1184,-11.1258,-11.1258,-11.1405,-11.1588,-11.1552,-11.1662,-11.1808,-11.2249,-11.2543,-11.2946,-11.335,-11.3497,-11.3497,-11.346,-11.346,-11.3313,-11.302,-11.3093,-11.2579,-11.1478,-11.0964,-11.0597,-11.056,-11.0524,-11.0707,-11.0854,-11.1148,-11.1221,-11.1258,-11.1184,-11.1111,-11.1184,-11.0781,-11.0083,-10.9459,-10.8872,-10.8431,-10.7918,-10.7801,-10.7525,-10.719,-10.6807,-10.5544,-10.4302,-10.3411,-10.2483,-10.1371,-10.0233,-9.937,-9.934,-11.0483,-11.0752,-11.1406,-11.1791,-11.1983,-11.2329,-11.2099,-11.1598,-11.1829,-11.1704,-11.1162,-11.0791,-11.0511,-11.0215,-10.9629,-10.9453,-10.9788,-10.9995,-11.0536,-11.1333,-11.2114,-11.2948,-11.3668,-11.4085,-11.4502,-11.4957,-11.5601,-11.5718,-11.5089,-11.5725,-11.558,-11.5196,-11.4855,-11.5404,-11.5843,-11.6286,-11.5815,-11.5133,-11.4865,-11.4387,-11.322,-11.2432,-11.2176,-11.2653,-11.2065,-11.2286,-11.2543,-11.2653,-11.2653,-11.2506,-11.2176,-11.1992,-11.1955,-11.1955,-11.2359,-11.2983,-11.3093,-11.3534,-11.3864,-11.2873,-11.1808,-11.1258,-11.1221,-11.1258,-11.1331,-11.1588,-11.1882,-11.2065,-11.2359,-11.2432,-11.2726,-11.2946,-11.3167,-11.335,-11.3681,-11.4158,-11.4341,-11.4341,-11.4488,-11.4525,-11.4415,-11.4194,-11.4451,-11.4672,-11.3424,-11.2322,-11.1955,-11.1588,-11.1368,-11.1221,-11.1221,-11.1405,-11.1515,-11.1515,-11.1441,-11.1552,-11.1735,-11.1221,-11.0634,-11.001,-10.9423,-10.8909,-10.8505,-10.8462,-10.8492,-10.8198,-10.7936,-10.7506,-10.642,-10.4825,-10.3461,-10.2214,-10.1158,-10.0078,-10.0176,-10.9406,-11.0175,-11.0214,-11.0714,-11.1483,-11.1752,-11.1714,-11.156,-11.1791,-11.1506,-11.0984,-11.0741,-11.0458,-11.0075,-10.9909,-10.9806,-11.0325,-11.0732,-11.1292,-11.2098,-11.2948,-11.3668,-11.4047,-11.4389,-11.473,-11.5071,-11.5835,-11.6097,-11.5143,-11.6248,-11.6182,-11.5835,-11.5829,-11.6293,-11.6802,-11.7307,-11.7134,-11.6144,-11.5563,-11.5118,-11.3962,-11.3203,-11.2873,-11.3387,-11.2983,-11.2983,-11.3277,-11.335,-11.3387,-11.3277,-11.3057,-11.28,-11.2763,-11.2873,-11.3203,-11.3644,-11.4011,-11.4341,-11.4525,-11.3717,-11.2432,-11.1808,-11.1662,-11.1625,-11.1735,-11.2102,-11.2322,-11.2763,-11.324,-11.3607,-11.3681,-11.3717,-11.3901,-11.4084,-11.4708,-11.5149,-11.5149,-11.5185,-11.5406,-11.5589,-11.5369,-11.5112,-11.5039,-11.5112,-11.4158,-11.302,-11.2396,-11.1845,-11.1331,-11.1221,-11.1221,-11.1478,-11.1808,-11.1772,-11.1735,-11.1955,-11.2139,-11.1808,-11.1184,-11.045,-10.9863,-10.9459,-10.9239,-10.9239,-10.9225,-10.9204,-10.9029,-10.8815,-10.7494,-10.5778,-10.446,-10.3058,-10.1831,-10.086,-10.0797,-10.9329,-11.0175,-11.0137,-11.0675,-11.1522,-11.2329,-11.2175,-11.1637,-11.2175,-11.1868,-11.0999,-11.0716,-11.0394,-11.0322,-11.0386,-11.0666,-11.103,-11.1719,-11.2477,-11.3145,-11.3593,-11.4085,-11.4464,-11.4768,-11.4919,-11.5222,-11.6005,-11.6238,-11.5304,-11.6668,-11.6681,-11.6273,-11.638,-11.7025,-11.7561,-11.8421,-11.8055,-11.6811,-11.614,-11.5506,-11.4779,-11.4011,-11.3754,-11.3901,-11.3717,-11.3717,-11.4011,-11.4048,-11.4084,-11.4011,-11.3754,-11.357,-11.357,-11.357,-11.3937,-11.4525,-11.4708,-11.5149,-11.5699,-11.4341,-11.335,-11.2543,-11.2359,-11.2359,-11.2396,-11.2579,-11.291,-11.3534,-11.3827,-11.3827,-11.3974,-11.4305,-11.4635,-11.4929,-11.5516,-11.5736,-11.5699,-11.5699,-11.5883,-11.592,-11.5956,-11.5883,-11.5626,-11.5296,-11.4525,-11.3644,-11.2873,-11.2249,-11.1698,-11.1662,-11.1808,-11.2139,-11.2543,-11.2543,-11.2579,-11.2543,-11.2506,-11.2212,-11.1808,-11.1148,-11.0744,-11.0524,-11.0304,-11.012,-11.0113,-11.0172,-11.0233,-11.0233,-10.8434,-10.6647,-10.5254,-10.3938,-10.2556,-10.169,-10.1555,-10.8059,-10.9329,-10.9329,-11.0175,-11.1445,-11.1791,-11.1752,-11.1598,-11.1731,-11.1454,-11.0829,-11.064,-11.0324,-11.0207,-11.0415,-11.0814,-11.1296,-11.216,-11.2991,-11.3593,-11.4085,-11.4464,-11.4768,-11.4919,-11.5109,-11.5696,-11.6447,-11.6725,-11.6219,-11.7057,-11.6768,-11.6285,-11.664,-11.7507,-11.8242,-11.8799,-11.8355,-11.7558,-11.6917,-11.6276,-11.5571,-11.4855,-11.4598,-11.5039,-11.4635,-11.4598,-11.4965,-11.4965,-11.4965,-11.4892,-11.4672,-11.4415,-11.4415,-11.4378,-11.4525,-11.4965,-11.5149,-11.5663,-11.592,-11.5259,-11.4561,-11.3717,-11.3203,-11.3203,-11.3203,-11.3754,-11.4084,-11.4415,-11.4745,-11.4929,-11.5369,-11.5406,-11.5589,-11.5589,-11.592,-11.592,-11.592,-11.592,-11.5993,-11.5993,-11.5993,-11.5993,-11.5846,-11.5553,-11.4892,-11.4488,-11.3827,-11.3313,-11.2763,-11.2836,-11.2983,-11.324,-11.3497,-11.3497,-11.346,-11.3424,-11.3313,-11.313,-11.2653,-11.2065,-11.1735,-11.1478,-11.1148,-11.0854,-11.1001,-11.1177,-11.0864,-11.0332,-10.9074,-10.7588,-10.621,-10.4525,-10.2927,-10.2265,-10.2198,-10.7367,-10.8867,-10.8906,-10.9906,-11.1406,-11.1791,-11.1906,-11.1846,-11.1512,-11.1046,-11.0666,-11.0473,-11.0215,-11.0098,-11.0587,-11.1059,-11.1667,-11.2855,-11.3552,-11.4085,-11.4502,-11.473,-11.4843,-11.5109,-11.5563,-11.6156,-11.659,-11.6816,-11.6588,-11.6839,-11.6608,-11.6291,-11.6638,-11.7289,-11.7933,-11.8011,-11.7971,-11.7297,-11.6788,-11.6336,-11.5864,-11.5553,-11.5442,-11.5626,-11.5553,-11.5442,-11.581,-11.5993,-11.5993,-11.581,-11.5553,-11.5222,-11.5185,-11.5185,-11.5222,-11.5406,-11.5589,-11.5993,-11.5956,-11.5956,-11.5259,-11.4635,-11.4231,-11.4011,-11.4048,-11.4378,-11.4818,-11.5222,-11.5736,-11.5883,-11.5993,-11.603,-11.614,-11.614,-11.6103,-11.614,-11.6434,-11.6434,-11.6507,-11.647,-11.614,-11.6103,-11.6066,-11.5699,-11.5332,-11.5075,-11.4782,-11.4305,-11.3827,-11.3864,-11.3937,-11.4121,-11.4305,-11.4305,-11.4305,-11.4305,-11.4194,-11.4048,-11.3424,-11.2689,-11.2543,-11.2286,-11.1919,-11.1625,-11.1735,-11.1646,-11.1055,-11.0275,-10.9422,-10.8376,-10.7119,-10.5342,-10.3325,-10.2908,-10.2908,-10.7367,-10.8752,-10.8867,-10.9829,-11.1406,-11.2115,-11.2478,-11.2478,-11.1446,-11.0802,-11.0551,-11.0324,-11.0085,-11.0165,-11.144,-11.2084,-11.238,-11.3758,-11.4357,-11.4654,-11.4768,-11.4843,-11.5184,-11.5639,-11.617,-11.6508,-11.6861,-11.7006,-11.6809,-11.6704,-11.6462,-11.632,-11.6587,-11.7027,-11.7159,-11.7159,-11.7196,-11.6984,-11.655,-11.6185,-11.5883,-11.592,-11.5846,-11.592,-11.5883,-11.5846,-11.5993,-11.5993,-11.5993,-11.5956,-11.592,-11.592,-11.5956,-11.5993,-11.5993,-11.5956,-11.5956,-11.5993,-11.5993,-11.5993,-11.5956,-11.5479,-11.5149,-11.4929,-11.4892,-11.4965,-11.5296,-11.5663,-11.6103,-11.6103,-11.614,-11.6287,-11.6434,-11.6397,-11.6397,-11.6617,-11.7021,-11.7168,-11.7278,-11.7094,-11.658,-11.6434,-11.6507,-11.6213,-11.5846,-11.5883,-11.5589,-11.5039,-11.4672,-11.4635,-11.4672,-11.4708,-11.4892,-11.5039,-11.5075,-11.5185,-11.5002,-11.4818,-11.3827,-11.3167,-11.3093,-11.2983,-11.2506,-11.2286,-11.2396,-11.2233,-11.1869,-11.1149,-11.0252,-10.9144,-10.8021,-10.6328,-10.4333,-10.3782,-10.3686,-10.7059,-10.8021,-10.8059,-10.9021,-11.0538,-11.123,-11.1485,-11.1385,-11.0878,-11.0589,-11.0324,-11.0243,-10.9999,-10.9916,-11.0977,-11.1667,-11.2531,-11.3365,-11.4161,-11.4578,-11.4805,-11.5222,-11.5639,-11.6056,-11.6776,-11.7246,-11.7442,-11.7267,-11.7286,-11.6942,-11.6594,-11.6726,-11.6454,-11.6594,-11.6638,-11.6543,-11.6719,-11.6682,-11.6275,-11.6085,-11.5993,-11.5993,-11.5993,-11.5993,-11.5993,-11.5993,-11.5993,-11.5993,-11.5993,-11.5993,-11.5993,-11.5993,-11.5993,-11.5993,-11.5993,-11.5993,-11.5993,-11.5993,-11.5993,-11.5993,-11.603,-11.6066,-11.5736,-11.5736,-11.5663,-11.5626,-11.5699,-11.6103,-11.6507,-11.6617,-11.6874,-11.7094,-11.7204,-11.7278,-11.7314,-11.7571,-11.7938,-11.8049,-11.8159,-11.7938,-11.7425,-11.7204,-11.7241,-11.6654,-11.636,-11.6544,-11.636,-11.5773,-11.5516,-11.5479,-11.5553,-11.5553,-11.5883,-11.6177,-11.6066,-11.614,-11.5846,-11.5479,-11.4451,-11.3827,-11.3974,-11.3754,-11.313,-11.291,-11.3057,-11.3093,-11.3003,-11.219,-11.1417,-11.0089,-10.8966,-10.7177,-10.5662,-10.4922,-10.4464,-10.6905,-10.7636,-10.7713,-10.8675,-11.0094,-11.0663,-11.0864,-11.0815,-11.0525,-11.0351,-11.0159,-10.9807,-10.9727,-10.9886,-11.0529,-11.1292,-11.2342,-11.3251,-11.4047,-11.4654,-11.4805,-11.5336,-11.5867,-11.6473,-11.7345,-11.7821,-11.7863,-11.7485,-11.746,-11.6769,-11.6275,-11.6454,-11.6131,-11.6275,-11.6365,-11.6275,-11.6275,-11.632,-11.623,-11.6039,-11.5993,-11.5993,-11.5993,-11.5993,-11.5993,-11.5993,-11.5993,-11.5993,-11.5993,-11.5993,-11.5993,-11.5993,-11.6103,-11.625,-11.647,-11.658,-11.6947,-11.7058,-11.7094,-11.669,-11.6544,-11.6397,-11.6213,-11.5993,-11.5956,-11.5883,-11.6177,-11.6544,-11.6911,-11.7314,-11.7682,-11.8049,-11.8195,-11.8342,-11.8489,-11.8673,-11.8819,-11.9003,-11.893,-11.8819,-11.8599,-11.8306,-11.7902,-11.7241,-11.6837,-11.6911,-11.6801,-11.636,-11.6213,-11.6323,-11.647,-11.658,-11.7021,-11.7461,-11.7204,-11.6764,-11.6323,-11.581,-11.5039,-11.4598,-11.4818,-11.4598,-11.4011,-11.3791,-11.3717,-11.3717,-11.3599,-11.3359,-11.2618,-11.1212,-10.972,-10.8218,-10.6718,-10.564,-10.5377,-10.6867,-10.7598,-10.7752,-10.8654,-10.9974,-11.0419,-11.0614,-11.0563,-11.0297,-11.0132,-10.9932,-10.9252,-10.9258,-10.9604,-10.9981,-11.1015,-11.2029,-11.3024,-11.3858,-11.4768,-11.4805,-11.526,-11.6094,-11.689,-11.7514,-11.8051,-11.8053,-11.7587,-11.7256,-11.6638,-11.6039,-11.5993,-11.6039,-11.6131,-11.6131,-11.6085,-11.6158,-11.6379,-11.6195,-11.5993,-11.5993,-11.5993,-11.5993,-11.5993,-11.5993,-11.5993,-11.5993,-11.5993,-11.5993,-11.5993,-11.5993,-11.5993,-11.6213,-11.669,-11.6984,-11.7351,-11.7682,-11.7938,-11.7865,-11.7571,-11.7351,-11.7058,-11.6654,-11.658,-11.6654,-11.6434,-11.6617,-11.7058,-11.7461,-11.8049,-11.8526,-11.9003,-11.926,-11.9554,-11.9774,-12.0251,-12.0728,-12.0618,-12.0178,-11.9921,-11.937,-11.915,-11.9003,-11.8416,-11.7792,-11.7571,-11.7094,-11.6764,-11.6801,-11.6947,-11.7241,-11.7425,-11.7718,-11.7938,-11.7535,-11.7058,-11.658,-11.5993,-11.5369,-11.5296,-11.5406,-11.5222,-11.4892,-11.4635,-11.4341,-11.4194,-11.4103,-11.398,-11.3281,-11.1391,-11.0078,-10.9102,-10.784,-10.642,-10.6088,-10.6521,-10.6828,-10.8098,-10.8782,-10.9083,-11.0154,-11.0446,-11.027,-11.0028,-10.9674,-10.9296,-10.9028,-10.8963,-10.9174,-10.9264,-11.0294,-11.1984,-11.2645,-11.3517,-11.4319,-11.4698,-11.5279,-11.6031,-11.6767,-11.743,-11.7737,-11.7718,-11.7371,-11.6726,-11.6185,-11.5993,-11.5993,-11.5993,-11.5993,-11.5993,-11.603,-11.6323,-11.669,-11.6507,-11.6287,-11.625,-11.6103,-11.5993,-11.5993,-11.5993,-11.5993,-11.5993,-11.5993,-11.5993,-11.5993,-11.5993,-11.5993,-11.603,-11.6801,-11.7168,-11.7351,-11.8159,-11.8563,-11.8563,-11.8379,-11.8159,-11.8085,-11.7865,-11.7865,-11.7682,-11.7204,-11.7168,-11.7608,-11.8085,-11.8746,-11.9407,-11.9921,-12.0435,-12.0765,-12.1095,-12.1829,-12.2527,-12.205,-12.1499,-12.0912,-12.0288,-11.9957,-11.9884,-11.9517,-11.893,-11.8269,-11.7535,-11.7131,-11.7204,-11.7351,-11.7828,-11.8012,-11.8085,-11.8159,-11.7755,-11.7278,-11.669,-11.6287,-11.5736,-11.581,-11.5956,-11.5699,-11.5369,-11.5185,-11.4965,-11.4892,-11.491,-11.4941,-11.3892,-11.1943,-11.0453,-10.9583,-10.8213,-10.6728,-10.673,-10.6405,-10.6559,-10.7829,-10.8432,-10.8684,-10.9607,-11.0115,-11.0121,-10.9912,-10.9328,-10.8667,-10.8562,-10.8664,-10.8765,-10.8701,-10.9777,-11.1606,-11.219,-11.3062,-11.3941,-11.4508,-11.5247,-11.5932,-11.6477,-11.7145,-11.7456,-11.74,-11.699,-11.6176,-11.5993,-11.5993,-11.5993,-11.5993,-11.5993,-11.6066,-11.6323,-11.6727,-11.7131,-11.6984,-11.7021,-11.6837,-11.6507,-11.6066,-11.5993,-11.5993,-11.5993,-11.5993,-11.5993,-11.5993,-11.5993,-11.5993,-11.6323,-11.6654,-11.7388,-11.7938,-11.8452,-11.904,-11.9517,-11.9407,-11.9187,-11.8966,-11.893,-11.8526,-11.8269,-11.8306,-11.7975,-11.8379,-11.8783,-11.8856,-11.9407,-12.0508,-12.1205,-12.1683,-12.2086,-12.2343,-12.282,-12.3151,-12.3004,-12.2637,-12.2307,-12.1462,-12.0508,-12.0435,-12.0361,-11.9774,-11.9187,-11.8379,-11.7938,-11.7902,-11.7718,-11.8195,-11.8489,-11.8452,-11.8085,-11.7535,-11.7131,-11.669,-11.6323,-11.5993,-11.5993,-11.5993,-11.5993,-11.5846,-11.5626,-11.5553,-11.5699,-11.5698,-11.5442,-11.4468,-11.2626,-11.1219,-11.0043,-10.8563,-10.7267,-10.7067,-10.6405,-10.6521,-10.7287,-10.7889,-10.8393,-10.906,-10.9604,-10.9941,-10.9845,-10.9168,-10.8213,-10.8141,-10.8424,-10.8493,-10.8565,-10.9707,-11.0732,-11.1629,-11.2607,-11.3303,-11.3651,-11.4503,-11.5273,-11.5807,-11.6629,-11.7059,-11.7043,-11.6638,-11.6039,-11.5993,-11.5993,-11.5993,-11.5993,-11.5993,-11.625,-11.6727,-11.7241,-11.7608,-11.7792,-11.8306,-11.7828,-11.7058,-11.647,-11.6213,-11.603,-11.5993,-11.5993,-11.6103,-11.614,-11.6103,-11.6213,-11.6764,-11.7388,-11.8122,-11.8709,-11.9297,-11.9994,-12.0471,-12.0545,-12.0067,-11.9884,-11.959,-11.8966,-11.8819,-11.8966,-11.9333,-11.9737,-11.9737,-11.9811,-12.0288,-12.1389,-12.2123,-12.26,-12.3298,-12.3555,-12.3775,-12.3922,-12.3885,-12.3591,-12.3334,-12.2307,-12.1205,-12.0875,-12.0875,-12.0508,-11.9921,-11.948,-11.9113,-11.8746,-11.8452,-11.8489,-11.8563,-11.8526,-11.8049,-11.7535,-11.6911,-11.6507,-11.6287,-11.5993,-11.5993,-11.5993,-11.5993,-11.5993,-11.5956,-11.5993,-11.5993,-11.5724,-11.5394,-11.4217,-11.3073,-11.1759,-11.0438,-10.9289,-10.8087,-10.7466,-10.6405,-10.6462,-10.7137,-10.7404,-10.7562,-10.8589,-10.9094,-10.9154,-10.9596,-10.9168,-10.8248,-10.807,-10.8177,-10.8284,-10.8664,-10.9578,-11.0704,-11.1394,-11.203,-11.2759,-11.3041,-11.3776,-11.4647,-11.5533,-11.6194,-11.656,-11.6594,-11.6185,-11.5993,-11.5993,-11.5993,-11.5993,-11.5993,-11.603,-11.614,-11.6764,-11.7571,-11.7975,-11.8452,-11.8893,-11.8893,-11.8085,-11.7204,-11.6764,-11.6323,-11.614,-11.614,-11.669,-11.647,-11.6397,-11.6654,-11.7388,-11.8085,-11.8819,-11.9333,-11.9811,-12.0545,-12.0802,-12.0728,-12.0618,-12.0435,-12.0618,-12.0251,-12.0324,-12.0618,-12.1059,-12.1132,-12.0802,-12.0875,-12.1169,-12.1976,-12.227,-12.2747,-12.3958,-12.4582,-12.4876,-12.506,-12.4546,-12.4032,-12.3408,-12.2564,-12.1683,-12.1022,-12.0985,-12.0875,-12.0361,-11.9957,-11.959,-11.948,-11.915,-11.8893,-11.8856,-11.8783,-11.8489,-11.8159,-11.6874,-11.6323,-11.614,-11.5993,-11.5993,-11.5993,-11.5993,-11.5993,-11.5993,-11.5993,-11.5993,-11.5678,-11.5346,-11.4354,-11.3251,-11.2054,-11.0863,-10.9853,-10.9,-10.8433]},{"header":{"parameterUnit":"m.s-1","parameterCategory":1,"la1":31.0,"la2":29.5877,"lo1":-88.7671,"lo2":-86.6584,"dy":0.0162,"dx":0.0185,"nx":115,"ny":88,"refTime":"2024-03-25T00:00:00:Z","depth":0,"parameterNumber":3,"parameterNumberName":"V-component_of_WINDS"},"data":[0.0,0.0,0.0,0.0,0.0,0.0,0.0,0.0,0.0,0.0,0.0,0.0,0.0,0.0,0.0,0.0,0.0,0.0,0.0,0.0,0.0,0.0,0.0,0.0,0.0,0.0,0.0,0.0,0.0,0.0,0.0,0.0,0.0,0.0,0.0,0.0,0.0,0.0,0.0,0.0,0.0,0.0,0.0,0.0,0.0,0.0,0.0,0.0,0.0,0.0,0.0,0.0,0.0,0.0,0.0,0.0,0.0,0.0,0.0,0.0,0.0,0.0,0.0,0.0,0.0,0.0,0.0,0.0,0.0,0.0,0.0,0.0,0.0,0.0,0.0,0.0,0.0,0.0,0.0,0.0,0.0,0.0,0.0,0.0,0.0,0.0,0.0,0.0,0.0,0.0,0.0,0.0,0.0,0.0,0.0,0.0,0.0,0.0,0.0,0.0,0.0,0.0,0.0,0.0,0.0,0.0,0.0,0.0,0.0,0.0,0.0,0.0,0.0,0.0,0.0,0.0,0.0,0.0,0.0,0.0,0.0,0.0,0.0,0.0,0.0,0.0,0.0,0.0,0.0,0.0,0.0,0.0,0.0,0.0,0.0,0.0,0.0,0.0,0.0,0.0,0.0,0.0,0.0,0.0,0.0,0.0,0.0,0.0,0.0,0.0,0.0,0.0,0.0,0.0,0.0,0.0,0.0,0.0,0.0,0.0,0.0,0.0,0.0,0.0,0.0,0.0,0.0,0.0,0.0,0.0,0.0,0.0,0.0,0.0,0.0,0.0,0.0,0.0,0.0,0.0,0.0,0.0,0.0,0.0,0.0,0.0,0.0,0.0,0.0,0.0,0.0,0.0,0.0,0.0,0.0,0.0,0.0,0.0,0.0,0.0,0.0,0.0,0.0,0.0,0.0,0.0,0.0,0.0,0.0,0.0,0.0,0.0,0.0,0.0,0.0,0.0,0.0,0.0,0.0,0.0,0.0,0.0,0.0,0.0,0.0,0.0,0.0,0.0,0.0,0.0,0.0,0.0,0.0,0.0,0.0,0.0,0.0,0.0,0.0,0.0,0.0,0.0,0.0,0.0,0.0,0.0,0.0,0.0,0.0,0.0,0.0,0.0,0.0,0.0,0.0,0.0,0.0,0.0,0.0,0.0,0.0,0.0,0.0,0.0,0.0,0.0,0.0,0.0,0.0,0.0,0.0,0.0,0.0,0.0,0.0,0.0,0.0,0.0,0.0,0.0,0.0,0.0,0.0,0.0,0.0,0.0,0.0,0.0,0.0,0.0,0.0,0.0,0.0,0.0,0.0,0.0,0.0,0.0,0.0,0.0,0.0,0.0,0.0,0.0,0.0,0.0,0.0,0.0,0.0,0.0,0.0,0.0,0.0,0.0,0.0,0.0,0.0,0.0,0.0,0.0,0.0,0.0,0.0,0.0,0.0,0.0,0.0,0.0,0.0,0.0,0.0,0.0,0.0,0.0,0.0,0.0,0.0,0.0,0.0,0.0,0.0,0.0,0.0,0.0,0.0,0.0,0.0,0.0,0.0,0.0,0.0,0.0,0.0,0.0,0.0,0.0,0.0,0.0,0.0,0.0,0.0,0.0,0.0,0.0,0.0,0.0,0.0,0.0,0.0,0.0,0.0,0.0,0.0,0.0,0.0,0.0,0.0,0.0,0.0,0.0,0.0,0.0,0.0,0.0,0.0,0.0,0.0,0.0,0.0,0.0,0.0,0.0,0.0,0.0,0.0,0.0,0.0,0.0,0.0,0.0,0.0,0.0,0.0,0.0,0.0,0.0,0.0,0.0,0.0,0.0,0.0,0.0,0.0,0.0,0.0,0.0,0.0,0.0,0.0,0.0,0.0,0.0,0.0,0.0,0.0,0.0,0.0,0.0,0.0,0.0,0.0,0.0,0.0,0.0,0.0,0.0,0.0,0.0,0.0,0.0,0.0,0.0,0.0,0.0,0.0,0.0,0.0,0.0,0.0,0.0,0.0,0.0,0.0,0.0,0.0,0.0,0.0,0.0,0.0,0.0,0.0,0.0,0.0,0.0,0.0,0.0,0.0,0.0,0.0,0.0,0.0,0.0,0.0,0.0,0.0,0.0,0.0,0.0,0.0,0.0,0.0,0.0,0.0,0.0,0.0,0.0,0.0,0.0,0.0,0.0,0.0,0.0,0.0,0.0,0.0,0.0,0.0,0.0,0.0,0.0,0.0,0.0,0.0,0.0,0.0,0.0,0.0,0.0,0.0,0.0,0.0,0.0,0.0,0.0,0.0,0.0,0.0,0.0,0.0,0.0,0.0,0.0,0.0,0.0,0.0,0.0,0.0,0.0,0.0,0.0,0.0,0.0,0.0,0.0,0.0,0.0,0.0,0.0,0.0,0.0,0.0,0.0,0.0,0.0,0.0,0.0,0.0,0.0,0.0,0.0,0.0,0.0,0.0,0.0,0.0,0.0,0.0,0.0,0.0,0.0,0.0,0.0,0.0,0.0,0.0,0.0,0.0,0.0,0.0,0.0,0.0,0.0,0.0,0.0,0.0,0.0,0.0,0.0,0.0,0.0,0.0,0.0,0.0,0.0,0.0,0.0,0.0,0.0,0.0,0.0,0.0,0.0,0.0,0.0,0.0,0.0,0.0,0.0,0.0,0.0,0.0,0.0,0.0,0.0,0.0,0.0,0.0,0.0,0.0,0.0,0.0,0.0,0.0,0.0,0.0,0.0,0.0,0.0,0.0,0.0,0.0,0.0,0.0,0.0,0.0,0.0,0.0,0.0,0.0,0.0,0.0,0.0,0.0,0.0,0.0,0.0,0.0,0.0,0.0,0.0,0.0,0.0,0.0,0.0,0.0,0.0,0.0,0.0,0.0,0.0,0.0,0.0,0.0,0.0,0.0,0.0,0.0,0.0,0.0,0.0,0.0,0.0,0.0,0.0,0.0,0.0,0.0,0.0,0.0,0.0,0.0,0.0,0.0,0.0,0.0,0.0,0.0,0.0,0.0,0.0,0.0,0.0,0.0,0.0,0.0,0.0,0.0,0.0,0.0,0.0,0.0,0.0,0.0,0.0,0.0,0.0,0.0,0.0,0.0,0.0,0.0,0.0,0.0,0.0,0.0,0.0,0.0,0.0,0.0,0.0,0.0,0.0,0.0,0.0,0.0,0.0,0.0,0.0,0.0,0.0,0.0,0.0,0.0,0.0,0.0,0.0,0.0,0.0,0.0,0.0,0.0,0.0,0.0,0.0,0.0,0.0,0.0,0.0,0.0,0.0,0.0,0.0,0.0,0.0,0.0,0.0,0.0,0.0,0.0,0.0,0.0,0.0,0.0,0.0,0.0,0.0,0.0,0.0,0.0,0.0,0.0,0.0,0.0,0.0,0.0,0.0,0.0,0.0,0.0,0.0,0.0,0.0,0.0,0.0,0.0,0.0,0.0,0.0,0.0,0.0,0.0,0.0,0.0,0.0,0.0,0.0,0.0,0.0,0.0,0.0,0.0,0.0,0.0,0.0,0.0,0.0,0.0,0.0,0.0,0.0,0.0,0.0,0.0,0.0,0.0,0.0,0.0,0.0,0.0,0.0,0.0,0.0,0.0,0.0,0.0,0.0,0.0,0.0,0.0,0.0,0.0,0.0,0.0,0.0,0.0,0.0,0.0,0.0,0.0,0.0,0.0,0.0,0.0,0.0,0.0,0.0,0.0,0.0,0.0,0.0,0.0,0.0,0.0,0.0,0.0,0.0,0.0,0.0,0.0,0.0,0.0,0.0,0.0,0.0,0.0,0.0,0.0,0.0,0.0,0.0,0.0,0.0,0.0,0.0,0.0,0.0,0.0,0.0,0.0,0.0,0.0,0.0,0.0,0.0,0.0,0.0,0.0,0.0,0.0,0.0,0.0,0.0,0.0,0.0,0.0,0.0,0.0,0.0,0.0,0.0,0.0,0.0,0.0,0.0,0.0,0.0,0.0,0.0,0.0,0.0,0.0,0.0,0.0,0.0,0.0,0.0,0.0,0.0,0.0,0.0,0.0,0.0,0.0,0.0,0.0,0.0,0.0,0.0,0.0,0.0,0.0,0.0,0.0,0.0,0.0,0.0,0.0,0.0,0.0,0.0,0.0,0.0,0.0,0.0,0.0,0.0,0.0,0.0,0.0,0.0,0.0,0.0,0.0,0.0,0.0,0.0,0.0,0.0,0.0,0.0,0.0,0.0,0.0,0.0,0.0,0.0,0.0,0.0,0.0,0.0,0.0,0.0,2.1791,0.0,0.0,0.0,2.9221,0.0,0.0,0.0,0.0,0.0,0.0,0.0,0.0,0.0,0.0,0.0,0.0,0.0,0.0,0.0,0.0,0.0,0.0,0.0,0.0,0.0,0.0,0.0,0.0,0.0,0.0,0.0,0.0,0.0,0.0,0.0,0.0,0.0,0.0,0.0,0.0,0.0,0.0,0.0,0.0,0.0,0.0,0.0,0.0,0.0,0.0,0.0,0.0,0.0,0.0,0.0,0.0,0.0,0.0,0.0,0.0,0.0,0.0,0.0,0.0,0.0,0.0,0.0,0.0,0.0,0.0,0.0,0.0,0.0,0.0,0.0,0.0,0.0,0.0,0.0,0.0,0.0,0.0,0.0,0.0,0.0,0.0,0.0,0.0,0.0,0.0,0.0,0.0,0.0,0.0,0.0,0.0,0.0,0.0,0.0,0.0,0.0,0.0,0.0,0.0,0.0,0.0,0.0,0.0,0.0,0.0,0.0,0.0,0.0,0.0,2.203,2.2794,2.3819,2.5867,2.9221,0.0,0.0,0.0,0.0,0.0,0.0,0.0,0.0,0.0,0.0,0.0,0.0,0.0,0.0,0.0,0.0,0.0,0.0,0.0,0.0,0.0,0.0,0.0,0.0,0.0,0.0,0.0,0.0,0.0,0.0,0.0,0.0,0.0,0.0,0.0,0.0,0.0,0.0,0.0,0.0,0.0,0.0,0.0,0.0,0.0,0.0,0.0,0.0,0.0,0.0,0.0,0.0,0.0,0.0,0.0,0.0,0.0,0.0,0.0,0.0,0.0,0.0,0.0,0.0,0.0,0.0,0.0,0.0,0.0,0.0,0.0,0.0,0.0,0.0,0.0,0.0,0.0,0.0,0.0,0.0,0.0,0.0,0.0,0.0,0.0,0.0,0.0,0.0,0.0,0.0,0.0,0.0,0.0,0.0,0.0,0.0,0.0,0.0,0.0,0.0,0.0,0.0,0.0,0.0,0.0,0.0,0.0,0.0,0.0,0.0,0.0,0.0,2.4145,2.5948,2.9153,0.0,0.0,0.0,0.0,0.0,0.0,0.0,0.0,0.0,0.0,0.0,0.0,0.0,0.0,0.0,0.0,0.0,0.0,0.0,0.0,0.0,0.0,0.0,0.0,0.0,0.0,0.0,0.0,0.0,0.0,0.0,0.0,0.0,0.0,0.0,0.0,0.0,0.0,0.0,0.0,0.0,0.0,0.0,0.0,0.0,0.0,0.0,0.0,0.0,0.0,0.0,0.0,0.0,0.0,0.0,0.0,0.0,0.0,0.0,0.0,0.0,0.0,0.0,0.0,0.0,0.0,0.0,0.0,0.0,0.0,0.0,0.0,0.0,0.0,0.0,0.0,0.0,0.0,0.0,0.0,0.0,0.0,0.0,0.0,0.0,0.0,0.0,0.0,0.0,0.0,0.0,0.0,0.0,0.0,0.0,0.0,0.0,0.0,0.0,0.0,0.0,0.0,0.0,0.0,0.0,0.0,0.0,0.0,0.0,0.0,2.4015,2.3989,2.502,0.0,2.9505,0.0,0.0,0.0,0.0,0.0,0.0,0.0,0.0,0.0,0.0,0.0,0.0,0.0,0.0,0.0,0.0,0.0,0.0,0.0,0.0,0.0,0.0,0.0,0.0,0.0,0.0,0.0,0.0,0.0,0.0,0.0,0.0,0.0,0.0,0.0,0.0,0.0,0.0,0.0,0.0,0.0,0.0,0.0,0.0,0.0,0.0,0.0,0.0,0.0,0.0,0.0,0.0,0.0,0.0,0.0,0.0,0.0,0.0,0.0,0.0,0.0,0.0,0.0,0.0,0.0,0.0,0.0,0.0,0.0,0.0,0.0,0.0,0.0,0.0,0.0,0.0,0.0,0.0,0.0,0.0,0.0,0.0,0.0,0.0,0.0,0.0,0.0,0.0,0.0,0.0,0.0,0.0,0.0,0.0,0.0,0.0,0.0,0.0,0.0,0.0,0.0,0.0,0.0,0.0,0.0,0.0,0.0,0.0,0.0,0.0,2.4311,2.5035,2.6985,2.8479,0.0,0.0,0.0,0.0,0.0,0.0,0.0,0.0,0.0,0.0,0.0,0.0,0.0,0.0,0.0,0.0,0.0,0.0,0.0,0.0,0.0,0.0,0.0,0.0,0.0,0.0,0.0,0.0,0.0,0.0,0.0,0.0,0.0,0.0,0.0,0.0,0.0,0.0,0.0,0.0,0.0,0.0,0.0,0.0,0.0,0.0,0.0,0.0,0.0,0.0,0.0,0.0,0.0,0.0,0.0,0.0,0.0,0.0,0.0,0.0,0.0,0.0,0.0,0.0,0.0,0.0,0.0,0.0,0.0,0.0,0.0,0.0,0.0,0.0,0.0,0.0,0.0,0.0,0.0,0.0,0.0,0.0,0.0,0.0,0.0,0.0,0.0,0.0,0.0,0.0,0.0,0.0,0.0,0.0,0.0,0.0,0.0,0.0,0.0,0.0,0.0,0.0,0.0,0.0,0.0,0.0,0.0,0.0,0.0,0.0,2.4245,2.4767,2.5893,2.8326,2.9505,2.9357,0.0,0.0,0.0,0.0,0.0,0.0,0.0,0.0,0.0,0.0,0.0,0.0,0.0,0.0,0.0,0.0,0.0,0.0,0.0,0.0,0.0,0.0,0.0,0.0,0.0,0.0,0.0,0.0,0.0,0.0,0.0,0.0,0.0,0.0,0.0,0.0,0.0,0.0,0.0,0.0,0.0,0.0,0.0,0.0,0.0,0.0,0.0,0.0,0.0,0.0,0.0,0.0,0.0,0.0,0.0,0.0,0.0,0.0,0.0,0.0,0.0,0.0,0.0,0.0,0.0,0.0,0.0,0.0,0.0,0.0,0.0,0.0,0.0,0.0,0.0,0.0,0.0,0.0,0.0,0.0,0.0,0.0,0.0,0.0,0.0,0.0,0.0,0.0,0.0,0.0,0.0,0.0,0.0,0.0,0.0,0.0,0.0,0.0,0.0,0.0,0.0,0.0,0.0,0.0,0.0,0.0,0.0,0.0,2.418,2.5112,2.5705,2.593,2.8476,2.9702,0.0,0.0,0.0,0.0,0.0,0.0,0.0,0.0,0.0,0.0,0.0,0.0,0.0,0.0,0.0,0.0,0.0,0.0,0.0,0.0,0.0,0.0,0.0,0.0,0.0,0.0,0.0,0.0,0.0,0.0,0.0,0.0,0.0,0.0,0.0,0.0,0.0,0.0,0.0,0.0,0.0,0.0,0.0,0.0,0.0,0.0,0.0,0.0,0.0,0.0,0.0,0.0,0.0,0.0,0.0,0.0,0.0,0.0,0.0,0.0,0.0,0.0,0.0,0.0,0.0,0.0,0.0,0.0,0.0,0.0,0.0,0.0,0.0,0.0,0.0,0.0,0.0,0.0,0.0,0.0,0.0,0.0,0.0,0.0,0.0,0.0,0.0,0.0,0.0,0.0,0.0,0.0,0.0,0.0,0.0,0.0,0.0,0.0,0.0,0.0,0.0,0.0,0.0,0.0,0.0,0.0,0.0,0.0,0.0,2.4661,2.5254,2.6237,2.7458,2.8988,3.0115,0.0,0.0,0.0,0.0,0.0,0.0,0.0,0.0,0.0,0.0,0.0,0.0,0.0,0.0,0.0,0.0,0.0,0.0,0.0,0.0,0.0,0.0,0.0,0.0,0.0,0.0,0.0,0.0,0.0,0.0,0.0,0.0,0.0,0.0,0.0,0.0,0.0,0.0,0.0,0.0,0.0,0.0,0.0,0.0,0.0,0.0,0.0,0.0,0.0,0.0,0.0,0.0,0.0,0.0,0.0,0.0,0.0,0.0,0.0,0.0,0.0,0.0,0.0,0.0,0.0,0.0,0.0,0.0,0.0,0.0,0.0,0.0,0.0,0.0,0.0,0.0,0.0,0.0,0.0,0.0,0.0,0.0,0.0,0.0,0.0,0.0,0.0,0.0,0.0,0.0,0.0,0.0,0.0,0.0,0.0,0.0,0.0,0.0,0.0,0.0,0.0,0.0,0.0,0.0,0.0,0.0,0.0,0.0,0.0,2.509,0.0,2.7074,2.8342,2.9799,3.1034,0.0,0.0,0.0,0.0,0.0,0.0,0.0,0.0,0.0,0.0,0.0,0.0,0.0,0.0,0.0,0.0,0.0,0.0,0.0,0.0,0.0,0.0,0.0,0.0,0.0,0.0,0.0,0.0,0.0,0.0,0.0,0.0,0.0,0.0,0.0,0.0,0.0,0.0,0.0,0.0,0.0,0.0,0.0,0.0,0.0,0.0,0.0,0.0,0.0,0.0,0.0,0.0,0.0,0.0,0.0,0.0,0.0,0.0,0.0,0.0,0.0,0.0,0.0,0.0,0.0,0.0,0.0,0.0,0.0,0.0,0.0,0.0,0.0,0.0,0.0,0.0,0.0,0.0,0.0,0.0,0.0,0.0,0.0,0.0,0.0,0.0,0.0,0.0,0.0,0.0,0.0,0.0,0.0,0.0,0.0,0.0,0.0,0.0,0.0,0.0,0.0,0.0,0.0,0.0,0.0,0.0,0.0,0.0,2.509,2.5487,2.7347,2.8373,2.8286,3.0971,3.2239,0.0,0.0,0.0,0.0,0.0,0.0,0.0,0.0,0.0,0.0,0.0,0.0,0.0,0.0,0.0,0.0,0.0,0.0,0.0,0.0,0.0,0.0,0.0,0.0,0.0,0.0,0.0,0.0,0.0,0.0,0.0,0.0,0.0,0.0,0.0,0.0,0.0,0.0,0.0,0.0,0.0,0.0,0.0,0.0,0.0,0.0,0.0,0.0,0.0,0.0,0.0,0.0,0.0,0.0,0.0,0.0,0.0,0.0,0.0,0.0,0.0,0.0,0.0,0.0,0.0,0.0,0.0,0.0,0.0,0.0,0.0,0.0,0.0,0.0,0.0,0.0,0.0,0.0,0.0,0.0,0.0,0.0,0.0,0.0,0.0,0.0,0.0,0.0,0.0,0.0,0.0,0.0,0.0,0.0,0.0,0.0,0.0,0.0,0.0,0.0,0.0,0.0,0.0,0.0,0.0,0.0,0.0,0.0,0.0,2.5496,2.7186,2.9117,3.1293,3.2012,3.3104,0.0,0.0,0.0,0.0,0.0,0.0,0.0,0.0,0.0,0.0,0.0,0.0,0.0,0.0,0.0,0.0,0.0,0.0,0.0,0.0,0.0,0.0,0.0,0.0,0.0,0.0,0.0,0.0,0.0,0.0,0.0,0.0,0.0,0.0,0.0,0.0,0.0,0.0,0.0,0.0,0.0,0.0,0.0,0.0,0.0,0.0,0.0,0.0,0.0,0.0,0.0,0.0,0.0,0.0,0.0,0.0,0.0,0.0,0.0,0.0,0.0,0.0,0.0,0.0,0.0,0.0,0.0,0.0,0.0,0.0,0.0,0.0,0.0,0.0,0.0,0.0,0.0,0.0,0.0,0.0,0.0,0.0,0.0,0.0,0.0,0.0,0.0,0.0,0.0,0.0,0.0,0.0,0.0,0.0,0.0,0.0,0.0,0.0,0.0,0.0,0.0,0.0,0.0,0.0,0.0,0.0,0.0,0.0,0.0,2.7296,2.8796,3.0846,3.3531,3.3749,3.4458,3.5805,0.0,0.0,0.0,0.0,0.0,0.0,0.0,0.0,0.0,0.0,0.0,0.0,0.0,0.0,0.0,0.0,0.0,0.0,0.0,0.0,0.0,0.0,0.0,0.0,0.0,0.0,0.0,0.0,0.0,0.0,0.0,0.0,0.0,0.0,0.0,0.0,0.0,0.0,0.0,0.0,0.0,0.0,0.0,0.0,0.0,0.0,0.0,0.0,0.0,0.0,0.0,0.0,0.0,0.0,0.0,0.0,0.0,0.0,0.0,0.0,0.0,0.0,0.0,0.0,0.0,0.0,0.0,0.0,0.0,0.0,0.0,0.0,0.0,0.0,0.0,0.0,0.0,0.0,0.0,0.0,0.0,0.0,0.0,0.0,0.0,0.0,0.0,0.0,0.0,0.0,0.0,0.0,0.0,0.0,0.0,0.0,0.0,0.0,0.0,0.0,0.0,0.0,0.0,0.0,0.0,0.0,0.0,0.0,3.0463,3.1957,3.3404,3.4891,3.5904,3.6019,0.0,0.0,0.0,0.0,0.0,0.0,0.0,0.0,0.0,0.0,0.0,0.0,0.0,0.0,0.0,0.0,0.0,0.0,0.0,0.0,0.0,0.0,0.0,0.0,0.0,0.0,0.0,0.0,0.0,0.0,0.0,0.0,0.0,0.0,0.0,0.0,0.0,0.0,0.0,0.0,0.0,0.0,0.0,0.0,0.0,0.0,0.0,0.0,0.0,0.0,0.0,0.0,0.0,0.0,0.0,0.0,0.0,0.0,0.0,0.0,0.0,0.0,0.0,0.0,0.0,0.0,0.0,0.0,0.0,0.0,0.0,0.0,0.0,0.0,0.0,0.0,0.0,0.0,0.0,0.0,0.0,0.0,0.0,0.0,0.0,0.0,0.0,0.0,0.0,0.0,0.0,0.0,0.0,0.0,0.0,0.0,0.0,0.0,0.0,0.0,0.0,0.0,0.0,0.0,0.0,0.0,0.0,0.0,0.0,3.282,3.5537,3.7089,3.7156,3.6892,3.678,0.0,0.0,0.0,0.0,0.0,0.0,0.0,0.0,0.0,0.0,0.0,0.0,0.0,0.0,0.0,0.0,0.0,0.0,0.0,0.0,0.0,0.0,0.0,0.0,0.0,0.0,0.0,0.0,0.0,0.0,0.0,0.0,0.0,0.0,0.0,0.0,0.0,0.0,0.0,0.0,0.0,0.0,0.0,0.0,0.0,0.0,0.0,0.0,0.0,0.0,0.0,0.0,0.0,0.0,0.0,0.0,0.0,0.0,0.0,0.0,0.0,0.0,0.0,0.0,0.0,0.0,0.0,0.0,0.0,0.0,0.0,0.0,0.0,0.0,0.0,0.0,0.0,0.0,0.0,0.0,0.0,0.0,0.0,0.0,0.0,0.0,0.0,0.0,0.0,0.0,0.0,0.0,0.0,0.0,0.0,0.0,0.0,0.0,0.0,0.0,0.0,0.0,0.0,0.0,0.0,0.0,0.0,0.0,3.1379,3.428,3.7528,3.9515,4.0004,3.9084,3.8157,0.0,0.0,0.0,0.0,0.0,0.0,0.0,0.0,0.0,0.0,0.0,0.0,0.0,0.0,0.0,0.0,0.0,0.0,0.0,0.0,0.0,0.0,0.0,0.0,0.0,0.0,0.0,0.0,0.0,0.0,0.0,0.0,0.0,0.0,0.0,0.0,0.0,0.0,0.0,0.0,0.0,0.0,0.0,0.0,0.0,0.0,0.0,0.0,0.0,0.0,0.0,0.0,0.0,0.0,0.0,0.0,0.0,0.0,0.0,0.0,0.0,0.0,0.0,0.0,0.0,0.0,0.0,0.0,0.0,0.0,0.0,0.0,0.0,0.0,0.0,0.0,0.0,0.0,0.0,0.0,0.0,0.0,0.0,0.0,0.0,0.0,0.0,0.0,0.0,0.0,0.0,0.0,0.0,0.0,0.0,0.0,0.0,0.0,0.0,0.0,0.0,0.0,0.0,0.0,0.0,0.0,0.0,0.0,3.2388,3.5233,3.8681,4.1222,4.2726,4.147,3.9599,0.0,0.0,0.0,0.0,0.0,0.0,0.0,0.0,0.0,0.0,0.0,0.0,0.0,0.0,0.0,0.0,0.0,0.0,0.0,0.0,0.0,0.0,0.0,0.0,0.0,0.0,0.0,0.0,0.0,0.0,0.0,0.0,0.0,0.0,0.0,0.0,0.0,0.0,0.0,0.0,0.0,0.0,0.0,0.0,0.0,0.0,0.0,0.0,0.0,0.0,0.0,0.0,0.0,0.0,0.0,0.0,0.0,0.0,0.0,0.0,0.0,0.0,0.0,0.0,0.0,0.0,0.0,0.0,0.0,0.0,0.0,0.0,0.0,0.0,0.0,0.0,0.0,0.0,0.0,0.0,0.0,0.0,0.0,0.0,0.0,0.0,0.0,0.0,0.0,0.0,0.0,0.0,0.0,0.0,0.0,0.0,0.0,0.0,0.0,0.0,0.0,0.0,0.0,0.0,0.0,0.0,0.0,0.0,3.4041,3.5756,4.0539,4.3268,4.334,4.1096,3.9172,0.0,0.0,0.0,0.0,0.0,0.0,0.0,0.0,0.0,0.0,0.0,0.0,0.0,0.0,0.0,0.0,0.0,0.0,0.0,0.0,0.0,0.0,0.0,0.0,0.0,0.0,0.0,0.0,0.0,0.0,0.0,0.0,0.0,0.0,0.0,0.0,0.0,0.0,0.0,0.0,0.0,0.0,0.0,0.0,0.0,0.0,0.0,0.0,4.096,0.0,0.0,0.0,0.0,0.0,0.0,0.0,0.0,0.0,0.0,0.0,0.0,0.0,0.0,0.0,0.0,0.0,0.0,0.0,0.0,0.0,0.0,0.0,0.0,0.0,0.0,0.0,0.0,0.0,0.0,0.0,0.0,0.0,0.0,0.0,0.0,0.0,0.0,0.0,0.0,0.0,0.0,0.0,0.0,0.0,0.0,0.0,0.0,0.0,0.0,0.0,0.0,0.0,0.0,0.0,0.0,0.0,0.0,0.0,3.5233,3.6153,4.1246,4.3848,4.3461,4.1243,3.9452,0.0,0.0,0.0,0.0,0.0,0.0,0.0,0.0,0.0,0.0,0.0,0.0,0.0,0.0,0.0,0.0,0.0,0.0,0.0,0.0,0.0,0.0,0.0,0.0,0.0,0.0,0.0,0.0,0.0,0.0,0.0,0.0,0.0,0.0,0.0,0.0,0.0,0.0,0.0,0.0,0.0,0.0,0.0,0.0,0.0,0.0,0.0,0.0,0.0,0.0,0.0,0.0,0.0,0.0,0.0,0.0,0.0,0.0,0.0,0.0,0.0,0.0,0.0,0.0,0.0,0.0,0.0,0.0,0.0,0.0,0.0,0.0,0.0,0.0,0.0,0.0,0.0,0.0,0.0,0.0,0.0,0.0,0.0,0.0,0.0,0.0,0.0,0.0,0.0,0.0,0.0,0.0,0.0,0.0,0.0,0.0,0.0,0.0,0.0,0.0,0.0,0.0,0.0,0.0,0.0,0.0,0.0,3.2137,3.5747,3.6778,4.1437,4.3795,4.3514,4.159,3.996,3.8731,0.0,0.0,0.0,0.0,0.0,0.0,0.0,0.0,0.0,0.0,0.0,0.0,0.0,0.0,0.0,0.0,0.0,0.0,0.0,0.0,0.0,0.0,0.0,0.0,0.0,0.0,0.0,0.0,0.0,0.0,0.0,0.0,0.0,0.0,0.0,0.0,0.0,0.0,3.8815,4.0941,0.0,0.0,0.0,0.0,0.0,0.0,0.0,0.0,4.2501,0.0,0.0,0.0,0.0,0.0,0.0,0.0,0.0,0.0,0.0,0.0,0.0,0.0,0.0,0.0,0.0,0.0,0.0,0.0,0.0,0.0,0.0,0.0,0.0,0.0,0.0,0.0,0.0,0.0,0.0,0.0,0.0,0.0,0.0,0.0,0.0,0.0,0.0,0.0,0.0,0.0,0.0,0.0,0.0,0.0,0.0,0.0,0.0,0.0,0.0,0.0,0.0,0.0,0.0,0.0,0.0,2.7821,3.2288,3.555,3.7509,4.1497,4.3581,4.3474,4.1777,4.0174,3.8744,0.0,0.0,0.0,0.0,0.0,0.0,0.0,0.0,0.0,0.0,0.0,0.0,0.0,0.0,0.0,0.0,0.0,0.0,0.0,0.0,0.0,0.0,0.0,0.0,0.0,0.0,0.0,0.0,0.0,0.0,0.0,0.0,0.0,0.0,0.0,0.0,0.0,0.0,0.0,4.389,4.6254,0.0,0.0,0.0,0.0,0.0,0.0,0.0,0.0,4.5079,0.0,0.0,0.0,0.0,0.0,0.0,0.0,0.0,0.0,0.0,0.0,0.0,0.0,0.0,0.0,0.0,0.0,0.0,0.0,0.0,0.0,0.0,0.0,0.0,0.0,0.0,0.0,0.0,0.0,0.0,0.0,0.0,0.0,0.0,0.0,0.0,0.0,0.0,0.0,0.0,0.0,0.0,0.0,0.0,0.0,0.0,0.0,0.0,0.0,0.0,0.0,0.0,0.0,0.0,0.0,2.7683,3.2637,3.5864,3.7164,4.1192,4.3233,4.3046,4.1082,3.9599,0.0,0.0,0.0,0.0,0.0,0.0,0.0,0.0,0.0,0.0,0.0,0.0,0.0,0.0,0.0,0.0,0.0,0.0,0.0,0.0,0.0,0.0,0.0,0.0,0.0,0.0,0.0,0.0,0.0,0.0,0.0,0.0,0.0,0.0,0.0,0.0,0.0,0.0,0.0,0.0,4.334,4.5604,4.6223,0.0,0.0,0.0,0.0,0.0,0.0,4.69,4.6747,0.0,0.0,0.0,0.0,0.0,0.0,0.0,0.0,0.0,0.0,0.0,0.0,0.0,0.0,0.0,0.0,0.0,0.0,0.0,0.0,0.0,0.0,0.0,0.0,0.0,0.0,0.0,0.0,0.0,0.0,0.0,0.0,0.0,0.0,0.0,0.0,0.0,0.0,0.0,0.0,0.0,0.0,0.0,0.0,0.0,0.0,0.0,0.0,0.0,0.0,0.0,0.0,0.0,0.0,0.0,2.7073,3.2811,3.6048,3.6727,4.0823,4.2873,4.2539,4.0414,3.9025,0.0,0.0,0.0,0.0,0.0,0.0,0.0,0.0,0.0,0.0,0.0,0.0,0.0,0.0,0.0,0.0,0.0,0.0,0.0,0.0,0.0,0.0,0.0,0.0,0.0,0.0,0.0,0.0,0.0,0.0,0.0,0.0,0.0,0.0,0.0,0.0,0.0,0.0,0.0,0.0,0.0,4.4344,4.7699,4.7328,0.0,0.0,0.0,0.0,4.9729,4.9671,0.0,0.0,0.0,0.0,0.0,0.0,0.0,0.0,0.0,0.0,0.0,0.0,0.0,0.0,0.0,0.0,0.0,0.0,0.0,0.0,0.0,0.0,0.0,0.0,0.0,0.0,0.0,0.0,0.0,0.0,0.0,0.0,0.0,0.0,0.0,0.0,0.0,0.0,0.0,0.0,0.0,0.0,0.0,0.0,0.0,0.0,0.0,0.0,0.0,0.0,0.0,0.0,0.0,0.0,0.0,0.0,2.7136,3.2286,3.5611,3.6803,4.0605,4.2565,4.2258,4.0495,3.9038,0.0,0.0,0.0,0.0,0.0,0.0,0.0,0.0,0.0,0.0,0.0,0.0,0.0,0.0,0.0,0.0,0.0,0.0,0.0,0.0,0.0,0.0,0.0,0.0,0.0,0.0,0.0,0.0,0.0,0.0,0.0,0.0,0.0,0.0,0.0,0.0,0.0,0.0,0.0,0.0,0.0,4.4775,4.7553,4.9043,4.9944,0.0,0.0,5.1562,5.0396,5.292,0.0,0.0,0.0,0.0,0.0,0.0,0.0,0.0,0.0,0.0,0.0,0.0,0.0,0.0,0.0,0.0,0.0,0.0,0.0,0.0,0.0,0.0,0.0,0.0,0.0,0.0,0.0,0.0,0.0,0.0,0.0,0.0,0.0,0.0,0.0,0.0,0.0,0.0,0.0,0.0,0.0,0.0,0.0,0.0,0.0,0.0,0.0,0.0,0.0,0.0,0.0,0.0,0.0,0.0,0.0,2.5451,2.7003,3.191,3.5153,3.6448,4.0123,4.2018,4.1724,3.968,3.8263,0.0,0.0,0.0,0.0,0.0,0.0,0.0,0.0,0.0,0.0,0.0,0.0,0.0,0.0,0.0,0.0,0.0,0.0,0.0,0.0,0.0,0.0,0.0,0.0,0.0,0.0,0.0,0.0,0.0,0.0,0.0,0.0,0.0,0.0,0.0,0.0,0.0,0.0,0.0,0.0,0.0,0.0,4.6661,4.8399,0.0,0.0,0.0,5.3877,5.3851,0.0,0.0,0.0,0.0,0.0,0.0,0.0,0.0,0.0,0.0,0.0,0.0,0.0,0.0,0.0,0.0,0.0,0.0,0.0,0.0,0.0,0.0,0.0,0.0,0.0,0.0,0.0,0.0,0.0,0.0,0.0,0.0,0.0,0.0,0.0,0.0,0.0,0.0,0.0,0.0,0.0,0.0,0.0,0.0,0.0,0.0,0.0,0.0,0.0,0.0,0.0,0.0,0.0,0.0,0.0,0.0,0.0,2.7494,3.1989,3.5028,3.6581,3.9868,4.1497,4.1109,3.9052,0.0,0.0,0.0,0.0,0.0,0.0,0.0,0.0,0.0,0.0,0.0,0.0,0.0,0.0,0.0,0.0,0.0,0.0,0.0,0.0,0.0,0.0,0.0,0.0,0.0,0.0,0.0,3.0047,0.0,0.0,0.0,0.0,0.0,0.0,0.0,0.0,0.0,0.0,0.0,0.0,0.0,0.0,4.2595,4.6233,4.8421,5.079,0.0,0.0,5.541,5.6152,5.6113,5.5488,0.0,0.0,0.0,0.0,0.0,0.0,0.0,0.0,0.0,0.0,0.0,0.0,0.0,0.0,0.0,0.0,0.0,0.0,0.0,0.0,0.0,0.0,0.0,0.0,0.0,0.0,0.0,0.0,1.7561,0.0,0.0,0.0,0.0,0.0,0.0,0.0,0.0,0.0,0.0,0.0,0.0,0.0,0.0,0.0,0.0,0.0,0.0,0.0,0.0,0.0,0.0,0.0,0.0,0.0,2.6525,2.9229,3.2849,3.5826,3.8087,4.0245,4.1109,4.0535,3.9038,3.7702,0.0,0.0,0.0,0.0,0.0,0.0,0.0,0.0,0.0,0.0,0.0,0.0,0.0,0.0,0.0,0.0,0.0,0.0,0.0,0.0,0.0,0.0,0.0,0.0,0.0,0.0,0.0,0.0,0.0,0.0,0.0,0.0,0.0,0.0,0.0,0.0,0.0,0.0,0.0,0.0,0.0,4.3656,4.6922,5.0346,5.3319,0.0,5.6172,5.6211,5.5508,5.7676,5.8086,5.4062,0.0,0.0,0.0,0.0,0.0,0.0,0.0,0.0,0.0,0.0,0.0,0.0,0.0,0.0,0.0,0.0,0.0,0.0,0.0,0.0,0.0,0.0,0.0,0.0,0.0,1.7209,1.7331,0.0,1.8241,0.0,0.0,0.0,0.0,0.0,0.0,0.0,0.0,0.0,0.0,0.0,0.0,0.0,0.0,0.0,0.0,0.0,0.0,0.0,0.0,0.0,0.0,0.0,0.0,2.6034,2.9417,3.2276,3.5205,3.825,3.9992,4.0615,4.0214,3.8597,3.7168,0.0,0.0,0.0,0.0,0.0,0.0,0.0,0.0,0.0,0.0,0.0,0.0,0.0,0.0,0.0,0.0,0.0,0.0,0.0,0.0,0.0,0.0,0.0,0.0,0.0,0.0,0.0,0.0,3.0421,3.0839,3.1715,0.0,0.0,0.0,0.0,0.0,0.0,0.0,0.0,0.0,0.0,4.3316,4.8176,5.0111,0.0,0.0,5.6699,5.6855,5.6523,5.6777,5.6289,5.4121,5.2851,0.0,0.0,0.0,0.0,0.0,0.0,0.0,0.0,0.0,0.0,0.0,0.0,0.0,0.0,0.0,0.0,0.0,0.0,0.0,0.0,0.0,0.0,0.0,0.0,0.0,0.0,1.7678,1.8803,0.0,0.0,0.0,0.0,0.0,0.0,0.0,0.0,0.0,0.0,0.0,0.0,0.0,0.0,0.0,0.0,0.0,0.0,0.0,0.0,0.0,0.0,0.0,0.0,2.6683,3.0214,3.2804,3.5548,3.8805,3.9805,4.012,3.9626,3.825,3.6927,0.0,0.0,0.0,0.0,0.0,0.0,0.0,0.0,0.0,0.0,0.0,0.0,0.0,0.0,0.0,0.0,0.0,0.0,0.0,0.0,0.0,0.0,0.0,0.0,0.0,0.0,0.0,0.0,3.0654,3.104,3.1575,0.0,0.0,0.0,0.0,0.0,0.0,0.0,0.0,0.0,0.0,4.3255,4.769,4.9687,5.2047,5.5574,5.6475,5.6836,5.6836,5.6074,5.5078,5.3828,0.0,0.0,0.0,0.0,0.0,0.0,0.0,0.0,0.0,0.0,0.0,0.0,0.0,0.0,0.0,0.0,0.0,0.0,0.0,0.0,0.0,0.0,0.0,0.0,0.0,0.0,0.0,1.8417,0.0,0.0,2.1397,0.0,0.0,0.0,0.0,0.0,0.0,0.0,0.0,0.0,0.0,0.0,0.0,0.0,0.0,0.0,0.0,0.0,0.0,0.0,0.0,0.0,0.0,2.8999,3.1994,3.476,3.7385,3.98,4.004,3.9626,3.8784,3.813,3.7114,3.5645,0.0,0.0,0.0,0.0,0.0,0.0,0.0,0.0,0.0,0.0,0.0,0.0,0.0,0.0,0.0,0.0,0.0,0.0,0.0,0.0,0.0,0.0,0.0,0.0,0.0,0.0,3.1557,3.1693,3.1513,0.0,0.0,0.0,0.0,0.0,0.0,0.0,0.0,0.0,3.7697,4.11,4.376,4.4972,4.9521,5.3182,5.4554,5.5395,5.5957,5.5957,5.5898,5.5195,0.0,0.0,0.0,0.0,0.0,0.0,0.0,0.0,0.0,0.0,0.0,0.0,0.0,0.0,0.0,0.0,0.0,0.0,0.0,0.0,0.0,0.0,0.0,0.0,0.0,0.0,0.0,2.1523,1.999,0.0,0.0,0.0,0.0,0.0,0.0,0.0,0.0,0.0,0.0,0.0,2.4797,2.4929,0.0,0.0,0.0,0.0,0.0,0.0,0.0,0.0,0.0,0.0,0.0,0.0,2.9225,3.3539,3.4824,3.6766,3.9294,3.9265,3.8931,3.8424,3.7649,3.6553,3.5084,0.0,0.0,0.0,0.0,0.0,0.0,0.0,0.0,0.0,0.0,0.0,0.0,0.0,0.0,0.0,0.0,0.0,0.0,0.0,0.0,0.0,0.0,0.0,0.0,0.0,3.1049,0.0,0.0,0.0,0.0,0.0,0.0,0.0,0.0,0.0,0.0,3.4647,3.6034,3.7695,4.0391,4.3037,4.5082,4.8264,5.1216,0.0,0.0,0.0,0.0,0.0,0.0,0.0,0.0,0.0,0.0,0.0,0.0,0.0,0.0,5.4141,5.1152,5.0137,5.0,5.084,0.0,0.0,0.0,0.0,0.0,0.0,0.0,0.0,0.0,0.0,0.0,0.0,0.0,0.0,2.4921,2.3593,2.3518,0.0,0.0,0.0,0.0,0.0,0.0,0.0,0.0,2.5184,2.5572,2.5638,2.577,2.5581,2.5137,2.5194,2.4769,0.0,0.0,0.0,0.0,0.0,0.0,0.0,0.0,3.056,3.4035,3.5282,3.6894,3.8682,3.8651,3.837,3.7956,3.6994,3.5992,3.4937,3.3961,3.3307,0.0,0.0,0.0,0.0,0.0,0.0,0.0,0.0,0.0,0.0,0.0,0.0,0.0,0.0,0.0,0.0,0.0,0.0,0.0,0.0,0.0,0.0,0.0,3.1049,0.0,0.0,0.0,0.0,0.0,0.0,0.0,0.0,0.0,3.3987,3.5267,3.6814,3.8293,3.9826,4.1651,4.394,0.0,0.0,0.0,0.0,0.0,0.0,0.0,5.416,5.3867,5.3828,5.4121,5.498,5.6152,5.6758,5.6055,0.0,0.0,5.2695,5.1601,5.1406,5.2363,5.2226,5.2305,5.3574,5.3945,5.4121,0.0,0.0,0.0,0.0,2.9482,0.0,0.0,0.0,2.807,2.8706,0.0,2.9112,0.0,0.0,0.0,0.0,2.3739,2.4693,0.0,0.0,2.6243,2.664,2.647,2.646,2.6347,2.6158,2.6318,2.5874,2.4873,2.4069,2.3663,0.0,0.0,0.0,0.0,0.0,3.2717,3.3768,3.6139,3.7649,3.821,3.8223,3.7956,3.7355,3.6259,3.5525,3.5191,3.4629,3.4202,3.3921,3.3601,0.0,0.0,0.0,0.0,0.0,0.0,0.0,0.0,0.0,0.0,0.0,0.0,0.0,0.0,0.0,0.0,0.0,0.0,0.0,0.0,3.149,0.0,0.0,0.0,0.0,0.0,0.0,0.0,0.0,0.0,3.4084,3.5642,3.6003,3.7025,3.9523,0.0,0.0,0.0,0.0,4.4829,4.5746,4.9256,5.195,5.1825,5.4109,5.5625,5.4844,0.0,0.0,5.6015,5.6387,5.6601,5.6133,5.6133,5.6015,5.5996,5.4805,5.416,5.459,5.4355,5.4277,5.4707,5.5254,5.5527,3.6185,0.0,0.0,0.0,0.0,3.3479,3.3147,3.1693,3.3011,3.2408,3.0593,3.0419,0.0,0.0,0.0,0.0,0.0,0.0,2.5222,2.5666,2.6262,2.6668,2.6904,2.6904,2.6706,2.6366,2.6262,2.5836,2.5228,2.5997,2.6079,2.5622,0.0,0.0,0.0,0.0,3.3645,3.5576,3.6613,3.7248,3.7635,3.7635,3.7355,3.6767,3.6233,3.5712,3.5217,3.483,3.4603,3.4509,3.4028,0.0,0.0,0.0,0.0,0.0,0.0,0.0,0.0,0.0,0.0,0.0,0.0,0.0,0.0,0.0,0.0,0.0,0.0,0.0,3.1797,3.1543,3.1423,0.0,0.0,0.0,0.0,0.0,0.0,0.0,0.0,0.0,3.6166,3.689,3.7806,0.0,0.0,4.049,4.1671,4.3317,4.4503,4.5072,4.914,0.0,5.188,5.4128,5.5859,5.5605,5.6543,5.7402,5.7734,5.8144,5.8398,5.8242,5.7988,5.7793,5.7676,5.623,5.5293,5.584,5.5937,5.6094,5.6797,5.7539,5.7949,3.8451,3.6671,3.6281,3.5344,3.4313,3.5256,3.4754,3.3118,3.473,3.4578,3.3148,3.3394,3.2349,3.0339,2.7479,0.0,0.0,0.0,2.5799,2.6337,2.6583,2.6876,2.7188,2.7197,2.698,2.6574,2.6526,2.6482,2.6541,2.8165,2.8965,2.9101,0.0,3.1075,3.2232,3.3303,3.4695,3.6313,3.662,3.6914,3.7195,3.7208,3.6981,3.6513,3.6233,3.5859,3.5378,3.5084,3.4937,3.4923,3.4482,3.4042,0.0,0.0,0.0,0.0,0.0,0.0,0.0,0.0,0.0,0.0,0.0,3.0434,3.0207,0.0,0.0,0.0,3.1062,3.1677,3.1904,3.1931,0.0,0.0,0.0,0.0,0.0,0.0,0.0,3.4977,3.5204,3.5591,3.6393,3.7428,3.8367,3.91,3.9542,4.0307,4.1533,0.0,4.3158,4.3619,4.7033,4.9997,5.0794,5.3338,5.5701,5.706,5.7832,5.8437,5.873,5.9023,5.918,5.916,5.8965,5.8789,5.8789,5.7695,5.6836,5.7051,5.7246,5.7539,5.8047,5.8691,5.9101,4.0201,3.9626,3.9078,3.7477,3.5469,3.5741,3.4414,3.2365,3.4467,3.5605,3.587,3.7214,3.5902,3.2356,2.7965,0.0,2.6186,2.6385,2.6677,2.7074,2.7074,2.7188,2.7377,2.7377,2.7159,2.6753,2.6942,2.7522,2.8478,3.011,3.1652,3.3069,3.2761,3.2729,3.3073,3.4752,3.5819,3.6099,3.6353,3.6607,3.6901,3.6874,3.674,3.6473,3.6193,3.5899,3.5605,3.5338,3.5204,3.5191,3.4923,3.4496,3.3908,0.0,0.0,0.0,0.0,0.0,0.0,0.0,0.0,0.0,0.0,0.0,0.0,0.0,0.0,3.0862,3.1637,0.0,3.1864,3.2572,0.0,0.0,0.0,3.4082,3.4389,3.4656,3.5057,3.5631,0.0,0.0,3.65,3.7757,3.8694,3.9084,3.8999,3.9511,4.1285,4.1347,4.1265,4.1963,4.4065,4.6507,4.8917,5.2094,5.5376,5.83,5.9082,5.9004,5.9062,5.9082,5.9121,5.918,5.918,5.918,5.918,5.9062,5.8945,5.8086,5.8281,5.8555,5.8535,5.8906,5.9219,4.0788,4.0254,4.012,3.854,3.6297,3.6437,3.5513,3.4,3.6008,3.6581,3.618,3.7839,3.6154,3.2275,2.9575,2.7821,2.6611,2.6659,2.6829,2.7065,2.7074,2.7188,2.7377,2.7377,2.7159,2.6763,2.6649,2.7151,2.8237,2.981,3.1515,3.3329,3.4622,3.5136,3.4992,3.5604,3.6112,3.6393,3.6259,3.6313,3.6593,3.6393,3.6246,3.6179,3.5885,3.5591,3.5311,3.5244,3.5204,3.5191,3.4923,3.4496,3.3908,3.324,0.0,0.0,0.0,0.0,0.0,0.0,0.0,0.0,0.0,3.1062,3.0929,0.0,3.1704,0.0,3.2051,3.2692,3.3293,3.3547,0.0,0.0,3.4429,3.475,3.5257,3.5378,3.5645,3.6233,3.6353,3.6513,3.6794,3.7122,3.7507,3.8045,3.9526,4.0964,4.2252,4.1973,4.1821,4.2415,4.4459,4.6477,4.7462,5.132,5.5209,5.7795,5.8183,5.8301,5.8633,5.8691,5.8789,5.9101,5.9199,5.9199,5.916,5.9199,5.9121,5.8926,5.8965,5.8926,5.8613,5.9121,5.9473,4.1269,4.0855,4.0722,3.9317,3.7285,3.6212,3.4288,3.2074,3.392,3.4495,3.3978,3.4691,3.4241,3.2672,2.9759,2.7962,2.7027,2.6942,2.7008,2.7207,2.7122,2.7188,2.7377,2.7282,2.7074,2.6753,2.6545,2.7415,2.9422,3.0162,3.2034,3.4817,3.556,3.5925,3.6019,3.6179,3.6353,3.65,3.6219,3.6153,3.6299,3.6153,3.6019,3.5872,3.5591,3.5297,3.5017,3.4883,3.4803,3.4803,3.4656,3.4362,3.3908,3.3427,3.2893,0.0,0.0,0.0,0.0,0.0,0.0,0.0,0.0,0.0,0.0,0.0,3.2198,3.2425,3.2986,3.3587,3.4215,3.4509,3.479,3.511,3.5257,3.5525,3.5979,3.6019,3.6193,3.6647,3.67,3.6754,3.6914,3.7162,3.7383,3.7715,3.9194,4.0578,4.1616,4.1924,4.2187,4.2477,4.3768,4.529,4.6327,5.0785,5.4506,5.6018,5.7175,5.7949,5.8183,5.8242,5.832,5.8535,5.8594,5.8594,5.8594,5.8613,5.8594,5.8594,5.8594,5.8574,5.8555,5.8906,5.9023,4.1617,4.131,4.1029,3.9946,3.815,3.5903,3.2737,2.9154,3.1132,3.2113,3.2237,3.1432,3.194,3.3213,2.9291,2.7405,2.7367,2.7169,2.7169,2.732,2.7131,2.7131,2.7282,2.7112,2.6923,2.6706,2.6739,2.8243,3.1067,3.1003,3.2859,3.6311,3.5899,3.5899,3.642,3.6406,3.638,3.634,3.6166,3.6072,3.6072,3.6032,3.5885,3.5631,3.5311,3.5004,3.4723,3.4456,3.4322,3.4322,3.4322,3.4189,3.3908,3.3587,3.3307,0.0,3.283,0.0,0.0,0.0,0.0,0.0,0.0,0.0,0.0,3.2225,3.2746,3.3467,3.4108,3.4576,3.4803,3.5338,3.5698,3.5738,3.5965,3.6246,3.6513,3.6567,3.666,3.6914,3.6941,3.6941,3.6941,3.7383,3.7715,3.7742,3.8529,3.9489,4.0346,4.1442,4.2161,4.2219,4.2363,4.3624,4.62,4.9873,5.2794,5.3989,5.5719,5.7368,5.7754,5.7773,5.7793,5.7871,5.793,5.791,5.7851,5.789,5.789,5.793,5.793,5.8008,5.8242,5.8398,5.8301,4.1603,4.131,4.1029,3.9946,3.8287,3.7593,3.4969,3.1484,3.335,3.5944,3.8394,3.5012,3.3666,3.3473,2.9522,2.7547,2.7367,2.7169,2.7103,2.7122,2.6914,2.6838,2.6866,2.6838,2.6706,2.6614,2.7773,2.9325,3.1179,3.2144,3.3905,3.6139,3.5805,3.5805,3.6126,0.0,0.0,0.0,3.5859,3.6072,3.6059,3.5832,3.5685,3.5618,3.5124,0.0,3.4416,3.4349,3.4322,3.4322,3.4322,0.0,0.0,0.0,0.0,0.0,0.0,0.0,0.0,0.0,0.0,0.0,3.3748,3.3614,3.3187,3.3814,3.4229,3.4175,3.4897,3.5311,3.5137,3.5645,3.6086,3.6313,3.6393,3.654,3.6807,3.6847,3.6874,3.6927,3.6941,3.6941,3.6941,3.7051,3.7051,3.7176,3.7863,3.8737,3.935,4.0462,4.1301,4.133,4.1974,4.3276,4.5689,4.6944,4.9214,5.2124,5.3474,5.484,5.6704,5.7344,5.748,5.7734,5.7851,5.7832,5.7832,5.7851,5.7812,5.7851,5.7832,5.7793,5.7539,5.7754,5.7851,4.1563,4.1537,4.1243,4.0664,0.0,3.8461,3.6789,3.4913,3.4913,3.6521,3.8714,3.4513,3.306,3.3651,2.9472,2.7481,2.7358,2.7056,2.698,2.7056,2.6753,2.6659,2.6753,2.6649,2.6545,2.6441,2.8045,2.9566,3.0885,3.2483,3.4108,3.5845,3.5565,3.5565,3.5832,3.5565,3.5338,3.5204,3.5485,3.5645,3.5631,3.5498,3.5418,3.5404,3.4857,0.0,0.0,0.0,0.0,0.0,0.0,0.0,0.0,3.3734,0.0,3.3841,3.3587,3.3547,3.3828,3.3868,3.3948,3.4095,3.4509,3.4563,3.4122,3.4643,3.4977,3.499,3.5645,3.6006,3.5872,3.6246,3.6567,3.67,3.6714,3.678,3.6914,3.6941,3.6941,3.6941,3.6941,3.6941,3.6941,3.6941,3.6941,3.6941,3.7283,3.7724,3.821,3.9701,4.0886,4.1126,4.1712,4.2583,4.3701,4.5178,4.6495,4.9156,5.147,5.3417,5.4835,5.6121,5.6992,5.7187,5.7246,5.7226,5.7226,5.7226,5.7226,5.7226,5.7226,5.7168,5.6953,5.7246,5.7422,4.1644,4.1831,4.1537,4.1563,4.1612,3.9444,3.8447,3.8286,3.6245,0.0,0.0,3.3404,3.2355,3.3639,2.9351,2.7358,2.7301,2.697,2.6866,2.6952,2.6611,2.6526,2.663,2.647,2.6394,2.6385,2.7985,2.948,3.0771,3.2531,3.4121,3.5405,3.5338,3.5324,3.5525,3.5311,3.5204,3.5204,3.5244,3.5271,3.5271,3.5271,3.5244,3.5204,3.4683,3.4376,3.4309,3.3841,3.3574,3.3574,3.3574,3.3694,3.3948,3.3961,3.4095,3.4376,3.4349,3.4362,3.4469,3.4429,3.4442,3.4536,3.5044,3.5244,3.5004,3.5257,3.5498,3.5698,3.6233,3.6567,3.6513,3.6767,3.6941,3.6941,3.6941,3.6941,3.6941,3.6941,3.6941,3.6941,3.6941,3.6941,3.6941,3.6941,3.6941,3.6941,3.6954,3.6941,3.734,3.8974,4.0599,4.1261,4.169,4.1821,4.2189,4.3512,4.5275,4.6158,4.9198,5.169,5.2582,5.4355,5.5793,5.587,5.6261,5.6621,5.6601,5.664,5.6582,5.6582,5.6582,5.6582,5.6621,5.6855,5.6992,4.2111,4.2138,4.1844,4.175,4.1764,4.1044,4.0642,4.0269,3.8158,3.829,3.9821,3.5476,3.3673,3.3651,2.9351,2.7292,2.7122,2.7056,2.6857,2.6545,2.6479,2.6366,2.6214,2.6186,2.6177,2.6272,2.7752,2.9394,3.1087,3.2435,3.393,3.5378,3.5338,3.5217,3.5257,3.5217,3.5204,3.5204,3.5444,3.5565,3.5565,3.5565,3.5444,3.5204,3.487,3.4576,3.4322,3.4229,3.4189,3.4189,3.4189,3.4215,3.4255,3.4255,3.4389,3.4656,3.4469,3.4536,3.503,3.4843,3.4923,3.5404,3.5765,3.5925,3.5899,3.6153,3.6233,3.6059,3.654,3.6767,3.6567,3.6767,3.6941,3.6941,3.6941,3.6941,3.6941,3.6941,3.6941,3.6941,3.6941,3.6941,3.6941,3.6941,3.6941,3.6941,3.6941,3.7051,3.7769,3.8668,3.9881,4.1032,4.147,4.1499,4.1529,4.1988,4.3376,4.528,4.6269,4.7978,4.9675,5.2055,5.3613,5.3579,5.5218,5.6455,5.6582,5.6582,5.6582,5.6582,5.6582,5.6582,5.6582,5.666,5.668,4.1978,4.1838,4.1077,4.0683,4.0513,4.0102,4.0321,4.0546,3.9548,3.8906,3.8363,3.5426,3.3356,3.1907,2.895,2.7434,2.7235,2.7131,2.6904,2.6621,2.6507,2.6337,2.6139,2.6129,2.6073,2.6073,2.7651,2.8809,2.9558,3.1844,3.3387,3.3996,3.4729,3.5204,3.5204,3.5204,3.5204,3.5204,3.5324,3.5391,3.5391,3.5391,3.5324,3.5191,3.4923,3.471,3.4563,3.4402,3.4322,3.4322,3.4322,3.4389,3.4549,3.4563,3.4696,3.4977,3.487,3.491,3.5177,3.5217,3.5418,3.5845,3.6139,3.638,3.654,3.6513,3.6513,3.654,3.6794,3.6887,3.6754,3.6861,3.6941,3.6941,3.6941,3.6941,3.6941,3.6941,3.6941,3.6941,3.6941,3.6941,3.6941,3.6941,3.6941,3.6941,3.6941,3.7273,3.8156,3.8598,3.929,4.0222,4.0853,4.1177,4.1207,4.1455,4.2065,4.32,4.4503,4.5774,4.7346,4.9936,5.2253,5.3016,5.4743,5.6134,5.6523,5.6582,5.6582,5.6582,5.6582,5.6582,5.6582,5.6582,5.6582,4.179,4.1665,4.0583,4.0014,3.9717,3.9434,3.9517,3.9769,3.9821,3.8267,3.573,3.4531,3.2895,3.0659,2.8637,2.7481,2.7245,2.7131,2.6914,2.6621,2.6498,2.6337,2.6148,2.6129,2.6044,2.6006,2.7243,2.7813,2.8306,3.0967,3.2726,3.3286,3.4544,3.5204,3.5204,3.5204,3.5204,3.5204,3.5204,3.5204,3.5204,3.5204,3.5204,3.5177,3.4977,3.4857,3.4857,3.4629,3.4509,3.4523,3.4523,3.4629,3.4843,3.4923,3.503,3.5191,3.5257,3.5297,3.5311,3.5565,3.5859,3.6153,3.6446,3.67,3.6887,3.674,3.67,3.6901,3.6927,3.6941,3.6927,3.6941,3.6941,3.6941,3.6941,3.6941,3.6941,3.6941,3.6941,3.6941,3.6941,3.6941,3.6941,3.6941,3.6941,3.6941,3.6941,3.7259,3.8142,3.8472,3.8912,3.9408,4.0255,4.0841,4.0885,4.1133,4.1309,4.1338,4.283,4.3968,4.5233,4.8162,5.1082,5.2056,5.4288,5.595,5.6523,5.6582,5.6582,5.6582,5.6484,5.6387,5.623,5.623,5.6328,4.1777,4.175,4.1234,4.0969,4.0677,4.0385,3.9231,3.7669,3.776,3.5364,3.1907,3.3135,3.2718,3.0816,2.8409,2.7226,2.6876,2.6999,2.6763,2.6281,2.6375,2.6337,2.6139,2.6129,2.612,2.6044,2.5948,2.6729,2.8098,2.9642,3.1902,3.4663,3.5085,3.5204,3.5204,3.5204,3.5204,3.5204,3.5204,3.5204,3.5204,3.5204,3.5204,3.5204,3.5177,3.5164,3.5137,3.5124,3.511,3.511,3.5097,3.5124,3.5177,3.5391,3.5444,3.5231,3.5431,3.5591,3.5605,3.5872,3.6139,3.6446,3.6714,3.6887,3.6941,3.6914,3.6901,3.6941,3.6941,3.6941,3.6941,3.6941,3.6954,3.6981,3.6941,3.6941,3.6954,3.6941,3.6941,3.6941,3.6941,3.6941,3.6941,3.6941,3.6941,3.6941,3.6941,3.7051,3.7383,3.8046,3.8692,3.8912,3.9752,4.0439,4.0592,4.0812,4.0987,4.1031,4.1347,4.1925,4.3098,4.5785,4.9377,5.0411,5.3245,5.5814,5.6543,5.6582,5.6582,5.6543,5.6308,5.5918,5.5566,5.5508,5.5625,4.094,3.9495,3.9751,3.979,3.9382,3.8369,3.7694,3.7218,3.631,3.4041,3.1258,3.1687,3.0869,2.8819,2.7937,2.7339,2.6961,2.7037,2.681,2.6356,2.6413,2.6337,2.6148,2.6129,2.6073,2.595,2.577,2.5946,2.6844,2.8869,3.1759,3.4874,3.5204,3.5204,3.5204,3.5204,3.5204,3.5204,3.5204,3.5204,3.5204,3.5204,3.5204,3.5204,3.5204,3.5204,3.5204,3.5204,3.5204,3.5204,3.5204,3.5271,3.5444,3.5565,3.5578,3.5458,3.5391,3.5444,3.5618,3.5912,3.6193,3.6487,3.678,3.6941,3.6941,3.6941,3.6941,3.6941,3.6941,3.6941,3.6941,3.6941,3.6994,3.7128,3.7048,3.6994,3.7181,3.7048,3.6941,3.6941,3.6941,3.6941,3.6941,3.6941,3.6941,3.6941,3.6941,3.7051,3.7383,3.7935,3.8266,3.8802,3.9695,4.0366,4.049,4.0577,4.068,4.0709,4.0782,4.0899,4.1673,4.3519,4.6481,4.8567,5.1874,5.4729,5.6397,5.6562,5.6582,5.6445,5.6211,5.5762,5.5078,5.5137,5.5293,4.0108,3.8928,3.9208,3.9054,3.8348,3.71,3.6201,3.5621,3.4345,3.2399,3.0107,2.9894,2.9011,2.7535,2.7547,2.7415,2.7103,2.7018,2.68,2.647,2.6394,2.6281,2.6139,2.6129,2.6054,2.5921,2.5855,2.6048,2.6754,2.8847,3.1843,3.4782,3.5204,3.5204,3.5204,3.5204,3.498,3.4544,3.4874,3.498,3.4663,3.498,3.5204,3.5204,3.5204,3.5204,3.5204,3.5204,3.5204,3.5204,3.5271,3.5364,3.5498,3.5725,3.5832,3.5725,3.5404,3.5364,3.5725,3.5952,3.6233,3.658,3.6821,3.6941,3.6941,3.6941,3.6941,3.6941,3.6941,3.6941,3.6941,3.6941,3.7061,3.7315,3.7114,3.7061,3.7301,3.7114,3.6941,3.6941,3.6941,3.6941,3.6941,3.6941,3.6941,3.6941,3.6941,3.7051,3.7494,3.7715,3.7935,3.8486,3.9475,4.0132,4.0256,4.0599,4.0584,4.0708,4.0752,4.0731,4.1171,4.282,4.4325,4.718,5.0078,5.2498,5.4579,5.5521,5.623,5.6055,5.5801,5.5371,5.4648,5.4805,5.4844,3.9431,4.0501,4.0493,3.9387,3.8348,3.7318,3.5113,3.2388,3.1496,2.9814,2.7841,2.7845,2.7696,2.7386,2.7405,2.7282,2.7065,2.6876,2.6668,2.6441,2.6252,2.6139,2.6129,2.6129,2.612,2.6073,2.5931,2.7185,2.9806,3.0282,3.2012,3.4993,3.5204,3.5204,3.5204,3.5204,3.4332,3.326,3.4451,3.4451,3.3273,3.4346,3.5204,3.5217,3.5204,3.5204,3.5204,3.5204,3.5204,3.5204,3.5431,3.5485,3.5338,3.5992,3.6273,3.6006,3.5511,3.5458,3.5952,3.6072,3.6313,3.6807,3.6914,3.6941,3.6941,3.6941,3.6941,3.6941,3.6941,3.6941,3.6941,3.6941,3.7074,3.7342,3.7128,3.7101,3.7368,3.7141,3.6967,3.6941,3.6941,3.6941,3.6941,3.6941,3.6941,3.6941,3.6941,3.6941,3.7051,3.7494,3.7715,3.8046,3.8816,3.9585,3.9709,4.046,4.1115,4.1224,4.1021,4.0708,4.187,4.3052,4.4239,4.6205,4.9548,5.1911,5.314,5.4175,5.5223,5.5351,5.5098,5.4648,5.4316,5.4141,5.4219,3.7294,3.5627,3.6796,3.6257,3.4714,3.4467,3.2785,3.0129,2.9502,2.811,2.6556,2.7101,2.7443,2.7377,2.7377,2.7263,2.7065,2.6857,2.664,2.6441,2.6233,2.6129,2.6129,2.6129,2.6129,2.611,2.6054,2.759,3.0238,3.0345,3.1855,3.4689,3.5204,3.5204,3.5204,3.5204,3.4332,3.2942,3.4346,3.4424,3.3167,3.4437,3.5271,3.5458,3.5284,3.5204,3.5204,3.5204,3.5204,3.5204,3.5297,3.5391,3.5498,3.5765,3.5899,3.5792,3.5591,3.5658,3.6019,3.6246,3.6513,3.6874,3.6941,3.6941,3.6941,3.6941,3.6941,3.6941,3.6941,3.6941,3.6941,3.6941,3.7128,3.7489,3.7235,3.7141,3.7435,3.7248,3.6941,3.6941,3.6941,3.6941,3.6941,3.6941,3.6941,3.6941,3.6941,3.6941,3.6941,3.7162,3.7273,3.7383,3.8252,3.9132,3.9585,4.057,4.1333,4.155,4.155,4.1224,4.178,4.1926,4.2748,4.5746,4.9205,5.1729,5.2967,5.456,5.5234,5.4883,5.4629,5.4414,5.4121,5.4043,5.4101,3.4313,3.1547,3.3527,3.3527,3.199,3.2186,3.0778,2.8394,2.7667,2.6648,2.5688,2.6408,2.7008,2.7377,2.7377,2.7263,2.7074,2.6923,2.6744,2.6545,2.6328,2.6196,2.6139,2.6129,2.6129,2.6101,2.5988,2.7336,2.9569,2.9963,3.1557,3.4227,3.4874,3.5204,3.5085,3.4663,3.3472,3.2304,3.2942,3.3079,3.254,3.3727,3.4939,3.5578,3.5485,3.5284,3.5204,3.5204,3.5204,3.5204,3.5284,3.5471,3.5725,3.5685,3.5672,3.5752,3.5765,3.5899,3.6179,3.6393,3.6633,3.6901,3.6941,3.6941,3.6941,3.6941,3.6941,3.6941,3.6941,3.6941,3.6941,3.6941,3.7181,3.7635,3.7368,3.7288,3.7702,3.7288,3.6994,3.6941,3.6941,3.6941,3.6941,3.6941,3.6941,3.6941,3.6941,3.6941,3.6941,3.6941,3.6941,3.6941,3.7701,3.8802,3.9695,4.0773,4.1768,4.2093,4.1985,4.1659,4.1516,4.1332,4.2216,4.543,4.8284,5.0956,5.2979,5.4692,5.4961,5.459,5.4414,5.4238,5.4101,5.4043,5.4082,3.0543,2.8174,3.1019,3.1515,3.01,3.0445,2.9306,2.691,2.5848,2.5319,2.5198,2.5439,2.6288,2.7257,2.7348,2.7254,2.7103,2.7027,2.6895,2.6687,2.6488,2.6299,2.6129,2.6129,2.6129,2.6101,2.5723,2.6417,2.8233,2.9455,3.094,3.2635,3.4438,3.5085,3.5085,3.3485,3.1865,3.0691,3.05,3.052,3.0727,3.2385,3.4235,3.5763,3.5765,3.5498,3.5231,3.5204,3.5204,3.5231,3.5431,3.5752,3.5912,3.5792,3.5765,3.5992,3.6059,3.6219,3.6446,3.6513,3.6674,3.6887,3.6941,3.6941,3.6941,3.6967,3.6994,3.6994,3.6981,3.6967,3.7008,3.6994,3.7208,3.7662,3.7489,3.7422,3.7622,3.7301,3.6941,3.6941,3.6941,3.6941,3.6941,3.6941,3.6941,3.6941,3.6941,3.6941,3.6941,3.6941,3.6941,3.6941,3.7494,3.8266,3.9571,4.0991,4.1876,4.2651,4.2419,4.2202,4.1952,4.1821,4.1966,4.46,4.8079,5.0615,5.2455,5.3943,5.4467,5.4277,5.418,5.4141,5.4082,5.4023,5.4023,2.7182,2.4669,2.8139,2.7711,2.5205,2.6211,2.5442,2.3722,2.3852,2.4115,2.4235,2.4958,2.6168,2.71,2.7245,2.7141,2.7065,2.6923,2.6744,2.6545,2.6337,2.6205,2.6139,2.6129,2.6129,2.6082,2.5865,2.6534,2.8012,2.948,3.0554,3.1261,3.3803,3.4451,3.3485,3.2835,3.1759,3.0285,3.0219,3.0425,3.0872,3.2423,3.4223,3.5829,3.5979,3.5792,3.5511,3.5311,3.5204,3.5217,3.5284,3.5471,3.5712,3.5872,3.5979,3.6086,3.6273,3.6393,3.65,3.6687,3.6821,3.6914,3.6941,3.6941,3.6967,3.7141,3.7235,3.7235,3.7248,3.7315,3.7462,3.7355,3.7422,3.7769,3.7382,3.7288,3.7622,3.7288,3.6994,3.6941,3.6941,3.6941,3.6941,3.6941,3.6941,3.6941,3.6941,3.6941,3.6941,3.6941,3.6941,3.6941,3.7383,3.8032,3.968,4.0882,4.1644,4.2744,4.296,4.2527,4.2278,4.2167,4.2316,4.3754,4.7228,4.9814,5.1645,5.2843,5.3423,5.4019,5.4082,5.4062,5.4043,5.4023,5.4023,2.4189,2.2301,2.4931,2.4723,2.2543,2.3868,2.3592,2.2176,2.2987,2.3262,2.3142,2.4106,2.5078,2.5883,2.6208,2.6363,2.6454,2.6613,2.6687,2.6545,2.6347,2.6214,2.6139,2.6129,2.6129,2.6092,2.5921,2.6314,2.7277,2.8625,2.9369,2.9776,3.2566,3.3697,3.2623,3.1877,3.1011,3.0082,2.8999,2.9229,3.0745,3.1887,3.3696,3.5758,3.6139,3.5979,3.5792,3.5618,3.5525,3.5525,3.5525,3.5618,3.5805,3.6059,3.6233,3.6286,3.6487,3.666,3.6687,3.6834,3.6941,3.6954,3.7034,3.7101,3.7155,3.7368,3.7529,3.7542,3.7435,3.7502,3.7702,3.7555,3.7569,3.7943,3.7475,3.7248,3.7408,3.7168,3.6967,3.6941,3.6941,3.6941,3.6941,3.6941,3.6941,3.6941,3.6941,3.6941,3.6941,3.6941,3.6941,3.6941,3.7051,3.8142,3.9899,4.0882,4.1427,4.2527,4.35,4.296,4.2449,4.22,4.2258,4.3488,4.6208,4.8346,5.0226,5.1489,5.2363,5.2961,5.3921,5.4023,5.4023,5.4023,5.4023,2.1682,2.0666,2.1921,2.245,2.2176,2.3246,2.2835,2.2061,2.2647,2.2561,2.2062,2.29,2.3504,2.3832,2.4887,2.5285,2.5369,2.6378,2.6753,2.6677,2.6517,2.6328,2.6148,2.6129,2.6129,2.6101,2.595,2.5846,2.6108,2.7518,2.7721,2.8028,3.1045,3.2553,3.2176,3.0856,3.0427,2.9817,2.7419,2.7956,3.0756,3.112,3.2749,3.6188,3.6233,3.6126,3.6099,3.6099,3.6099,3.6072,3.6032,3.6059,3.6139,3.6366,3.6527,3.654,3.6794,3.6887,3.6927,3.6914,3.6967,3.7021,3.7208,3.7395,3.7435,3.7662,3.7836,3.7836,3.7649,3.7609,3.7809,3.7622,3.7716,3.8036,3.7756,3.7408,3.7034,3.6994,3.6994,3.6954,3.6941,3.6941,3.6941,3.6941,3.6941,3.6941,3.6941,3.6941,3.6941,3.6941,3.6941,3.6941,3.6941,3.8032,3.968,4.0227,4.0882,4.1985,4.3083,4.2867,4.231,4.2046,4.1858,4.3084,4.4597,4.6706,4.8772,5.0149,5.1997,5.339,5.3921,5.3921,5.4023,5.4023,5.4023,2.0793,2.0526,2.0803,2.0867,2.0804,2.1156,2.0876,2.0489,2.0808,2.131,2.1479,2.1941,2.2667,2.3608,2.4529,2.5047,2.536,2.6269,2.6753,2.6715,2.6545,2.6337,2.6167,2.6129,2.6129,2.611,2.6063,2.5969,2.593,2.7216,2.7287,2.629,3.0407,3.2083,3.1386,3.1809,3.1522,3.0573,2.9798,2.9415,3.0562,3.2034,3.378,3.5841,3.6313,3.6366,3.6406,3.6593,3.6487,3.6126,3.6286,3.6393,3.6406,3.6647,3.6794,3.6821,3.6874,3.6941,3.6941,3.6954,3.7034,3.7235,3.7368,3.7475,3.7702,3.7969,3.8116,3.813,3.8063,3.813,3.8317,3.8023,3.7863,3.7889,3.7983,3.7809,3.7395,3.7261,3.7195,3.6994,3.6967,3.6981,3.6994,3.6994,3.6994,3.6994,3.6981,3.6967,3.6994,3.6994,3.7021,3.6954,3.7162,3.8156,3.9036,3.9585,4.0242,4.1333,4.2109,4.2449,4.1891,4.1472,4.116,4.1378,4.3006,4.4897,4.7313,4.926,5.1274,5.3384,5.3999,5.4141,5.4062,5.4023,5.4023,2.0539,2.0532,2.0451,2.0383,2.0315,2.0166,2.0017,1.9997,2.0405,2.0586,2.0994,2.1457,2.1699,2.2047,2.3573,2.4376,2.4649,2.6153,2.6942,2.697,2.6725,2.6422,2.6196,2.6129,2.6129,2.6129,2.6129,2.6063,2.6054,2.6857,2.6422,2.6578,2.9798,3.1398,3.0952,3.1539,3.1674,3.0717,3.0173,2.9942,3.0717,3.2459,3.4286,3.5801,3.6353,3.654,3.6687,3.6847,3.6767,3.654,3.6593,3.6687,3.67,3.6834,3.6941,3.6941,3.6941,3.6941,3.6967,3.7048,3.7195,3.7395,3.7569,3.7809,3.801,3.8277,3.8464,3.845,3.8344,3.8424,3.8597,3.8397,3.8223,3.825,3.8357,3.821,3.7635,3.7569,3.7489,3.7355,3.7301,3.7301,3.7301,3.7301,3.7301,3.7288,3.7221,3.7181,3.7155,3.7128,3.7128,3.7128,3.7319,3.8181,3.8904,3.9319,3.9871,4.0944,4.1193,4.1602,4.1576,4.1125,4.0876,4.0986,4.1891,4.3592,4.6566,4.9071,5.0717,5.2459,5.3455,5.4238,5.416,5.4121,5.4101,2.0539,2.0539,2.0539,2.0465,2.0343,2.0207,2.0092,2.0162,2.0894,2.0687,2.0172,2.0872,2.0737,1.9894,2.2421,2.3358,2.3728,2.6098,2.6922,2.7084,2.6848,2.6479,2.6158,2.6129,2.6129,2.6129,2.6129,2.612,2.6044,2.6016,2.5959,2.6559,2.9036,3.0616,3.0916,3.0969,3.0836,3.0605,2.9635,2.9723,3.0866,3.2531,3.4324,3.588,3.646,3.6727,3.6914,3.7008,3.6994,3.7034,3.6981,3.6941,3.6954,3.6994,3.7034,3.7088,3.7128,3.7114,3.7088,3.7315,3.7462,3.7595,3.7983,3.8277,3.833,3.8544,3.8664,3.8664,3.8464,3.8504,3.8651,3.8678,3.8651,3.8624,3.8678,3.845,3.8063,3.7889,3.7849,3.7823,3.7796,3.7809,3.7809,3.7809,3.7782,3.7569,3.7502,3.7448,3.7422,3.7422,3.7422,3.7435,3.7794,3.8194,3.8761,3.9197,3.9755,4.0409,4.0495,4.0786,4.1201,4.0892,4.0804,4.1104,4.2428,4.4452,4.7201,4.9159,5.0872,5.2694,5.4416,5.4531,5.4336,5.4297,5.4277,2.0539,2.0539,2.0539,2.0526,2.0492,2.0458,2.0356,2.0207,2.0306,2.0271,1.9943,2.0071,2.0022,1.9772,2.2137,2.3479,2.3841,2.594,2.7197,2.6848,2.664,2.6385,2.6167,2.6139,2.6129,2.6129,2.6129,2.6139,2.6092,2.6007,2.5921,2.6348,2.7897,2.9544,3.0958,3.0822,3.1087,3.0976,3.0532,3.042,3.0946,3.2689,3.4548,3.6201,3.67,3.6981,3.7221,3.7288,3.7395,3.7448,3.7235,3.7101,3.7235,3.7288,3.7368,3.7515,3.7582,3.7595,3.7635,3.7676,3.7823,3.801,3.817,3.8357,3.8611,3.8664,3.8718,3.8718,3.8664,3.8638,3.8704,3.8718,3.8718,3.8718,3.8718,3.8678,3.8517,3.8303,3.809,3.7916,3.7863,3.7823,3.7836,3.7889,3.7863,3.7823,3.7782,3.7729,3.7729,3.7729,3.7729,3.7729,3.7989,3.8378,3.8551,3.8968,3.9335,3.9813,3.9912,4.0165,4.0581,4.0969,4.0844,4.1733,4.3201,4.543,4.7789,5.0099,5.1927,5.3653,5.5156,5.5,5.4844,5.4687,5.457,2.0539,2.0539,2.0539,2.0539,2.0532,2.0471,2.0397,2.0288,2.0085,1.9949,1.9854,1.9719,1.9624,1.9684,2.1661,2.2829,2.3762,2.5879,2.6914,2.6649,2.6488,2.6337,2.6205,2.6214,2.6243,2.6186,2.6347,2.6375,2.629,2.6262,2.629,2.6386,2.771,2.9035,3.0056,3.0071,3.0016,3.0185,3.0778,3.0988,3.1206,3.3517,3.5391,3.6613,3.7074,3.7288,3.7555,3.7582,3.7662,3.7689,3.7529,3.7408,3.7542,3.7595,3.7676,3.7769,3.7809,3.7809,3.7823,3.7956,3.809,3.825,3.8384,3.8544,3.8678,3.8718,3.8718,3.8718,3.8718,3.8718,3.8718,3.8718,3.8718,3.8718,3.8731,3.8718,3.8704,3.8571,3.8437,3.8277,3.8277,3.8277,3.825,3.8157,3.821,3.8277,3.8076,3.8023,3.8023,3.8023,3.8023,3.8063,3.8197,3.8391,3.8621,3.8741,3.8792,3.9174,3.9484,3.9853,4.0321,4.0675,4.0972,4.2207,4.3381,4.5814,4.8203,5.0527,5.2991,5.4619,5.5566,5.5488,5.5332,5.5078,5.5019,2.0539,2.0539,2.0539,2.0539,2.0519,2.0417,2.0376,2.0322,2.0037,1.9942,1.9875,1.9739,1.9603,1.9884,2.1042,2.2231,2.3825,2.5473,2.6696,2.6574,2.6545,2.6441,2.6356,2.6451,2.6479,2.629,2.6536,2.6611,2.6574,2.664,2.6583,2.6739,2.7807,2.874,2.8854,2.8564,2.8699,2.9289,3.0202,3.1116,3.1743,3.432,3.6243,3.7301,3.7435,3.7595,3.7809,3.7889,3.7916,3.7943,3.7943,3.7956,3.7943,3.7889,3.7929,3.7956,3.8036,3.805,3.809,3.821,3.8344,3.8344,3.8611,3.8731,3.8744,3.8771,3.8784,3.8731,3.8718,3.8758,3.8771,3.8825,3.8851,3.8878,3.8878,3.8838,3.8798,3.8784,3.8758,3.8664,3.8571,3.8531,3.8584,3.8557,3.8664,3.8678,3.8464,3.8317,3.8317,3.833,3.833,3.833,3.845,3.8357,3.8445,3.8842,3.8769,3.8823,3.9147,3.9518,3.9976,4.0689,4.1344,4.216,4.3707,4.6294,4.9124,5.182,5.3955,5.5485,5.6015,5.5957,5.5762,5.5488,5.5488,2.0539,2.0539,2.0539,2.0539,2.0539,2.0512,2.0499,2.0458,2.018,2.0064,2.0017,1.9786,1.9644,1.9974,2.095,2.2661,2.4477,2.6115,2.6734,2.6677,2.6677,2.663,2.664,2.6781,2.681,2.6706,2.6781,2.68,2.6725,2.6734,2.6781,2.6804,2.6903,2.7656,2.8379,2.7887,2.7877,2.9018,2.991,3.0923,3.2264,3.4415,3.6402,3.7503,3.7742,3.7903,3.8116,3.8197,3.8303,3.8544,3.8571,3.8571,3.8531,3.8357,3.837,3.8491,3.8557,3.8571,3.8584,3.8597,3.8651,3.8718,3.8891,3.8918,3.8851,3.8931,3.8985,3.8851,3.8811,3.8851,3.9065,3.9078,3.9212,3.9346,3.9372,3.9306,3.9145,3.9065,3.8985,3.8825,3.8771,3.8718,3.8718,3.8718,3.8718,3.8718,3.8624,3.8531,3.8544,3.8597,3.8651,3.8651,3.8664,3.8491,3.8445,3.8744,3.8994,3.8646,3.8863,3.9073,3.9779,4.0829,4.156,4.1814,4.4351,4.7778,5.0509,5.2979,5.4743,5.6222,5.6387,5.6426,5.6191,5.5957,5.6015,2.0539,2.0539,2.0539,2.0539,2.0539,2.0539,2.0539,2.0499,2.0234,2.0098,2.001,1.98,2.0046,2.0437,2.1068,2.2798,2.4789,2.6223,2.6753,2.6753,2.6753,2.6753,2.68,2.6989,2.7074,2.7103,2.7178,2.7103,2.6952,2.7046,2.7018,2.6914,2.681,2.724,2.7815,2.7357,2.7288,2.8452,3.0165,3.1696,3.2724,3.5049,3.6979,3.7681,3.8076,3.821,3.8464,3.8678,3.8784,3.8945,3.9092,3.9159,3.9118,3.9052,3.8931,3.8985,3.9078,3.9172,3.9132,3.9052,3.8945,3.8958,3.9105,3.9092,3.9065,3.9185,3.9279,3.9212,3.9185,3.9225,3.9372,3.9386,3.9466,3.9559,3.9613,3.9546,3.9426,3.9399,3.9212,3.8985,3.8865,3.8784,3.8718,3.8718,3.8718,3.8718,3.8731,3.8758,3.8784,3.8865,3.8945,3.8998,3.9012,3.8998,3.8838,3.9052,3.9239,3.8918,3.8704,3.903,3.9236,4.0134,4.0338,4.047,4.3996,4.8361,5.0557,5.2491,5.466,5.6582,5.6543,5.6504,5.6504,5.6484,5.6445,2.0539,2.0539,2.0539,2.0526,2.0505,2.0532,2.0499,2.041,2.0207,2.0078,2.0017,1.9902,2.0246,2.116,2.1996,2.3179,2.4929,2.6232,2.6838,2.6857,2.6904,2.6914,2.7008,2.7112,2.732,2.7519,2.7613,2.7585,2.7377,2.7377,2.7348,2.7292,2.7226,2.7141,2.7212,2.7307,2.7216,2.8494,3.1063,3.3074,3.466,3.6576,3.8277,3.8491,3.8531,3.8678,3.8931,3.9105,3.9199,3.9292,3.9426,3.9573,3.9599,3.9653,3.9573,3.9412,3.9519,3.9573,3.9533,3.9399,3.9252,3.9252,3.9306,3.9306,3.9292,3.9426,3.9573,3.9599,3.9573,3.9599,3.9653,3.9693,3.9733,3.9813,3.9827,3.976,3.972,3.9653,3.9533,3.9292,3.9038,3.8878,3.8838,3.8878,3.8905,3.8985,3.8998,3.9105,3.9132,3.9185,3.9265,3.9332,3.9399,3.9519,3.9493,3.9479,3.9506,3.9265,3.9038,3.8985,3.9124,3.9365,3.944,3.9964,4.4012,4.7916,4.9896,5.1781,5.3796,5.5256,5.6134,5.6241,5.5667,5.6115,5.6523,2.0539,2.0539,2.0532,2.0471,2.0383,2.0471,2.0383,2.0173,2.0119,2.0017,1.9908,1.9868,2.0352,2.1827,2.3873,2.4673,2.5478,2.6436,2.7037,2.7056,2.7197,2.7348,2.7528,2.7604,2.7708,2.7859,2.7934,2.7944,2.7952,2.7848,2.7745,2.7745,2.7769,2.7471,2.767,2.7641,2.7726,2.857,3.1752,3.5227,3.7953,3.8952,3.9306,3.9346,3.9359,3.9346,3.9386,3.9493,3.9546,3.9559,3.9586,3.9613,3.964,3.9853,3.9947,3.9867,3.976,3.9599,3.9653,3.9586,3.9546,3.9586,3.972,3.9746,3.9693,3.964,3.9693,3.9599,3.964,3.976,3.9947,3.9974,4.0107,4.0227,4.0281,4.0187,4.0094,4.0094,3.996,3.98,3.9613,3.9212,3.8985,3.9052,3.9118,3.9199,3.9292,3.9386,3.9452,3.9493,3.9626,3.972,3.9773,3.988,3.992,3.9933,3.9786,3.9586,3.9372,3.9185,3.9115,3.9097,3.9195,4.0526,4.411,4.6575,4.8122,5.0006,5.2473,5.4266,5.5471,5.5148,5.4393,5.5275,5.6582,2.0288,2.0295,2.0295,2.0261,2.0214,2.0268,2.022,2.0105,2.001,1.9936,1.9854,1.9719,2.0701,2.2654,2.5065,2.6235,2.6382,2.695,2.7245,2.7292,2.7452,2.7613,2.7689,2.7821,2.7982,2.8133,2.8199,2.8265,2.8455,2.9028,2.9267,2.8207,2.8803,2.8866,2.818,2.8048,2.8095,2.9249,3.1942,3.5827,3.8711,3.9706,3.9613,3.9613,3.9626,3.9626,3.9653,3.9786,3.984,3.988,3.9974,4.0094,4.012,4.0227,4.0334,4.0508,4.0254,4.012,4.0094,3.9947,3.9867,3.9853,3.9974,4.0014,4.0054,4.008,4.008,4.0107,4.0094,4.0161,4.0227,4.0281,4.0348,4.0468,4.0642,4.0642,4.0548,4.0561,4.0495,4.0348,4.0174,3.984,3.9533,3.9519,3.9559,3.9506,3.9559,3.9599,3.968,3.9733,3.992,4.0134,4.0187,4.0241,4.0241,4.0241,4.0094,3.988,3.9599,3.9386,3.9132,3.9075,3.9214,3.9222,4.0987,4.3345,4.5692,4.8378,5.0865,5.2963,5.4933,5.4558,5.4289,5.549,5.6582,2.0024,1.9997,2.0064,2.0078,2.0051,2.0085,2.0058,1.9976,1.9915,1.9854,2.0038,2.0429,2.176,2.3469,2.5722,2.705,2.7178,2.7311,2.7405,2.75,2.7623,2.7755,2.7897,2.8048,2.819,2.8397,2.8482,2.8511,2.9239,3.0411,3.0906,2.8408,2.9067,2.9259,2.8617,2.8455,2.877,3.0834,3.3036,3.6346,3.949,3.9987,3.9893,3.984,3.9827,3.9827,3.9853,4.0014,4.0134,4.0187,4.0308,4.0388,4.0414,4.0414,4.0575,4.0722,4.0615,4.0601,4.0535,4.0401,4.0187,4.0134,4.0147,4.0254,4.0388,4.0481,4.0468,4.0401,4.0414,4.0428,4.0495,4.0508,4.0601,4.0708,4.0855,4.0935,4.1002,4.0962,4.0949,4.0855,4.0722,4.0642,4.0374,4.0187,4.0054,3.9893,3.984,3.9853,3.9907,4.0,4.0134,4.0348,4.0374,4.0401,4.0401,4.0388,4.0281,4.0161,3.9867,3.9613,3.9359,3.9185,3.9195,3.9192,3.9317,4.1487,4.4583,4.6881,4.918,5.1076,5.2836,5.4112,5.4746,5.5948,5.6797,1.9807,1.9712,1.9983,2.0003,1.9895,2.0044,1.9942,1.9746,1.9827,1.9916,2.0185,2.1948,2.3021,2.4202,2.6225,2.7559,2.7348,2.7367,2.761,2.7734,2.7726,2.7944,2.8123,2.8275,2.8388,2.8577,2.8709,2.8719,2.9617,3.2299,3.1526,2.9365,3.008,2.9221,2.8806,2.8951,3.0725,3.2672,3.4562,3.6804,3.9595,4.0548,4.0401,4.0414,4.0414,4.0414,4.0414,4.0481,4.0508,4.0508,4.0521,4.0535,4.0561,4.0548,4.0695,4.0882,4.0935,4.0989,4.1042,4.0748,4.0481,4.0441,4.0428,4.0401,4.0468,4.0495,4.0495,4.0548,4.0615,4.0601,4.0642,4.0695,4.0855,4.0962,4.1109,4.1256,4.131,4.131,4.1296,4.1296,4.1243,4.1136,4.1163,4.0976,4.0575,4.0388,4.0254,4.0241,4.0227,4.0294,4.0348,4.0454,4.0481,4.0495,4.0468,4.0441,4.0468,4.0321,4.0067,3.984,3.9626,3.9466,3.9279,3.937,3.9668,4.1549,4.3153,4.5073,4.7122,4.9048,5.0957,5.3052,5.4847,5.6078,5.6921,1.9481,1.9529,1.9644,1.9712,1.9746,1.9807,1.9766,1.9678,1.9719,2.0199,2.0979,2.2667,2.3994,2.5319,2.7588,2.8434,2.7755,2.8831,2.8458,2.8017,2.7953,2.8161,2.8341,2.8445,2.8549,2.8662,2.8823,2.9792,3.1107,3.3047,3.3552,3.2624,3.2393,3.1733,3.1311,2.9938,3.1711,3.4104,3.5529,3.7166,4.0232,4.0922,4.0829,4.1002,4.0788,4.0869,4.0962,4.1002,4.1002,4.0949,4.0829,4.0762,4.0748,4.0748,4.0895,4.1122,4.1163,4.1323,4.1443,4.1082,4.0695,4.0495,4.0481,4.0495,4.0521,4.0615,4.0722,4.0788,4.0895,4.0922,4.1029,4.1109,4.1189,4.1256,4.1376,4.155,4.1617,4.1617,4.167,4.1684,4.1644,4.1563,4.1657,4.1737,4.1283,4.0882,4.0748,4.0615,4.0535,4.0481,4.0481,4.0548,4.0588,4.0588,4.0561,4.0601,4.0668,4.0481,4.0267,4.004,3.9827,3.964,3.9493,3.9611,3.9756,4.0992,4.211,4.3299,4.531,4.8048,5.0741,5.3209,5.4781,5.6333,5.7111,1.9291,1.9427,1.9434,1.9522,1.9657,1.9705,1.9698,1.9671,1.9712,2.0415,2.1699,2.2908,2.4235,2.5919,2.7913,2.8781,2.8019,2.8637,2.8653,2.8339,2.8161,2.8341,2.8435,2.852,2.8605,2.869,2.9015,2.989,3.1797,3.2922,3.4552,3.5829,3.6243,3.4862,3.2392,3.1432,3.2072,3.4679,3.6437,3.7821,4.1057,4.1203,4.1082,4.1269,4.1122,4.1122,4.1229,4.1256,4.1269,4.1229,4.1149,4.1056,4.1042,4.1082,4.1203,4.1363,4.1497,4.1617,4.1684,4.139,4.0922,4.0695,4.0642,4.0628,4.0668,4.0802,4.0882,4.1042,4.1216,4.135,4.1376,4.139,4.1456,4.1523,4.175,4.1911,4.1911,4.1924,4.2004,4.2071,4.1991,4.1897,4.1871,4.1897,4.155,4.1136,4.0909,4.0708,4.0521,4.0481,4.0481,4.0575,4.0695,4.0682,4.0668,4.0748,4.0815,4.0695,4.0468,4.0201,3.9987,3.984,3.976,3.976,4.0025,4.0423,4.1444,4.2863,4.5076,4.765,5.0385,5.3363,5.6156,5.7646,5.7756,1.9278,1.9427,1.942,1.9515,1.9664,1.9807,1.978,1.9685,1.978,2.0607,2.1827,2.3029,2.4347,2.5723,2.7778,2.8106,2.794,2.8243,2.8435,2.8341,2.8322,2.8445,2.8539,2.8615,2.8653,2.8728,2.9461,3.0739,3.2383,3.4836,3.6789,3.806,3.8236,3.6477,3.3017,3.2841,3.3852,3.5713,3.7456,3.949,4.121,4.1497,4.1403,4.1456,4.139,4.139,4.1497,4.151,4.1523,4.1497,4.1403,4.1336,4.1336,4.1336,4.147,4.1684,4.175,4.1911,4.2111,4.1617,4.1256,4.0962,4.0895,4.0895,4.0909,4.0976,4.1096,4.1323,4.143,4.143,4.1483,4.1603,4.1724,4.1831,4.2044,4.2124,4.2111,4.2111,4.2178,4.2191,4.2205,4.2178,4.2084,4.1964,4.1684,4.1363,4.1082,4.0855,4.0655,4.0642,4.0695,4.0815,4.0962,4.0962,4.0976,4.0962,4.0949,4.0842,4.0695,4.0454,4.0308,4.0227,4.0147,4.008,4.0214,4.0508,4.1352,4.2452,4.5054,4.7622,5.0627,5.3532,5.6702,5.8711,5.8633,1.9054,1.9278,1.9278,1.9427,1.9651,1.9712,1.9705,1.9678,1.9827,2.0908,2.2674,2.3391,2.4837,2.6713,2.8299,2.8787,2.8007,2.966,2.988,2.8322,2.8445,2.8539,2.8615,2.8653,2.87,2.9249,3.0251,3.2234,3.4564,3.6767,3.8928,4.0466,3.931,3.6768,3.3905,3.3085,3.3938,3.5941,3.7848,3.9895,4.1779,4.1804,4.171,4.1871,4.1724,4.171,4.1844,4.1844,4.1844,4.1817,4.1737,4.1644,4.1644,4.163,4.1684,4.1844,4.1911,4.2098,4.2191,4.1951,4.1697,4.139,4.1203,4.1203,4.1203,4.1403,4.1523,4.1644,4.1764,4.1831,4.1991,4.2004,4.2071,4.2071,4.2191,4.2191,4.2191,4.2191,4.2218,4.2218,4.2218,4.2218,4.2165,4.2058,4.1817,4.167,4.143,4.1243,4.1042,4.1069,4.1122,4.1216,4.131,4.131,4.1296,4.1283,4.1243,4.1176,4.1002,4.0788,4.0668,4.0575,4.0454,4.0348,4.0401,4.0602,4.145,4.2629,4.5041,4.762,5.0802,5.4268,5.7642,5.9043,5.9004,1.8932,1.9196,1.9203,1.9379,1.9644,1.9712,1.9732,1.9847,2.0165,2.1585,2.327,2.3986,2.5319,2.7323,2.8728,2.9239,2.7971,2.9318,2.9896,2.8445,2.8549,2.8605,2.8634,2.87,2.8813,2.95,3.124,3.3496,3.5506,3.7963,4.0009,4.1038,4.0162,3.7968,3.5915,3.5658,3.5927,3.7688,3.936,4.0911,4.1885,4.2058,4.2018,4.2084,4.2058,4.2018,4.2151,4.2218,4.2218,4.2151,4.2058,4.1937,4.1924,4.1924,4.1937,4.2004,4.2071,4.2218,4.2205,4.2205,4.1951,4.1724,4.1577,4.1497,4.151,4.163,4.179,4.1937,4.2124,4.2178,4.2218,4.2231,4.2271,4.2271,4.2258,4.2271,4.2378,4.2378,4.2405,4.2392,4.2271,4.2258,4.2245,4.2111,4.1978,4.1884,4.1777,4.1603,4.143,4.1443,4.147,4.1537,4.1603,4.1603,4.1603,4.1603,4.1563,4.151,4.1283,4.1016,4.0962,4.0869,4.0735,4.0628,4.0668,4.0912,4.1384,4.2884,4.5324,4.8252,5.1524,5.4984,5.8607,5.9414,5.9414,1.8932,1.9176,1.9196,1.9366,1.9644,1.9895,2.0086,2.0086,2.1159,2.2417,2.3624,2.4837,2.6048,2.7212,2.7914,2.8076,2.8019,2.8627,2.8645,2.8586,2.8615,2.8634,2.8719,2.8832,2.8964,2.986,3.1586,3.4243,3.5852,3.8624,4.067,4.1191,4.0429,3.9015,3.8492,3.8492,3.8504,3.9142,4.0416,4.1572,4.2178,4.2191,4.2165,4.2191,4.2178,4.2165,4.2218,4.2218,4.2218,4.2205,4.2191,4.2191,4.2205,4.2218,4.2218,4.2205,4.2205,4.2218,4.2218,4.2218,4.2205,4.2031,4.1911,4.1831,4.1817,4.1844,4.1964,4.2098,4.2258,4.2258,4.2271,4.2325,4.2378,4.2365,4.2365,4.2445,4.2592,4.2646,4.2686,4.2619,4.2432,4.2378,4.2405,4.2298,4.2165,4.2178,4.2071,4.1871,4.1737,4.1724,4.1737,4.175,4.1817,4.1871,4.1884,4.1924,4.1857,4.179,4.143,4.1189,4.1163,4.1122,4.0949,4.0869,4.0909,4.1127,4.1548,4.3223,4.5668,4.8737,5.1813,5.5204,5.8729,5.9617,5.9863,1.8877,1.9047,1.9054,1.9223,1.9615,2.0615,2.1166,2.1273,2.2433,2.3632,2.4837,2.5198,2.6408,2.7405,2.767,2.7971,2.8057,2.8265,2.8464,2.8568,2.8624,2.8728,2.8832,2.8936,2.9116,3.0595,3.257,3.5014,3.6558,3.927,4.0289,3.9907,4.081,4.0289,4.0162,4.0556,4.0047,4.0035,4.1318,4.1965,4.2218,4.2218,4.2218,4.2218,4.2218,4.2218,4.2218,4.2218,4.2218,4.2218,4.2218,4.2218,4.2218,4.2218,4.2218,4.2218,4.2218,4.2218,4.2218,4.2218,4.2231,4.2245,4.2124,4.2124,4.2098,4.2084,4.2111,4.2258,4.2405,4.2445,4.2539,4.2619,4.2659,4.2686,4.2699,4.2793,4.2926,4.2966,4.3006,4.2926,4.2739,4.2659,4.2672,4.2458,4.2352,4.2418,4.2352,4.2138,4.2044,4.2031,4.2058,4.2058,4.2178,4.2285,4.2245,4.2271,4.2165,4.2031,4.1657,4.143,4.1483,4.1403,4.1176,4.1096,4.1149,4.1163,4.1409,4.3347,4.5298,4.8727,5.1828,5.5348,5.8269,5.9513,6.0312,1.885,1.8979,1.8993,1.9162,1.966,2.1511,2.2304,2.2546,2.3745,2.4717,2.5559,2.687,2.7358,2.7525,2.8328,2.8653,2.801,2.8237,2.8435,2.8586,2.8624,2.8757,2.8889,2.904,2.9257,3.102,3.3241,3.5779,3.7176,3.978,4.1318,4.081,4.1838,4.1318,4.1064,4.1318,4.1318,4.1191,4.1445,4.2091,4.2218,4.2218,4.2218,4.2218,4.2218,4.2218,4.2218,4.2218,4.2218,4.2218,4.2218,4.2218,4.2258,4.2312,4.2392,4.2432,4.2565,4.2605,4.2619,4.2472,4.2418,4.2365,4.2298,4.2218,4.2205,4.2178,4.2285,4.2418,4.2552,4.2699,4.2833,4.2966,4.302,4.3073,4.3127,4.3193,4.3247,4.3314,4.3287,4.3247,4.3167,4.306,4.2913,4.2672,4.2525,4.2552,4.2512,4.2352,4.2298,4.2338,4.2392,4.2432,4.2592,4.2752,4.2659,4.2499,4.2338,4.2151,4.1871,4.171,4.179,4.171,4.1497,4.1416,4.139,4.139,4.1487,4.2806,4.493,4.8501,5.2334,5.5886,5.8699,6.0225,6.084,1.8843,1.8972,1.9,1.9281,1.9887,2.234,2.3512,2.3753,2.4958,2.5679,2.6519,2.8891,2.902,2.8473,2.9341,2.9098,2.8452,2.818,2.8388,2.8615,2.8624,2.8738,2.8946,2.9144,2.9708,3.1218,3.3573,3.6512,3.7816,4.0162,4.2091,4.2218,4.2091,4.1838,4.1838,4.1965,4.1991,4.2071,4.2005,4.2218,4.2218,4.2218,4.2218,4.2218,4.2218,4.2218,4.2218,4.2218,4.2218,4.2218,4.2218,4.2218,4.2298,4.2472,4.2579,4.2712,4.2833,4.2926,4.2899,4.2793,4.2712,4.2605,4.2458,4.2432,4.2458,4.2378,4.2445,4.2605,4.2752,4.2966,4.314,4.3314,4.3407,4.3514,4.3594,4.3768,4.3941,4.3901,4.3741,4.3648,4.3447,4.3367,4.3314,4.31,4.2873,4.2793,4.2619,4.2499,4.2512,4.2565,4.2672,4.2739,4.2846,4.2926,4.2779,4.2605,4.2432,4.2218,4.1991,4.1964,4.2004,4.1937,4.1817,4.1724,4.1617,4.1563,4.1812,4.3041,4.5481,4.974,5.3392,5.6644,5.901,6.067,6.125,1.8782,1.8837,1.9061,1.9671,2.0833,2.2661,2.4106,2.5078,2.6288,2.7726,2.903,2.9725,2.9962,2.9636,3.0045,2.9682,2.831,2.8086,2.8303,2.8636,2.873,2.9143,2.9199,2.9791,3.0506,3.2237,3.473,3.7712,3.9907,4.1572,4.2218,4.2218,4.2218,4.2218,4.2218,4.2231,4.2338,4.2472,4.2405,4.2325,4.2312,4.2258,4.2218,4.2218,4.2218,4.2218,4.2218,4.2218,4.2218,4.2218,4.2218,4.2218,4.2231,4.2512,4.2646,4.2712,4.3006,4.3153,4.3153,4.3086,4.3006,4.298,4.2899,4.2899,4.2833,4.2659,4.2646,4.2806,4.298,4.322,4.3461,4.3648,4.3835,4.3955,4.4075,4.4342,4.4596,4.4422,4.4222,4.4008,4.3781,4.3661,4.3634,4.3501,4.3287,4.3046,4.2779,4.2632,4.2659,4.2712,4.2886,4.2953,4.298,4.3006,4.2859,4.2686,4.2472,4.2325,4.2124,4.2151,4.2205,4.2111,4.1991,4.1924,4.1844,4.1817,4.2108,4.3261,4.616,5.0133,5.3425,5.6137,5.9061,6.1155,6.1466,1.8762,1.8789,1.9013,1.9852,2.1249,2.2798,2.416,2.555,2.6768,2.8911,3.116,3.1386,3.1031,3.0675,3.1041,2.98,2.8215,2.7972,2.819,2.8541,2.9481,3.0208,3.0522,3.121,3.2763,3.4513,3.6454,3.9002,4.1711,4.2218,4.2218,4.2218,4.2218,4.2218,4.2245,4.2338,4.2485,4.2632,4.2579,4.2592,4.2525,4.2405,4.2245,4.2218,4.2218,4.2218,4.2218,4.2218,4.2218,4.2218,4.2218,4.2338,4.2458,4.2726,4.2926,4.3113,4.3327,4.3501,4.3461,4.338,4.33,4.3287,4.314,4.3046,4.306,4.2939,4.3086,4.3233,4.326,4.3461,4.3861,4.4115,4.4289,4.4436,4.4529,4.4703,4.4823,4.477,4.4636,4.4516,4.4209,4.3861,4.3835,4.3808,4.3594,4.338,4.3086,4.2926,4.2913,4.2846,4.302,4.3127,4.3113,4.298,4.2779,4.2632,4.2472,4.2338,4.2218,4.2218,4.2218,4.2218,4.2165,4.2084,4.2058,4.2111,4.2683,4.3593,4.5668,4.9264,5.2455,5.5316,5.8333,6.0998,6.1349,1.8762,1.8782,1.9159,1.9996,2.1315,2.2933,2.4299,2.5635,2.6879,2.9507,3.2568,3.2804,3.1859,3.1623,3.1515,2.9909,2.8637,2.7962,2.8076,2.9302,3.0586,3.162,3.2782,3.4166,3.5101,3.6628,3.8595,4.0162,4.2091,4.2218,4.2218,4.2218,4.2218,4.2218,4.2312,4.2485,4.2672,4.2806,4.2873,4.306,4.2886,4.2605,4.2392,4.2298,4.2231,4.2218,4.2218,4.2258,4.2271,4.2258,4.2298,4.2499,4.2726,4.2993,4.3207,4.342,4.3674,4.3848,4.3875,4.3701,4.3634,4.3527,4.33,4.3247,4.33,4.3434,4.3581,4.3581,4.3607,4.3781,4.4182,4.4449,4.4623,4.4877,4.497,4.505,4.5104,4.509,4.4984,4.489,4.4516,4.4115,4.3995,4.3995,4.3861,4.3648,4.3487,4.3354,4.322,4.3113,4.3127,4.3153,4.314,4.2966,4.2779,4.2552,4.2405,4.2325,4.2218,4.2218,4.2218,4.2218,4.2218,4.2205,4.2218,4.2218,4.2836,4.3719,4.6292,4.8726,5.1669,5.4612,5.7044,5.9452,6.0647,1.8762,1.8892,1.9978,2.0877,2.1884,2.3825,2.5312,2.608,2.7072,2.9507,3.245,3.304,3.2686,3.2332,3.1031,2.9489,2.8115,2.7774,2.9234,3.0742,3.1482,3.2759,3.4368,3.6012,3.6775,3.8436,4.0289,4.1572,4.2218,4.2218,4.2218,4.2218,4.2218,4.2231,4.2271,4.2499,4.2793,4.2939,4.3113,4.3273,4.3273,4.298,4.2659,4.2499,4.2338,4.2271,4.2271,4.2472,4.2392,4.2365,4.2458,4.2726,4.298,4.3247,4.3434,4.3607,4.3875,4.3968,4.3941,4.3901,4.3835,4.3901,4.3768,4.3795,4.3901,4.4062,4.4088,4.3968,4.3995,4.4102,4.4396,4.4503,4.4676,4.5117,4.5344,4.5451,4.5518,4.5331,4.5144,4.4917,4.4609,4.4289,4.4048,4.4035,4.3995,4.3808,4.3661,4.3527,4.3487,4.3367,4.3273,4.326,4.3233,4.3127,4.3006,4.2539,4.2338,4.2271,4.2218,4.2218,4.2218,4.2218,4.2218,4.2218,4.2218,4.2218,4.2963,4.3845,4.6057,4.851,5.1214,5.3922,5.6124,5.8262,5.9797]}]]